<?xml version="1.0" encoding="UTF-8"?>
<gpx xmlns="http://www.topografix.com/GPX/1/1" xmlns:gpsies="http://www.gpsies.com/GPX/1/0" creator="GPSies http://www.gpsies.com - LaSagrantino2013PercorsoGranfondoKm119" version="1.1" xmlns:xsi="http://www.w3.org/2001/XMLSchema-instance" xsi:schemaLocation="http://www.topografix.com/GPX/1/1 http://www.topografix.com/GPX/1/1/gpx.xsd http://www.gpsies.com/GPX/1/0 http://www.gpsies.com/gpsies.xsd">
  <metadata>
    <name>LaSagrantino2013PercorsoGranfondoKm119</name>
    <link href="http://www.gpsies.com/map.do?fileId=gzxkbhusmwpqatyo">
      <text>LaSagrantino2013PercorsoGranfondoKm119 on GPSies.com</text>
    </link>
    <time>2013-01-30T21:38:05Z</time>
    <extensions>
      <gpsies:property>round trip</gpsies:property>
      <gpsies:trackLengthMeter>119113.99493500768</gpsies:trackLengthMeter>
      <gpsies:totalAscentMeter>2076.0</gpsies:totalAscentMeter>
      <gpsies:totalDescentMeter>2068.0</gpsies:totalDescentMeter>
      <gpsies:minHeightMeter>198.0</gpsies:minHeightMeter>
      <gpsies:maxHeightMeter>630.0</gpsies:maxHeightMeter>
    </extensions>
  </metadata>
  <trk>
    <name>LaSagrantino2013PercorsoGranfondoKm119 on GPSies.com</name>
    <link href="http://www.gpsies.com/map.do?fileId=gzxkbhusmwpqatyo" />
    <trkseg>
      <trkpt lat="42.89460000" lon="12.65269000">
        <ele>462.00000</ele>
        <time>2010-01-01T00:00:00Z</time>
      </trkpt>
      <trkpt lat="42.89474100" lon="12.65304000">
        <ele>462.00000</ele>
        <time>2010-01-01T00:00:04Z</time>
      </trkpt>
      <trkpt lat="42.89567200" lon="12.65357000">
        <ele>453.00000</ele>
        <time>2010-01-01T00:00:20Z</time>
      </trkpt>
      <trkpt lat="42.89564900" lon="12.65366000">
        <ele>453.00000</ele>
        <time>2010-01-01T00:00:21Z</time>
      </trkpt>
      <trkpt lat="42.89569900" lon="12.65373000">
        <ele>452.00000</ele>
        <time>2010-01-01T00:00:23Z</time>
      </trkpt>
      <trkpt lat="42.89579000" lon="12.65368000">
        <ele>452.00000</ele>
        <time>2010-01-01T00:00:24Z</time>
      </trkpt>
      <trkpt lat="42.89577900" lon="12.65357000">
        <ele>452.00000</ele>
        <time>2010-01-01T00:00:25Z</time>
      </trkpt>
      <trkpt lat="42.89574100" lon="12.65354000">
        <ele>453.00000</ele>
        <time>2010-01-01T00:00:26Z</time>
      </trkpt>
      <trkpt lat="42.89576000" lon="12.65328000">
        <ele>452.00000</ele>
        <time>2010-01-01T00:00:29Z</time>
      </trkpt>
      <trkpt lat="42.89572900" lon="12.65318000">
        <ele>450.00000</ele>
        <time>2010-01-01T00:00:31Z</time>
      </trkpt>
      <trkpt lat="42.89505000" lon="12.65251000">
        <ele>452.00000</ele>
        <time>2010-01-01T00:00:44Z</time>
      </trkpt>
      <trkpt lat="42.89490900" lon="12.65226000">
        <ele>451.00000</ele>
        <time>2010-01-01T00:00:48Z</time>
      </trkpt>
      <trkpt lat="42.89479100" lon="12.65187000">
        <ele>449.00000</ele>
        <time>2010-01-01T00:00:53Z</time>
      </trkpt>
      <trkpt lat="42.89447000" lon="12.65164000">
        <ele>456.00000</ele>
        <time>2010-01-01T00:00:58Z</time>
      </trkpt>
      <trkpt lat="42.89440900" lon="12.65153000">
        <ele>457.00000</ele>
        <time>2010-01-01T00:01:00Z</time>
      </trkpt>
      <trkpt lat="42.89427200" lon="12.65108000">
        <ele>458.00000</ele>
        <time>2010-01-01T00:01:06Z</time>
      </trkpt>
      <trkpt lat="42.89403900" lon="12.64995000">
        <ele>452.00000</ele>
        <time>2010-01-01T00:01:19Z</time>
      </trkpt>
      <trkpt lat="42.89371900" lon="12.64987000">
        <ele>451.00000</ele>
        <time>2010-01-01T00:01:25Z</time>
      </trkpt>
      <trkpt lat="42.89324200" lon="12.64832000">
        <ele>446.00000</ele>
        <time>2010-01-01T00:01:44Z</time>
      </trkpt>
      <trkpt lat="42.89284100" lon="12.64683000">
        <ele>444.00000</ele>
        <time>2010-01-01T00:02:03Z</time>
      </trkpt>
      <trkpt lat="42.89239900" lon="12.64551000">
        <ele>441.00000</ele>
        <time>2010-01-01T00:02:20Z</time>
      </trkpt>
      <trkpt lat="42.89230000" lon="12.64510000">
        <ele>439.00000</ele>
        <time>2010-01-01T00:02:25Z</time>
      </trkpt>
      <trkpt lat="42.89228100" lon="12.64481000">
        <ele>438.00000</ele>
        <time>2010-01-01T00:02:29Z</time>
      </trkpt>
      <trkpt lat="42.89234200" lon="12.64429000">
        <ele>436.00000</ele>
        <time>2010-01-01T00:02:35Z</time>
      </trkpt>
      <trkpt lat="42.89255100" lon="12.64394000">
        <ele>436.00000</ele>
        <time>2010-01-01T00:02:40Z</time>
      </trkpt>
      <trkpt lat="42.89276900" lon="12.64381000">
        <ele>435.00000</ele>
        <time>2010-01-01T00:02:44Z</time>
      </trkpt>
      <trkpt lat="42.89326100" lon="12.64369000">
        <ele>437.00000</ele>
        <time>2010-01-01T00:02:52Z</time>
      </trkpt>
      <trkpt lat="42.89360000" lon="12.64330000">
        <ele>432.00000</ele>
        <time>2010-01-01T00:02:59Z</time>
      </trkpt>
      <trkpt lat="42.89368800" lon="12.64304000">
        <ele>430.00000</ele>
        <time>2010-01-01T00:03:02Z</time>
      </trkpt>
      <trkpt lat="42.89374200" lon="12.64259000">
        <ele>428.00000</ele>
        <time>2010-01-01T00:03:08Z</time>
      </trkpt>
      <trkpt lat="42.89366100" lon="12.64211000">
        <ele>427.00000</ele>
        <time>2010-01-01T00:03:13Z</time>
      </trkpt>
      <trkpt lat="42.89368800" lon="12.64177000">
        <ele>427.00000</ele>
        <time>2010-01-01T00:03:17Z</time>
      </trkpt>
      <trkpt lat="42.89337900" lon="12.64123000">
        <ele>426.00000</ele>
        <time>2010-01-01T00:03:25Z</time>
      </trkpt>
      <trkpt lat="42.89308200" lon="12.64042000">
        <ele>423.00000</ele>
        <time>2010-01-01T00:03:36Z</time>
      </trkpt>
      <trkpt lat="42.89254000" lon="12.63949000">
        <ele>424.00000</ele>
        <time>2010-01-01T00:03:50Z</time>
      </trkpt>
      <trkpt lat="42.89239900" lon="12.63890000">
        <ele>419.00000</ele>
        <time>2010-01-01T00:03:57Z</time>
      </trkpt>
      <trkpt lat="42.89228800" lon="12.63799000">
        <ele>414.00000</ele>
        <time>2010-01-01T00:04:08Z</time>
      </trkpt>
      <trkpt lat="42.89233000" lon="12.63754000">
        <ele>413.00000</ele>
        <time>2010-01-01T00:04:13Z</time>
      </trkpt>
      <trkpt lat="42.89250900" lon="12.63670000">
        <ele>412.00000</ele>
        <time>2010-01-01T00:04:24Z</time>
      </trkpt>
      <trkpt lat="42.89263200" lon="12.63545000">
        <ele>409.00000</ele>
        <time>2010-01-01T00:04:39Z</time>
      </trkpt>
      <trkpt lat="42.89292100" lon="12.63433000">
        <ele>406.00000</ele>
        <time>2010-01-01T00:04:52Z</time>
      </trkpt>
      <trkpt lat="42.89294800" lon="12.63405000">
        <ele>406.00000</ele>
        <time>2010-01-01T00:04:56Z</time>
      </trkpt>
      <trkpt lat="42.89294100" lon="12.63312000">
        <ele>402.00000</ele>
        <time>2010-01-01T00:05:07Z</time>
      </trkpt>
      <trkpt lat="42.89297900" lon="12.63289000">
        <ele>400.00000</ele>
        <time>2010-01-01T00:05:09Z</time>
      </trkpt>
      <trkpt lat="42.89313100" lon="12.63231000">
        <ele>397.00000</ele>
        <time>2010-01-01T00:05:17Z</time>
      </trkpt>
      <trkpt lat="42.89374900" lon="12.63047000">
        <ele>397.00000</ele>
        <time>2010-01-01T00:05:40Z</time>
      </trkpt>
      <trkpt lat="42.89379100" lon="12.63021000">
        <ele>398.00000</ele>
        <time>2010-01-01T00:05:44Z</time>
      </trkpt>
      <trkpt lat="42.89379100" lon="12.62998000">
        <ele>399.00000</ele>
        <time>2010-01-01T00:05:46Z</time>
      </trkpt>
      <trkpt lat="42.89360800" lon="12.62861000">
        <ele>403.00000</ele>
        <time>2010-01-01T00:06:03Z</time>
      </trkpt>
      <trkpt lat="42.89355100" lon="12.62838000">
        <ele>404.00000</ele>
        <time>2010-01-01T00:06:05Z</time>
      </trkpt>
      <trkpt lat="42.89310800" lon="12.62745000">
        <ele>410.00000</ele>
        <time>2010-01-01T00:06:18Z</time>
      </trkpt>
      <trkpt lat="42.89299000" lon="12.62654000">
        <ele>409.00000</ele>
        <time>2010-01-01T00:06:29Z</time>
      </trkpt>
      <trkpt lat="42.89294800" lon="12.62558000">
        <ele>408.00000</ele>
        <time>2010-01-01T00:06:41Z</time>
      </trkpt>
      <trkpt lat="42.89302800" lon="12.62518000">
        <ele>409.00000</ele>
        <time>2010-01-01T00:06:45Z</time>
      </trkpt>
      <trkpt lat="42.89321900" lon="12.62472000">
        <ele>408.00000</ele>
        <time>2010-01-01T00:06:52Z</time>
      </trkpt>
      <trkpt lat="42.89371100" lon="12.62400000">
        <ele>404.00000</ele>
        <time>2010-01-01T00:07:03Z</time>
      </trkpt>
      <trkpt lat="42.89431000" lon="12.62324000">
        <ele>403.00000</ele>
        <time>2010-01-01T00:07:16Z</time>
      </trkpt>
      <trkpt lat="42.89482100" lon="12.62235000">
        <ele>405.00000</ele>
        <time>2010-01-01T00:07:30Z</time>
      </trkpt>
      <trkpt lat="42.89516800" lon="12.62150000">
        <ele>409.00000</ele>
        <time>2010-01-01T00:07:41Z</time>
      </trkpt>
      <trkpt lat="42.89514900" lon="12.62100000">
        <ele>410.00000</ele>
        <time>2010-01-01T00:07:47Z</time>
      </trkpt>
      <trkpt lat="42.89490100" lon="12.61988000">
        <ele>413.00000</ele>
        <time>2010-01-01T00:08:01Z</time>
      </trkpt>
      <trkpt lat="42.89487100" lon="12.61942000">
        <ele>413.00000</ele>
        <time>2010-01-01T00:08:06Z</time>
      </trkpt>
      <trkpt lat="42.89532900" lon="12.61570000">
        <ele>414.00000</ele>
        <time>2010-01-01T00:08:50Z</time>
      </trkpt>
      <trkpt lat="42.89548900" lon="12.61438000">
        <ele>418.00000</ele>
        <time>2010-01-01T00:09:06Z</time>
      </trkpt>
      <trkpt lat="42.89561100" lon="12.61376000">
        <ele>419.00000</ele>
        <time>2010-01-01T00:09:13Z</time>
      </trkpt>
      <trkpt lat="42.89559200" lon="12.61320000">
        <ele>417.00000</ele>
        <time>2010-01-01T00:09:20Z</time>
      </trkpt>
      <trkpt lat="42.89537000" lon="12.61216000">
        <ele>415.00000</ele>
        <time>2010-01-01T00:09:33Z</time>
      </trkpt>
      <trkpt lat="42.89521000" lon="12.61163000">
        <ele>413.00000</ele>
        <time>2010-01-01T00:09:39Z</time>
      </trkpt>
      <trkpt lat="42.89506900" lon="12.61130000">
        <ele>413.00000</ele>
        <time>2010-01-01T00:09:44Z</time>
      </trkpt>
      <trkpt lat="42.89471100" lon="12.61068000">
        <ele>411.00000</ele>
        <time>2010-01-01T00:09:53Z</time>
      </trkpt>
      <trkpt lat="42.89456200" lon="12.61016000">
        <ele>410.00000</ele>
        <time>2010-01-01T00:10:00Z</time>
      </trkpt>
      <trkpt lat="42.89452000" lon="12.60981000">
        <ele>410.00000</ele>
        <time>2010-01-01T00:10:04Z</time>
      </trkpt>
      <trkpt lat="42.89456200" lon="12.60955000">
        <ele>408.00000</ele>
        <time>2010-01-01T00:10:07Z</time>
      </trkpt>
      <trkpt lat="42.89463000" lon="12.60938000">
        <ele>408.00000</ele>
        <time>2010-01-01T00:10:09Z</time>
      </trkpt>
      <trkpt lat="42.89495100" lon="12.60912000">
        <ele>405.00000</ele>
        <time>2010-01-01T00:10:15Z</time>
      </trkpt>
      <trkpt lat="42.89497000" lon="12.60892000">
        <ele>403.00000</ele>
        <time>2010-01-01T00:10:18Z</time>
      </trkpt>
      <trkpt lat="42.89450100" lon="12.60846000">
        <ele>399.00000</ele>
        <time>2010-01-01T00:10:27Z</time>
      </trkpt>
      <trkpt lat="42.89355900" lon="12.60656000">
        <ele>388.00000</ele>
        <time>2010-01-01T00:10:54Z</time>
      </trkpt>
      <trkpt lat="42.89329100" lon="12.60632000">
        <ele>387.00000</ele>
        <time>2010-01-01T00:10:59Z</time>
      </trkpt>
      <trkpt lat="42.89326900" lon="12.60612000">
        <ele>386.00000</ele>
        <time>2010-01-01T00:11:01Z</time>
      </trkpt>
      <trkpt lat="42.89329900" lon="12.60597000">
        <ele>386.00000</ele>
        <time>2010-01-01T00:11:03Z</time>
      </trkpt>
      <trkpt lat="42.89345900" lon="12.60577000">
        <ele>385.00000</ele>
        <time>2010-01-01T00:11:07Z</time>
      </trkpt>
      <trkpt lat="42.89352000" lon="12.60626000">
        <ele>387.00000</ele>
        <time>2010-01-01T00:11:12Z</time>
      </trkpt>
      <trkpt lat="42.89370000" lon="12.60658000">
        <ele>387.00000</ele>
        <time>2010-01-01T00:11:17Z</time>
      </trkpt>
      <trkpt lat="42.89384100" lon="12.60695000">
        <ele>389.00000</ele>
        <time>2010-01-01T00:11:22Z</time>
      </trkpt>
      <trkpt lat="42.89424100" lon="12.60771000">
        <ele>393.00000</ele>
        <time>2010-01-01T00:11:33Z</time>
      </trkpt>
      <trkpt lat="42.89469100" lon="12.60834000">
        <ele>397.00000</ele>
        <time>2010-01-01T00:11:43Z</time>
      </trkpt>
      <trkpt lat="42.89522900" lon="12.60881000">
        <ele>399.00000</ele>
        <time>2010-01-01T00:11:54Z</time>
      </trkpt>
      <trkpt lat="42.89577100" lon="12.60918000">
        <ele>399.00000</ele>
        <time>2010-01-01T00:12:03Z</time>
      </trkpt>
      <trkpt lat="42.89746900" lon="12.60989000">
        <ele>393.00000</ele>
        <time>2010-01-01T00:12:32Z</time>
      </trkpt>
      <trkpt lat="42.89778100" lon="12.60979000">
        <ele>390.00000</ele>
        <time>2010-01-01T00:12:37Z</time>
      </trkpt>
      <trkpt lat="42.89976100" lon="12.60808000">
        <ele>384.00000</ele>
        <time>2010-01-01T00:13:14Z</time>
      </trkpt>
      <trkpt lat="42.90078000" lon="12.60713000">
        <ele>379.00000</ele>
        <time>2010-01-01T00:13:34Z</time>
      </trkpt>
      <trkpt lat="42.90113800" lon="12.60698000">
        <ele>377.00000</ele>
        <time>2010-01-01T00:13:40Z</time>
      </trkpt>
      <trkpt lat="42.90301900" lon="12.60669000">
        <ele>368.00000</ele>
        <time>2010-01-01T00:14:10Z</time>
      </trkpt>
      <trkpt lat="42.90346100" lon="12.60670000">
        <ele>366.00000</ele>
        <time>2010-01-01T00:14:18Z</time>
      </trkpt>
      <trkpt lat="42.90364800" lon="12.60680000">
        <ele>366.00000</ele>
        <time>2010-01-01T00:14:21Z</time>
      </trkpt>
      <trkpt lat="42.90404100" lon="12.60714000">
        <ele>366.00000</ele>
        <time>2010-01-01T00:14:28Z</time>
      </trkpt>
      <trkpt lat="42.90488100" lon="12.60794000">
        <ele>361.00000</ele>
        <time>2010-01-01T00:14:45Z</time>
      </trkpt>
      <trkpt lat="42.90510900" lon="12.60802000">
        <ele>360.00000</ele>
        <time>2010-01-01T00:14:48Z</time>
      </trkpt>
      <trkpt lat="42.90528900" lon="12.60799000">
        <ele>359.00000</ele>
        <time>2010-01-01T00:14:51Z</time>
      </trkpt>
      <trkpt lat="42.90547900" lon="12.60787000">
        <ele>360.00000</ele>
        <time>2010-01-01T00:14:55Z</time>
      </trkpt>
      <trkpt lat="42.90584900" lon="12.60751000">
        <ele>363.00000</ele>
        <time>2010-01-01T00:15:02Z</time>
      </trkpt>
      <trkpt lat="42.90665800" lon="12.60688000">
        <ele>356.00000</ele>
        <time>2010-01-01T00:15:17Z</time>
      </trkpt>
      <trkpt lat="42.90694000" lon="12.60679000">
        <ele>355.00000</ele>
        <time>2010-01-01T00:15:21Z</time>
      </trkpt>
      <trkpt lat="42.90724900" lon="12.60677000">
        <ele>354.00000</ele>
        <time>2010-01-01T00:15:26Z</time>
      </trkpt>
      <trkpt lat="42.90774200" lon="12.60682000">
        <ele>354.00000</ele>
        <time>2010-01-01T00:15:34Z</time>
      </trkpt>
      <trkpt lat="42.90790900" lon="12.60691000">
        <ele>354.00000</ele>
        <time>2010-01-01T00:15:37Z</time>
      </trkpt>
      <trkpt lat="42.90811900" lon="12.60721000">
        <ele>355.00000</ele>
        <time>2010-01-01T00:15:42Z</time>
      </trkpt>
      <trkpt lat="42.90816900" lon="12.60759000">
        <ele>355.00000</ele>
        <time>2010-01-01T00:15:47Z</time>
      </trkpt>
      <trkpt lat="42.90815000" lon="12.60785000">
        <ele>355.00000</ele>
        <time>2010-01-01T00:15:50Z</time>
      </trkpt>
      <trkpt lat="42.90799000" lon="12.60835000">
        <ele>353.00000</ele>
        <time>2010-01-01T00:15:56Z</time>
      </trkpt>
      <trkpt lat="42.90749000" lon="12.60951000">
        <ele>348.00000</ele>
        <time>2010-01-01T00:16:12Z</time>
      </trkpt>
      <trkpt lat="42.90723000" lon="12.60978000">
        <ele>346.00000</ele>
        <time>2010-01-01T00:16:17Z</time>
      </trkpt>
      <trkpt lat="42.90660900" lon="12.61022000">
        <ele>343.00000</ele>
        <time>2010-01-01T00:16:28Z</time>
      </trkpt>
      <trkpt lat="42.90652100" lon="12.61036000">
        <ele>340.00000</ele>
        <time>2010-01-01T00:16:30Z</time>
      </trkpt>
      <trkpt lat="42.90649000" lon="12.61048000">
        <ele>339.00000</ele>
        <time>2010-01-01T00:16:32Z</time>
      </trkpt>
      <trkpt lat="42.90650900" lon="12.61064000">
        <ele>339.00000</ele>
        <time>2010-01-01T00:16:34Z</time>
      </trkpt>
      <trkpt lat="42.90663900" lon="12.61080000">
        <ele>341.00000</ele>
        <time>2010-01-01T00:16:37Z</time>
      </trkpt>
      <trkpt lat="42.90687900" lon="12.61083000">
        <ele>340.00000</ele>
        <time>2010-01-01T00:16:40Z</time>
      </trkpt>
      <trkpt lat="42.90782200" lon="12.61048000">
        <ele>339.00000</ele>
        <time>2010-01-01T00:16:56Z</time>
      </trkpt>
      <trkpt lat="42.90864900" lon="12.61025000">
        <ele>334.00000</ele>
        <time>2010-01-01T00:17:10Z</time>
      </trkpt>
      <trkpt lat="42.90935900" lon="12.60989000">
        <ele>331.00000</ele>
        <time>2010-01-01T00:17:22Z</time>
      </trkpt>
      <trkpt lat="42.91030900" lon="12.60955000">
        <ele>326.00000</ele>
        <time>2010-01-01T00:17:37Z</time>
      </trkpt>
      <trkpt lat="42.91112100" lon="12.60900000">
        <ele>325.00000</ele>
        <time>2010-01-01T00:17:52Z</time>
      </trkpt>
      <trkpt lat="42.91128900" lon="12.60898000">
        <ele>324.00000</ele>
        <time>2010-01-01T00:17:55Z</time>
      </trkpt>
      <trkpt lat="42.91173200" lon="12.60916000">
        <ele>319.00000</ele>
        <time>2010-01-01T00:18:02Z</time>
      </trkpt>
      <trkpt lat="42.91209000" lon="12.60921000">
        <ele>315.00000</ele>
        <time>2010-01-01T00:18:08Z</time>
      </trkpt>
      <trkpt lat="42.91233100" lon="12.60910000">
        <ele>315.00000</ele>
        <time>2010-01-01T00:18:12Z</time>
      </trkpt>
      <trkpt lat="42.91264000" lon="12.60883000">
        <ele>314.00000</ele>
        <time>2010-01-01T00:18:18Z</time>
      </trkpt>
      <trkpt lat="42.91286800" lon="12.60880000">
        <ele>312.00000</ele>
        <time>2010-01-01T00:18:21Z</time>
      </trkpt>
      <trkpt lat="42.91304000" lon="12.60894000">
        <ele>309.00000</ele>
        <time>2010-01-01T00:18:25Z</time>
      </trkpt>
      <trkpt lat="42.91307800" lon="12.60903000">
        <ele>308.00000</ele>
        <time>2010-01-01T00:18:26Z</time>
      </trkpt>
      <trkpt lat="42.91362000" lon="12.61112000">
        <ele>298.00000</ele>
        <time>2010-01-01T00:18:52Z</time>
      </trkpt>
      <trkpt lat="42.91396000" lon="12.61156000">
        <ele>295.00000</ele>
        <time>2010-01-01T00:18:59Z</time>
      </trkpt>
      <trkpt lat="42.91479100" lon="12.61222000">
        <ele>289.00000</ele>
        <time>2010-01-01T00:19:15Z</time>
      </trkpt>
      <trkpt lat="42.91487900" lon="12.61223000">
        <ele>288.00000</ele>
        <time>2010-01-01T00:19:16Z</time>
      </trkpt>
      <trkpt lat="42.91505100" lon="12.61214000">
        <ele>287.00000</ele>
        <time>2010-01-01T00:19:19Z</time>
      </trkpt>
      <trkpt lat="42.91511900" lon="12.61206000">
        <ele>287.00000</ele>
        <time>2010-01-01T00:19:21Z</time>
      </trkpt>
      <trkpt lat="42.91518000" lon="12.61184000">
        <ele>286.00000</ele>
        <time>2010-01-01T00:19:23Z</time>
      </trkpt>
      <trkpt lat="42.91511900" lon="12.61121000">
        <ele>285.00000</ele>
        <time>2010-01-01T00:19:31Z</time>
      </trkpt>
      <trkpt lat="42.91500100" lon="12.61049000">
        <ele>285.00000</ele>
        <time>2010-01-01T00:19:39Z</time>
      </trkpt>
      <trkpt lat="42.91500900" lon="12.61017000">
        <ele>284.00000</ele>
        <time>2010-01-01T00:19:43Z</time>
      </trkpt>
      <trkpt lat="42.91505100" lon="12.61004000">
        <ele>283.00000</ele>
        <time>2010-01-01T00:19:45Z</time>
      </trkpt>
      <trkpt lat="42.91519900" lon="12.60991000">
        <ele>280.00000</ele>
        <time>2010-01-01T00:19:48Z</time>
      </trkpt>
      <trkpt lat="42.91540900" lon="12.61001000">
        <ele>278.00000</ele>
        <time>2010-01-01T00:19:51Z</time>
      </trkpt>
      <trkpt lat="42.91576000" lon="12.61082000">
        <ele>274.00000</ele>
        <time>2010-01-01T00:20:02Z</time>
      </trkpt>
      <trkpt lat="42.91600000" lon="12.61102000">
        <ele>272.00000</ele>
        <time>2010-01-01T00:20:07Z</time>
      </trkpt>
      <trkpt lat="42.91632800" lon="12.61119000">
        <ele>269.00000</ele>
        <time>2010-01-01T00:20:12Z</time>
      </trkpt>
      <trkpt lat="42.91648100" lon="12.61139000">
        <ele>267.00000</ele>
        <time>2010-01-01T00:20:16Z</time>
      </trkpt>
      <trkpt lat="42.91682100" lon="12.61221000">
        <ele>264.00000</ele>
        <time>2010-01-01T00:20:27Z</time>
      </trkpt>
      <trkpt lat="42.91729000" lon="12.61375000">
        <ele>259.00000</ele>
        <time>2010-01-01T00:20:46Z</time>
      </trkpt>
      <trkpt lat="42.91746900" lon="12.61403000">
        <ele>257.00000</ele>
        <time>2010-01-01T00:20:51Z</time>
      </trkpt>
      <trkpt lat="42.91844200" lon="12.61425000">
        <ele>247.00000</ele>
        <time>2010-01-01T00:21:07Z</time>
      </trkpt>
      <trkpt lat="42.91914000" lon="12.61426000">
        <ele>244.00000</ele>
        <time>2010-01-01T00:21:18Z</time>
      </trkpt>
      <trkpt lat="42.92063900" lon="12.61380000">
        <ele>234.00000</ele>
        <time>2010-01-01T00:21:42Z</time>
      </trkpt>
      <trkpt lat="42.92150900" lon="12.61368000">
        <ele>229.00000</ele>
        <time>2010-01-01T00:21:56Z</time>
      </trkpt>
      <trkpt lat="42.92179100" lon="12.61370000">
        <ele>227.00000</ele>
        <time>2010-01-01T00:22:01Z</time>
      </trkpt>
      <trkpt lat="42.92239000" lon="12.61402000">
        <ele>225.00000</ele>
        <time>2010-01-01T00:22:11Z</time>
      </trkpt>
      <trkpt lat="42.92401100" lon="12.61527000">
        <ele>217.00000</ele>
        <time>2010-01-01T00:22:41Z</time>
      </trkpt>
      <trkpt lat="42.92437000" lon="12.61541000">
        <ele>215.00000</ele>
        <time>2010-01-01T00:22:47Z</time>
      </trkpt>
      <trkpt lat="42.92467900" lon="12.61539000">
        <ele>213.00000</ele>
        <time>2010-01-01T00:22:52Z</time>
      </trkpt>
      <trkpt lat="42.92821900" lon="12.61227000">
        <ele>203.00000</ele>
        <time>2010-01-01T00:23:59Z</time>
      </trkpt>
      <trkpt lat="42.93030900" lon="12.61036000">
        <ele>203.00000</ele>
        <time>2010-01-01T00:24:40Z</time>
      </trkpt>
      <trkpt lat="42.93080100" lon="12.61001000">
        <ele>205.00000</ele>
        <time>2010-01-01T00:24:48Z</time>
      </trkpt>
      <trkpt lat="42.93112200" lon="12.61002000">
        <ele>205.00000</ele>
        <time>2010-01-01T00:24:54Z</time>
      </trkpt>
      <trkpt lat="42.93183900" lon="12.61050000">
        <ele>204.00000</ele>
        <time>2010-01-01T00:25:06Z</time>
      </trkpt>
      <trkpt lat="42.93475000" lon="12.61212000">
        <ele>216.00000</ele>
        <time>2010-01-01T00:25:57Z</time>
      </trkpt>
      <trkpt lat="42.93497100" lon="12.61228000">
        <ele>217.00000</ele>
        <time>2010-01-01T00:26:01Z</time>
      </trkpt>
      <trkpt lat="42.93544000" lon="12.61187000">
        <ele>220.00000</ele>
        <time>2010-01-01T00:26:10Z</time>
      </trkpt>
      <trkpt lat="42.93576000" lon="12.61148000">
        <ele>222.00000</ele>
        <time>2010-01-01T00:26:17Z</time>
      </trkpt>
      <trkpt lat="42.93640100" lon="12.60942000">
        <ele>216.00000</ele>
        <time>2010-01-01T00:26:43Z</time>
      </trkpt>
      <trkpt lat="42.93729000" lon="12.60929000">
        <ele>216.00000</ele>
        <time>2010-01-01T00:26:57Z</time>
      </trkpt>
    </trkseg>
    <trkseg>
      <trkpt lat="42.93729000" lon="12.60929000">
        <ele>216.00000</ele>
        <time>2010-01-01T00:26:57Z</time>
      </trkpt>
      <trkpt lat="42.93787000" lon="12.60925000">
        <ele>216.00000</ele>
        <time>2010-01-01T00:27:06Z</time>
      </trkpt>
      <trkpt lat="42.94356200" lon="12.60854000">
        <ele>216.00000</ele>
        <time>2010-01-01T00:28:38Z</time>
      </trkpt>
      <trkpt lat="42.94448900" lon="12.60772000">
        <ele>216.00000</ele>
        <time>2010-01-01T00:28:56Z</time>
      </trkpt>
      <trkpt lat="42.94738000" lon="12.60517000">
        <ele>215.00000</ele>
        <time>2010-01-01T00:29:51Z</time>
      </trkpt>
      <trkpt lat="42.94778100" lon="12.60475000">
        <ele>216.00000</ele>
        <time>2010-01-01T00:29:59Z</time>
      </trkpt>
      <trkpt lat="42.94876100" lon="12.60151000">
        <ele>214.00000</ele>
        <time>2010-01-01T00:30:40Z</time>
      </trkpt>
      <trkpt lat="42.94897100" lon="12.60097000">
        <ele>210.00000</ele>
        <time>2010-01-01T00:30:47Z</time>
      </trkpt>
      <trkpt lat="42.94921900" lon="12.60056000">
        <ele>208.00000</ele>
        <time>2010-01-01T00:30:53Z</time>
      </trkpt>
      <trkpt lat="42.94958100" lon="12.60023000">
        <ele>207.00000</ele>
        <time>2010-01-01T00:31:00Z</time>
      </trkpt>
      <trkpt lat="42.95035900" lon="12.59967000">
        <ele>205.00000</ele>
        <time>2010-01-01T00:31:14Z</time>
      </trkpt>
      <trkpt lat="42.95082100" lon="12.59935000">
        <ele>204.00000</ele>
        <time>2010-01-01T00:31:23Z</time>
      </trkpt>
      <trkpt lat="42.95111800" lon="12.59921000">
        <ele>203.00000</ele>
        <time>2010-01-01T00:31:28Z</time>
      </trkpt>
      <trkpt lat="42.95163000" lon="12.59914000">
        <ele>203.00000</ele>
        <time>2010-01-01T00:31:36Z</time>
      </trkpt>
      <trkpt lat="42.95299900" lon="12.59951000">
        <ele>199.00000</ele>
        <time>2010-01-01T00:31:58Z</time>
      </trkpt>
      <trkpt lat="42.95338800" lon="12.59947000">
        <ele>198.00000</ele>
        <time>2010-01-01T00:32:04Z</time>
      </trkpt>
      <trkpt lat="42.95935800" lon="12.59402000">
        <ele>199.00000</ele>
        <time>2010-01-01T00:33:59Z</time>
      </trkpt>
      <trkpt lat="42.95967100" lon="12.59363000">
        <ele>199.00000</ele>
        <time>2010-01-01T00:34:06Z</time>
      </trkpt>
      <trkpt lat="42.96313900" lon="12.58720000">
        <ele>199.00000</ele>
        <time>2010-01-01T00:35:40Z</time>
      </trkpt>
      <trkpt lat="42.96387900" lon="12.58574000">
        <ele>198.00000</ele>
        <time>2010-01-01T00:36:01Z</time>
      </trkpt>
      <trkpt lat="42.96387900" lon="12.58360000">
        <ele>200.00000</ele>
        <time>2010-01-01T00:36:26Z</time>
      </trkpt>
      <trkpt lat="42.96392100" lon="12.58338000">
        <ele>200.00000</ele>
        <time>2010-01-01T00:36:28Z</time>
      </trkpt>
      <trkpt lat="42.96421800" lon="12.58276000">
        <ele>201.00000</ele>
        <time>2010-01-01T00:36:37Z</time>
      </trkpt>
      <trkpt lat="42.96213200" lon="12.58121000">
        <ele>202.00000</ele>
        <time>2010-01-01T00:37:15Z</time>
      </trkpt>
      <trkpt lat="42.95951100" lon="12.57938000">
        <ele>205.00000</ele>
        <time>2010-01-01T00:38:02Z</time>
      </trkpt>
      <trkpt lat="42.95872900" lon="12.57880000">
        <ele>204.00000</ele>
        <time>2010-01-01T00:38:16Z</time>
      </trkpt>
      <trkpt lat="42.95830200" lon="12.57838000">
        <ele>204.00000</ele>
        <time>2010-01-01T00:38:25Z</time>
      </trkpt>
      <trkpt lat="42.95745800" lon="12.57792000">
        <ele>205.00000</ele>
        <time>2010-01-01T00:38:39Z</time>
      </trkpt>
      <trkpt lat="42.95645100" lon="12.57776000">
        <ele>205.00000</ele>
        <time>2010-01-01T00:38:56Z</time>
      </trkpt>
      <trkpt lat="42.95497100" lon="12.57695000">
        <ele>205.00000</ele>
        <time>2010-01-01T00:39:21Z</time>
      </trkpt>
      <trkpt lat="42.95478800" lon="12.57693000">
        <ele>205.00000</ele>
        <time>2010-01-01T00:39:24Z</time>
      </trkpt>
      <trkpt lat="42.95417000" lon="12.57706000">
        <ele>207.00000</ele>
        <time>2010-01-01T00:39:34Z</time>
      </trkpt>
      <trkpt lat="42.95399100" lon="12.57702000">
        <ele>206.00000</ele>
        <time>2010-01-01T00:39:37Z</time>
      </trkpt>
      <trkpt lat="42.95373200" lon="12.57690000">
        <ele>207.00000</ele>
        <time>2010-01-01T00:39:41Z</time>
      </trkpt>
      <trkpt lat="42.95327000" lon="12.57653000">
        <ele>207.00000</ele>
        <time>2010-01-01T00:39:50Z</time>
      </trkpt>
      <trkpt lat="42.95301100" lon="12.57644000">
        <ele>208.00000</ele>
        <time>2010-01-01T00:39:54Z</time>
      </trkpt>
      <trkpt lat="42.95272800" lon="12.57642000">
        <ele>209.00000</ele>
        <time>2010-01-01T00:39:59Z</time>
      </trkpt>
      <trkpt lat="42.95060000" lon="12.57689000">
        <ele>212.00000</ele>
        <time>2010-01-01T00:40:33Z</time>
      </trkpt>
      <trkpt lat="42.94934100" lon="12.57754000">
        <ele>212.00000</ele>
        <time>2010-01-01T00:40:55Z</time>
      </trkpt>
      <trkpt lat="42.94886000" lon="12.57760000">
        <ele>213.00000</ele>
        <time>2010-01-01T00:41:03Z</time>
      </trkpt>
      <trkpt lat="42.94820000" lon="12.57740000">
        <ele>212.00000</ele>
        <time>2010-01-01T00:41:13Z</time>
      </trkpt>
      <trkpt lat="42.94519000" lon="12.57611000">
        <ele>214.00000</ele>
        <time>2010-01-01T00:42:04Z</time>
      </trkpt>
      <trkpt lat="42.94511000" lon="12.57597000">
        <ele>214.00000</ele>
        <time>2010-01-01T00:42:06Z</time>
      </trkpt>
      <trkpt lat="42.94511000" lon="12.57585000">
        <ele>214.00000</ele>
        <time>2010-01-01T00:42:07Z</time>
      </trkpt>
      <trkpt lat="42.94553000" lon="12.57362000">
        <ele>212.00000</ele>
        <time>2010-01-01T00:42:34Z</time>
      </trkpt>
      <trkpt lat="42.94558000" lon="12.57313000">
        <ele>213.00000</ele>
        <time>2010-01-01T00:42:40Z</time>
      </trkpt>
      <trkpt lat="42.94556000" lon="12.57216000">
        <ele>215.00000</ele>
        <time>2010-01-01T00:42:52Z</time>
      </trkpt>
      <trkpt lat="42.94564100" lon="12.57150000">
        <ele>217.00000</ele>
        <time>2010-01-01T00:42:59Z</time>
      </trkpt>
      <trkpt lat="42.94625900" lon="12.57036000">
        <ele>222.00000</ele>
        <time>2010-01-01T00:43:16Z</time>
      </trkpt>
      <trkpt lat="42.94638100" lon="12.57007000">
        <ele>225.00000</ele>
        <time>2010-01-01T00:43:20Z</time>
      </trkpt>
      <trkpt lat="42.94651000" lon="12.56938000">
        <ele>231.00000</ele>
        <time>2010-01-01T00:43:28Z</time>
      </trkpt>
      <trkpt lat="42.94704800" lon="12.56774000">
        <ele>244.00000</ele>
        <time>2010-01-01T00:43:49Z</time>
      </trkpt>
      <trkpt lat="42.94707900" lon="12.56735000">
        <ele>248.00000</ele>
        <time>2010-01-01T00:43:54Z</time>
      </trkpt>
      <trkpt lat="42.94707100" lon="12.56662000">
        <ele>255.00000</ele>
        <time>2010-01-01T00:44:03Z</time>
      </trkpt>
      <trkpt lat="42.94683100" lon="12.56522000">
        <ele>266.00000</ele>
        <time>2010-01-01T00:44:19Z</time>
      </trkpt>
      <trkpt lat="42.94660200" lon="12.56431000">
        <ele>274.00000</ele>
        <time>2010-01-01T00:44:31Z</time>
      </trkpt>
      <trkpt lat="42.94638800" lon="12.56309000">
        <ele>286.00000</ele>
        <time>2010-01-01T00:44:45Z</time>
      </trkpt>
      <trkpt lat="42.94570900" lon="12.56133000">
        <ele>291.00000</ele>
        <time>2010-01-01T00:45:09Z</time>
      </trkpt>
      <trkpt lat="42.94553000" lon="12.56101000">
        <ele>294.00000</ele>
        <time>2010-01-01T00:45:13Z</time>
      </trkpt>
      <trkpt lat="42.94541900" lon="12.56061000">
        <ele>300.00000</ele>
        <time>2010-01-01T00:45:18Z</time>
      </trkpt>
      <trkpt lat="42.94538100" lon="12.56052000">
        <ele>302.00000</ele>
        <time>2010-01-01T00:45:20Z</time>
      </trkpt>
      <trkpt lat="42.94529000" lon="12.56047000">
        <ele>303.00000</ele>
        <time>2010-01-01T00:45:21Z</time>
      </trkpt>
      <trkpt lat="42.94490100" lon="12.56047000">
        <ele>307.00000</ele>
        <time>2010-01-01T00:45:27Z</time>
      </trkpt>
      <trkpt lat="42.94440800" lon="12.56031000">
        <ele>312.00000</ele>
        <time>2010-01-01T00:45:36Z</time>
      </trkpt>
      <trkpt lat="42.94334000" lon="12.55962000">
        <ele>329.00000</ele>
        <time>2010-01-01T00:45:55Z</time>
      </trkpt>
      <trkpt lat="42.94294000" lon="12.55922000">
        <ele>324.00000</ele>
        <time>2010-01-01T00:46:02Z</time>
      </trkpt>
      <trkpt lat="42.94290200" lon="12.55912000">
        <ele>324.00000</ele>
        <time>2010-01-01T00:46:04Z</time>
      </trkpt>
      <trkpt lat="42.94284800" lon="12.55866000">
        <ele>327.00000</ele>
        <time>2010-01-01T00:46:09Z</time>
      </trkpt>
      <trkpt lat="42.94271100" lon="12.55802000">
        <ele>327.00000</ele>
        <time>2010-01-01T00:46:17Z</time>
      </trkpt>
      <trkpt lat="42.94260000" lon="12.55613000">
        <ele>313.00000</ele>
        <time>2010-01-01T00:46:39Z</time>
      </trkpt>
      <trkpt lat="42.94263100" lon="12.55573000">
        <ele>311.00000</ele>
        <time>2010-01-01T00:46:44Z</time>
      </trkpt>
      <trkpt lat="42.94282200" lon="12.55496000">
        <ele>312.00000</ele>
        <time>2010-01-01T00:46:54Z</time>
      </trkpt>
      <trkpt lat="42.94289000" lon="12.55351000">
        <ele>327.00000</ele>
        <time>2010-01-01T00:47:11Z</time>
      </trkpt>
      <trkpt lat="42.94300100" lon="12.55289000">
        <ele>334.00000</ele>
        <time>2010-01-01T00:47:18Z</time>
      </trkpt>
      <trkpt lat="42.94292100" lon="12.55289000">
        <ele>337.00000</ele>
        <time>2010-01-01T00:47:19Z</time>
      </trkpt>
      <trkpt lat="42.94268000" lon="12.55313000">
        <ele>340.00000</ele>
        <time>2010-01-01T00:47:24Z</time>
      </trkpt>
      <trkpt lat="42.94220000" lon="12.55332000">
        <ele>343.00000</ele>
        <time>2010-01-01T00:47:32Z</time>
      </trkpt>
      <trkpt lat="42.94189800" lon="12.55325000">
        <ele>348.00000</ele>
        <time>2010-01-01T00:47:37Z</time>
      </trkpt>
      <trkpt lat="42.94133000" lon="12.55278000">
        <ele>364.00000</ele>
        <time>2010-01-01T00:47:48Z</time>
      </trkpt>
      <trkpt lat="42.94110100" lon="12.55226000">
        <ele>374.00000</ele>
        <time>2010-01-01T00:47:55Z</time>
      </trkpt>
      <trkpt lat="42.94026200" lon="12.55100000">
        <ele>401.00000</ele>
        <time>2010-01-01T00:48:15Z</time>
      </trkpt>
      <trkpt lat="42.93993000" lon="12.55069000">
        <ele>406.00000</ele>
        <time>2010-01-01T00:48:21Z</time>
      </trkpt>
      <trkpt lat="42.93943000" lon="12.55046000">
        <ele>413.00000</ele>
        <time>2010-01-01T00:48:30Z</time>
      </trkpt>
      <trkpt lat="42.93928900" lon="12.55050000">
        <ele>412.00000</ele>
        <time>2010-01-01T00:48:32Z</time>
      </trkpt>
      <trkpt lat="42.93917100" lon="12.55068000">
        <ele>410.00000</ele>
        <time>2010-01-01T00:48:35Z</time>
      </trkpt>
      <trkpt lat="42.93915200" lon="12.55077000">
        <ele>409.00000</ele>
        <time>2010-01-01T00:48:36Z</time>
      </trkpt>
      <trkpt lat="42.93922000" lon="12.55146000">
        <ele>407.00000</ele>
        <time>2010-01-01T00:48:44Z</time>
      </trkpt>
      <trkpt lat="42.93912100" lon="12.55172000">
        <ele>408.00000</ele>
        <time>2010-01-01T00:48:47Z</time>
      </trkpt>
      <trkpt lat="42.93885000" lon="12.55216000">
        <ele>408.00000</ele>
        <time>2010-01-01T00:48:54Z</time>
      </trkpt>
      <trkpt lat="42.93858000" lon="12.55276000">
        <ele>407.00000</ele>
        <time>2010-01-01T00:49:02Z</time>
      </trkpt>
      <trkpt lat="42.93822100" lon="12.55285000">
        <ele>405.00000</ele>
        <time>2010-01-01T00:49:08Z</time>
      </trkpt>
      <trkpt lat="42.93827800" lon="12.55142000">
        <ele>419.00000</ele>
        <time>2010-01-01T00:49:25Z</time>
      </trkpt>
      <trkpt lat="42.93825100" lon="12.55092000">
        <ele>421.00000</ele>
        <time>2010-01-01T00:49:31Z</time>
      </trkpt>
      <trkpt lat="42.93819000" lon="12.55046000">
        <ele>424.00000</ele>
        <time>2010-01-01T00:49:36Z</time>
      </trkpt>
      <trkpt lat="42.93801900" lon="12.54968000">
        <ele>429.00000</ele>
        <time>2010-01-01T00:49:46Z</time>
      </trkpt>
      <trkpt lat="42.93817900" lon="12.54816000">
        <ele>448.00000</ele>
        <time>2010-01-01T00:50:04Z</time>
      </trkpt>
      <trkpt lat="42.93816000" lon="12.54797000">
        <ele>450.00000</ele>
        <time>2010-01-01T00:50:06Z</time>
      </trkpt>
      <trkpt lat="42.93790800" lon="12.54766000">
        <ele>456.00000</ele>
        <time>2010-01-01T00:50:12Z</time>
      </trkpt>
      <trkpt lat="42.93753800" lon="12.54736000">
        <ele>463.00000</ele>
        <time>2010-01-01T00:50:19Z</time>
      </trkpt>
      <trkpt lat="42.93743900" lon="12.54731000">
        <ele>464.00000</ele>
        <time>2010-01-01T00:50:20Z</time>
      </trkpt>
      <trkpt lat="42.93692000" lon="12.54732000">
        <ele>466.00000</ele>
        <time>2010-01-01T00:50:29Z</time>
      </trkpt>
      <trkpt lat="42.93666800" lon="12.54715000">
        <ele>471.00000</ele>
        <time>2010-01-01T00:50:33Z</time>
      </trkpt>
      <trkpt lat="42.93645900" lon="12.54692000">
        <ele>470.00000</ele>
        <time>2010-01-01T00:50:37Z</time>
      </trkpt>
      <trkpt lat="42.93640900" lon="12.54671000">
        <ele>472.00000</ele>
        <time>2010-01-01T00:50:40Z</time>
      </trkpt>
      <trkpt lat="42.93640100" lon="12.54643000">
        <ele>476.00000</ele>
        <time>2010-01-01T00:50:43Z</time>
      </trkpt>
      <trkpt lat="42.93650100" lon="12.54539000">
        <ele>486.00000</ele>
        <time>2010-01-01T00:50:55Z</time>
      </trkpt>
      <trkpt lat="42.93624100" lon="12.54470000">
        <ele>488.00000</ele>
        <time>2010-01-01T00:51:05Z</time>
      </trkpt>
      <trkpt lat="42.93611900" lon="12.54384000">
        <ele>497.00000</ele>
        <time>2010-01-01T00:51:15Z</time>
      </trkpt>
      <trkpt lat="42.93598900" lon="12.54369000">
        <ele>501.00000</ele>
        <time>2010-01-01T00:51:18Z</time>
      </trkpt>
      <trkpt lat="42.93560000" lon="12.54351000">
        <ele>509.00000</ele>
        <time>2010-01-01T00:51:24Z</time>
      </trkpt>
      <trkpt lat="42.93557000" lon="12.54343000">
        <ele>511.00000</ele>
        <time>2010-01-01T00:51:25Z</time>
      </trkpt>
      <trkpt lat="42.93565000" lon="12.54326000">
        <ele>514.00000</ele>
        <time>2010-01-01T00:51:28Z</time>
      </trkpt>
      <trkpt lat="42.93603100" lon="12.54324000">
        <ele>509.00000</ele>
        <time>2010-01-01T00:51:34Z</time>
      </trkpt>
      <trkpt lat="42.93611100" lon="12.54311000">
        <ele>510.00000</ele>
        <time>2010-01-01T00:51:36Z</time>
      </trkpt>
      <trkpt lat="42.93613800" lon="12.54225000">
        <ele>525.00000</ele>
        <time>2010-01-01T00:51:46Z</time>
      </trkpt>
      <trkpt lat="42.93627900" lon="12.54157000">
        <ele>531.00000</ele>
        <time>2010-01-01T00:51:54Z</time>
      </trkpt>
      <trkpt lat="42.93623000" lon="12.54113000">
        <ele>534.00000</ele>
        <time>2010-01-01T00:51:59Z</time>
      </trkpt>
      <trkpt lat="42.93631000" lon="12.54079000">
        <ele>533.00000</ele>
        <time>2010-01-01T00:52:03Z</time>
      </trkpt>
      <trkpt lat="42.93626000" lon="12.54068000">
        <ele>534.00000</ele>
        <time>2010-01-01T00:52:05Z</time>
      </trkpt>
      <trkpt lat="42.93584100" lon="12.54235000">
        <ele>531.00000</ele>
        <time>2010-01-01T00:52:26Z</time>
      </trkpt>
      <trkpt lat="42.93579100" lon="12.54243000">
        <ele>530.00000</ele>
        <time>2010-01-01T00:52:27Z</time>
      </trkpt>
      <trkpt lat="42.93565000" lon="12.54249000">
        <ele>530.00000</ele>
        <time>2010-01-01T00:52:29Z</time>
      </trkpt>
      <trkpt lat="42.93552000" lon="12.54243000">
        <ele>531.00000</ele>
        <time>2010-01-01T00:52:31Z</time>
      </trkpt>
      <trkpt lat="42.93524900" lon="12.54204000">
        <ele>540.00000</ele>
        <time>2010-01-01T00:52:38Z</time>
      </trkpt>
      <trkpt lat="42.93504000" lon="12.54184000">
        <ele>546.00000</ele>
        <time>2010-01-01T00:52:42Z</time>
      </trkpt>
      <trkpt lat="42.93394100" lon="12.54125000">
        <ele>555.00000</ele>
        <time>2010-01-01T00:53:01Z</time>
      </trkpt>
      <trkpt lat="42.93283800" lon="12.54010000">
        <ele>578.00000</ele>
        <time>2010-01-01T00:53:23Z</time>
      </trkpt>
      <trkpt lat="42.93230100" lon="12.53995000">
        <ele>578.00000</ele>
        <time>2010-01-01T00:53:32Z</time>
      </trkpt>
      <trkpt lat="42.93196900" lon="12.53970000">
        <ele>585.00000</ele>
        <time>2010-01-01T00:53:38Z</time>
      </trkpt>
      <trkpt lat="42.93182000" lon="12.53967000">
        <ele>586.00000</ele>
        <time>2010-01-01T00:53:40Z</time>
      </trkpt>
      <trkpt lat="42.93140000" lon="12.53973000">
        <ele>586.00000</ele>
        <time>2010-01-01T00:53:47Z</time>
      </trkpt>
      <trkpt lat="42.93114100" lon="12.53965000">
        <ele>589.00000</ele>
        <time>2010-01-01T00:53:51Z</time>
      </trkpt>
      <trkpt lat="42.93046200" lon="12.53980000">
        <ele>590.00000</ele>
        <time>2010-01-01T00:54:02Z</time>
      </trkpt>
      <trkpt lat="42.92955000" lon="12.53983000">
        <ele>595.00000</ele>
        <time>2010-01-01T00:54:17Z</time>
      </trkpt>
      <trkpt lat="42.92940100" lon="12.53982000">
        <ele>596.00000</ele>
        <time>2010-01-01T00:54:19Z</time>
      </trkpt>
      <trkpt lat="42.92895900" lon="12.53956000">
        <ele>606.00000</ele>
        <time>2010-01-01T00:54:27Z</time>
      </trkpt>
      <trkpt lat="42.92876100" lon="12.53962000">
        <ele>608.00000</ele>
        <time>2010-01-01T00:54:30Z</time>
      </trkpt>
      <trkpt lat="42.92861200" lon="12.53981000">
        <ele>607.00000</ele>
        <time>2010-01-01T00:54:33Z</time>
      </trkpt>
      <trkpt lat="42.92841000" lon="12.54025000">
        <ele>606.00000</ele>
        <time>2010-01-01T00:54:40Z</time>
      </trkpt>
      <trkpt lat="42.92824200" lon="12.54101000">
        <ele>602.00000</ele>
        <time>2010-01-01T00:54:49Z</time>
      </trkpt>
      <trkpt lat="42.92804000" lon="12.54134000">
        <ele>601.00000</ele>
        <time>2010-01-01T00:54:54Z</time>
      </trkpt>
      <trkpt lat="42.92783000" lon="12.54153000">
        <ele>602.00000</ele>
        <time>2010-01-01T00:54:58Z</time>
      </trkpt>
      <trkpt lat="42.92723100" lon="12.54182000">
        <ele>609.00000</ele>
        <time>2010-01-01T00:55:08Z</time>
      </trkpt>
      <trkpt lat="42.92675000" lon="12.54239000">
        <ele>610.00000</ele>
        <time>2010-01-01T00:55:18Z</time>
      </trkpt>
      <trkpt lat="42.92594900" lon="12.54294000">
        <ele>619.00000</ele>
        <time>2010-01-01T00:55:33Z</time>
      </trkpt>
      <trkpt lat="42.92559100" lon="12.54413000">
        <ele>619.00000</ele>
        <time>2010-01-01T00:55:48Z</time>
      </trkpt>
      <trkpt lat="42.92506000" lon="12.54446000">
        <ele>619.00000</ele>
        <time>2010-01-01T00:55:57Z</time>
      </trkpt>
      <trkpt lat="42.92480900" lon="12.54492000">
        <ele>615.00000</ele>
        <time>2010-01-01T00:56:04Z</time>
      </trkpt>
      <trkpt lat="42.92474000" lon="12.54495000">
        <ele>616.00000</ele>
        <time>2010-01-01T00:56:05Z</time>
      </trkpt>
      <trkpt lat="42.92419100" lon="12.54485000">
        <ele>627.00000</ele>
        <time>2010-01-01T00:56:14Z</time>
      </trkpt>
      <trkpt lat="42.92412200" lon="12.54493000">
        <ele>627.00000</ele>
        <time>2010-01-01T00:56:15Z</time>
      </trkpt>
      <trkpt lat="42.92398800" lon="12.54544000">
        <ele>624.00000</ele>
        <time>2010-01-01T00:56:22Z</time>
      </trkpt>
      <trkpt lat="42.92372100" lon="12.54573000">
        <ele>627.00000</ele>
        <time>2010-01-01T00:56:27Z</time>
      </trkpt>
      <trkpt lat="42.92369100" lon="12.54597000">
        <ele>629.00000</ele>
        <time>2010-01-01T00:56:30Z</time>
      </trkpt>
      <trkpt lat="42.92372100" lon="12.54613000">
        <ele>630.00000</ele>
        <time>2010-01-01T00:56:32Z</time>
      </trkpt>
      <trkpt lat="42.92385100" lon="12.54638000">
        <ele>629.00000</ele>
        <time>2010-01-01T00:56:35Z</time>
      </trkpt>
      <trkpt lat="42.92425200" lon="12.54668000">
        <ele>623.00000</ele>
        <time>2010-01-01T00:56:43Z</time>
      </trkpt>
      <trkpt lat="42.92445000" lon="12.54689000">
        <ele>622.00000</ele>
        <time>2010-01-01T00:56:47Z</time>
      </trkpt>
      <trkpt lat="42.92509800" lon="12.54784000">
        <ele>620.00000</ele>
        <time>2010-01-01T00:57:02Z</time>
      </trkpt>
      <trkpt lat="42.92515200" lon="12.54795000">
        <ele>619.00000</ele>
        <time>2010-01-01T00:57:04Z</time>
      </trkpt>
      <trkpt lat="42.92515900" lon="12.54811000">
        <ele>620.00000</ele>
        <time>2010-01-01T00:57:05Z</time>
      </trkpt>
      <trkpt lat="42.92506000" lon="12.54847000">
        <ele>624.00000</ele>
        <time>2010-01-01T00:57:10Z</time>
      </trkpt>
      <trkpt lat="42.92430900" lon="12.54902000">
        <ele>626.00000</ele>
        <time>2010-01-01T00:57:24Z</time>
      </trkpt>
      <trkpt lat="42.92351900" lon="12.54946000">
        <ele>621.00000</ele>
        <time>2010-01-01T00:57:37Z</time>
      </trkpt>
      <trkpt lat="42.92309200" lon="12.54959000">
        <ele>618.00000</ele>
        <time>2010-01-01T00:57:44Z</time>
      </trkpt>
      <trkpt lat="42.92205800" lon="12.54943000">
        <ele>613.00000</ele>
        <time>2010-01-01T00:58:01Z</time>
      </trkpt>
      <trkpt lat="42.92187100" lon="12.54954000">
        <ele>610.00000</ele>
        <time>2010-01-01T00:58:04Z</time>
      </trkpt>
      <trkpt lat="42.92134900" lon="12.55001000">
        <ele>598.00000</ele>
        <time>2010-01-01T00:58:14Z</time>
      </trkpt>
      <trkpt lat="42.92116900" lon="12.55030000">
        <ele>594.00000</ele>
        <time>2010-01-01T00:58:19Z</time>
      </trkpt>
      <trkpt lat="42.92112000" lon="12.55062000">
        <ele>593.00000</ele>
        <time>2010-01-01T00:58:23Z</time>
      </trkpt>
      <trkpt lat="42.92118100" lon="12.55093000">
        <ele>591.00000</ele>
        <time>2010-01-01T00:58:26Z</time>
      </trkpt>
      <trkpt lat="42.92139800" lon="12.55147000">
        <ele>587.00000</ele>
        <time>2010-01-01T00:58:34Z</time>
      </trkpt>
      <trkpt lat="42.92145900" lon="12.55194000">
        <ele>584.00000</ele>
        <time>2010-01-01T00:58:39Z</time>
      </trkpt>
      <trkpt lat="42.92137900" lon="12.55217000">
        <ele>583.00000</ele>
        <time>2010-01-01T00:58:42Z</time>
      </trkpt>
      <trkpt lat="42.92112000" lon="12.55253000">
        <ele>585.00000</ele>
        <time>2010-01-01T00:58:48Z</time>
      </trkpt>
      <trkpt lat="42.92105100" lon="12.55277000">
        <ele>583.00000</ele>
        <time>2010-01-01T00:58:51Z</time>
      </trkpt>
      <trkpt lat="42.92102800" lon="12.55319000">
        <ele>578.00000</ele>
        <time>2010-01-01T00:58:56Z</time>
      </trkpt>
      <trkpt lat="42.92097900" lon="12.55336000">
        <ele>577.00000</ele>
        <time>2010-01-01T00:58:58Z</time>
      </trkpt>
      <trkpt lat="42.92076100" lon="12.55354000">
        <ele>575.00000</ele>
        <time>2010-01-01T00:59:02Z</time>
      </trkpt>
      <trkpt lat="42.92068100" lon="12.55354000">
        <ele>575.00000</ele>
        <time>2010-01-01T00:59:03Z</time>
      </trkpt>
      <trkpt lat="42.91947200" lon="12.55325000">
        <ele>574.00000</ele>
        <time>2010-01-01T00:59:23Z</time>
      </trkpt>
      <trkpt lat="42.91927000" lon="12.55330000">
        <ele>573.00000</ele>
        <time>2010-01-01T00:59:26Z</time>
      </trkpt>
      <trkpt lat="42.91922000" lon="12.55337000">
        <ele>572.00000</ele>
        <time>2010-01-01T00:59:28Z</time>
      </trkpt>
      <trkpt lat="42.91915100" lon="12.55414000">
        <ele>564.00000</ele>
        <time>2010-01-01T00:59:37Z</time>
      </trkpt>
      <trkpt lat="42.91902200" lon="12.55496000">
        <ele>555.00000</ele>
        <time>2010-01-01T00:59:47Z</time>
      </trkpt>
      <trkpt lat="42.91899100" lon="12.55555000">
        <ele>547.00000</ele>
        <time>2010-01-01T00:59:53Z</time>
      </trkpt>
      <trkpt lat="42.91893000" lon="12.55572000">
        <ele>545.00000</ele>
        <time>2010-01-01T00:59:56Z</time>
      </trkpt>
      <trkpt lat="42.91877000" lon="12.55589000">
        <ele>545.00000</ele>
        <time>2010-01-01T00:59:59Z</time>
      </trkpt>
      <trkpt lat="42.91820900" lon="12.55623000">
        <ele>544.00000</ele>
        <time>2010-01-01T01:00:09Z</time>
      </trkpt>
      <trkpt lat="42.91684000" lon="12.55727000">
        <ele>525.00000</ele>
        <time>2010-01-01T01:00:34Z</time>
      </trkpt>
      <trkpt lat="42.91630200" lon="12.55749000">
        <ele>519.00000</ele>
        <time>2010-01-01T01:00:43Z</time>
      </trkpt>
      <trkpt lat="42.91585900" lon="12.55764000">
        <ele>513.00000</ele>
        <time>2010-01-01T01:00:50Z</time>
      </trkpt>
      <trkpt lat="42.91548200" lon="12.55757000">
        <ele>506.00000</ele>
        <time>2010-01-01T01:00:56Z</time>
      </trkpt>
      <trkpt lat="42.91532100" lon="12.55762000">
        <ele>503.00000</ele>
        <time>2010-01-01T01:00:59Z</time>
      </trkpt>
      <trkpt lat="42.91524900" lon="12.55779000">
        <ele>502.00000</ele>
        <time>2010-01-01T01:01:01Z</time>
      </trkpt>
      <trkpt lat="42.91521800" lon="12.55832000">
        <ele>503.00000</ele>
        <time>2010-01-01T01:01:07Z</time>
      </trkpt>
      <trkpt lat="42.91516900" lon="12.55854000">
        <ele>500.00000</ele>
        <time>2010-01-01T01:01:10Z</time>
      </trkpt>
      <trkpt lat="42.91463100" lon="12.55919000">
        <ele>491.00000</ele>
        <time>2010-01-01T01:01:22Z</time>
      </trkpt>
      <trkpt lat="42.91487900" lon="12.55916000">
        <ele>493.00000</ele>
        <time>2010-01-01T01:01:26Z</time>
      </trkpt>
      <trkpt lat="42.91497000" lon="12.55921000">
        <ele>493.00000</ele>
        <time>2010-01-01T01:01:27Z</time>
      </trkpt>
      <trkpt lat="42.91569900" lon="12.55978000">
        <ele>492.00000</ele>
        <time>2010-01-01T01:01:41Z</time>
      </trkpt>
      <trkpt lat="42.91587800" lon="12.56010000">
        <ele>490.00000</ele>
        <time>2010-01-01T01:01:45Z</time>
      </trkpt>
      <trkpt lat="42.91613000" lon="12.56042000">
        <ele>488.00000</ele>
        <time>2010-01-01T01:01:51Z</time>
      </trkpt>
      <trkpt lat="42.91632800" lon="12.56056000">
        <ele>487.00000</ele>
        <time>2010-01-01T01:01:54Z</time>
      </trkpt>
      <trkpt lat="42.91664100" lon="12.56066000">
        <ele>488.00000</ele>
        <time>2010-01-01T01:02:00Z</time>
      </trkpt>
      <trkpt lat="42.91711000" lon="12.56070000">
        <ele>484.00000</ele>
        <time>2010-01-01T01:02:07Z</time>
      </trkpt>
      <trkpt lat="42.91774000" lon="12.56061000">
        <ele>482.00000</ele>
        <time>2010-01-01T01:02:17Z</time>
      </trkpt>
      <trkpt lat="42.91791200" lon="12.56054000">
        <ele>482.00000</ele>
        <time>2010-01-01T01:02:20Z</time>
      </trkpt>
      <trkpt lat="42.91815200" lon="12.56022000">
        <ele>485.00000</ele>
        <time>2010-01-01T01:02:25Z</time>
      </trkpt>
      <trkpt lat="42.91825100" lon="12.56016000">
        <ele>484.00000</ele>
        <time>2010-01-01T01:02:27Z</time>
      </trkpt>
      <trkpt lat="42.91835000" lon="12.56018000">
        <ele>484.00000</ele>
        <time>2010-01-01T01:02:29Z</time>
      </trkpt>
      <trkpt lat="42.91862100" lon="12.56057000">
        <ele>485.00000</ele>
        <time>2010-01-01T01:02:35Z</time>
      </trkpt>
      <trkpt lat="42.91891100" lon="12.56125000">
        <ele>486.00000</ele>
        <time>2010-01-01T01:02:44Z</time>
      </trkpt>
      <trkpt lat="42.91915100" lon="12.56170000">
        <ele>488.00000</ele>
        <time>2010-01-01T01:02:51Z</time>
      </trkpt>
      <trkpt lat="42.91862100" lon="12.56235000">
        <ele>479.00000</ele>
        <time>2010-01-01T01:03:02Z</time>
      </trkpt>
      <trkpt lat="42.91801100" lon="12.56259000">
        <ele>472.00000</ele>
        <time>2010-01-01T01:03:12Z</time>
      </trkpt>
      <trkpt lat="42.91722100" lon="12.56301000">
        <ele>464.00000</ele>
        <time>2010-01-01T01:03:26Z</time>
      </trkpt>
      <trkpt lat="42.91619100" lon="12.56371000">
        <ele>453.00000</ele>
        <time>2010-01-01T01:03:44Z</time>
      </trkpt>
      <trkpt lat="42.91606900" lon="12.56385000">
        <ele>453.00000</ele>
        <time>2010-01-01T01:03:47Z</time>
      </trkpt>
      <trkpt lat="42.91576000" lon="12.56460000">
        <ele>448.00000</ele>
        <time>2010-01-01T01:03:57Z</time>
      </trkpt>
      <trkpt lat="42.91516900" lon="12.56494000">
        <ele>446.00000</ele>
        <time>2010-01-01T01:04:07Z</time>
      </trkpt>
      <trkpt lat="42.91482200" lon="12.56520000">
        <ele>441.00000</ele>
        <time>2010-01-01T01:04:14Z</time>
      </trkpt>
      <trkpt lat="42.91389100" lon="12.56569000">
        <ele>430.00000</ele>
        <time>2010-01-01T01:04:30Z</time>
      </trkpt>
      <trkpt lat="42.91339100" lon="12.56602000">
        <ele>424.00000</ele>
        <time>2010-01-01T01:04:39Z</time>
      </trkpt>
      <trkpt lat="42.91331900" lon="12.56516000">
        <ele>425.00000</ele>
        <time>2010-01-01T01:04:49Z</time>
      </trkpt>
      <trkpt lat="42.91336800" lon="12.56463000">
        <ele>425.00000</ele>
        <time>2010-01-01T01:04:55Z</time>
      </trkpt>
      <trkpt lat="42.91350900" lon="12.56443000">
        <ele>427.00000</ele>
        <time>2010-01-01T01:04:58Z</time>
      </trkpt>
      <trkpt lat="42.91410800" lon="12.56401000">
        <ele>437.00000</ele>
        <time>2010-01-01T01:05:09Z</time>
      </trkpt>
      <trkpt lat="42.91415000" lon="12.56383000">
        <ele>439.00000</ele>
        <time>2010-01-01T01:05:11Z</time>
      </trkpt>
      <trkpt lat="42.91407000" lon="12.56369000">
        <ele>440.00000</ele>
        <time>2010-01-01T01:05:13Z</time>
      </trkpt>
      <trkpt lat="42.91252100" lon="12.56337000">
        <ele>430.00000</ele>
        <time>2010-01-01T01:05:38Z</time>
      </trkpt>
      <trkpt lat="42.91231900" lon="12.56341000">
        <ele>429.00000</ele>
        <time>2010-01-01T01:05:42Z</time>
      </trkpt>
      <trkpt lat="42.91181900" lon="12.56371000">
        <ele>425.00000</ele>
        <time>2010-01-01T01:05:50Z</time>
      </trkpt>
      <trkpt lat="42.91159100" lon="12.56370000">
        <ele>425.00000</ele>
        <time>2010-01-01T01:05:54Z</time>
      </trkpt>
      <trkpt lat="42.91128900" lon="12.56349000">
        <ele>425.00000</ele>
        <time>2010-01-01T01:05:59Z</time>
      </trkpt>
      <trkpt lat="42.91058000" lon="12.56262000">
        <ele>431.00000</ele>
        <time>2010-01-01T01:06:15Z</time>
      </trkpt>
      <trkpt lat="42.91046100" lon="12.56240000">
        <ele>432.00000</ele>
        <time>2010-01-01T01:06:18Z</time>
      </trkpt>
      <trkpt lat="42.91045000" lon="12.56141000">
        <ele>437.00000</ele>
        <time>2010-01-01T01:06:30Z</time>
      </trkpt>
      <trkpt lat="42.91011800" lon="12.56033000">
        <ele>429.00000</ele>
        <time>2010-01-01T01:06:43Z</time>
      </trkpt>
      <trkpt lat="42.91016000" lon="12.56005000">
        <ele>429.00000</ele>
        <time>2010-01-01T01:06:47Z</time>
      </trkpt>
      <trkpt lat="42.91032000" lon="12.55987000">
        <ele>430.00000</ele>
        <time>2010-01-01T01:06:50Z</time>
      </trkpt>
      <trkpt lat="42.91112100" lon="12.55940000">
        <ele>435.00000</ele>
        <time>2010-01-01T01:07:04Z</time>
      </trkpt>
      <trkpt lat="42.91190000" lon="12.55928000">
        <ele>443.00000</ele>
        <time>2010-01-01T01:07:16Z</time>
      </trkpt>
      <trkpt lat="42.91210900" lon="12.55919000">
        <ele>443.00000</ele>
        <time>2010-01-01T01:07:20Z</time>
      </trkpt>
      <trkpt lat="42.91257900" lon="12.55862000">
        <ele>444.00000</ele>
        <time>2010-01-01T01:07:30Z</time>
      </trkpt>
      <trkpt lat="42.91272000" lon="12.55823000">
        <ele>445.00000</ele>
        <time>2010-01-01T01:07:35Z</time>
      </trkpt>
      <trkpt lat="42.91273100" lon="12.55778000">
        <ele>447.00000</ele>
        <time>2010-01-01T01:07:40Z</time>
      </trkpt>
      <trkpt lat="42.91257100" lon="12.55744000">
        <ele>447.00000</ele>
        <time>2010-01-01T01:07:45Z</time>
      </trkpt>
      <trkpt lat="42.91169000" lon="12.55686000">
        <ele>442.00000</ele>
        <time>2010-01-01T01:08:01Z</time>
      </trkpt>
      <trkpt lat="42.91146900" lon="12.55663000">
        <ele>443.00000</ele>
        <time>2010-01-01T01:08:05Z</time>
      </trkpt>
      <trkpt lat="42.91151800" lon="12.55655000">
        <ele>443.00000</ele>
        <time>2010-01-01T01:08:07Z</time>
      </trkpt>
      <trkpt lat="42.91149900" lon="12.55649000">
        <ele>442.00000</ele>
        <time>2010-01-01T01:08:07Z</time>
      </trkpt>
      <trkpt lat="42.91157900" lon="12.55639000">
        <ele>441.00000</ele>
        <time>2010-01-01T01:08:09Z</time>
      </trkpt>
      <trkpt lat="42.91201000" lon="12.55608000">
        <ele>440.00000</ele>
        <time>2010-01-01T01:08:17Z</time>
      </trkpt>
    </trkseg>
    <trkseg>
      <trkpt lat="42.91201000" lon="12.55608000">
        <ele>440.00000</ele>
        <time>2010-01-01T01:08:17Z</time>
      </trkpt>
      <trkpt lat="42.91293000" lon="12.55560000">
        <ele>446.00000</ele>
        <time>2010-01-01T01:08:33Z</time>
      </trkpt>
      <trkpt lat="42.91301000" lon="12.55539000">
        <ele>447.00000</ele>
        <time>2010-01-01T01:08:35Z</time>
      </trkpt>
      <trkpt lat="42.91297900" lon="12.55515000">
        <ele>446.00000</ele>
        <time>2010-01-01T01:08:38Z</time>
      </trkpt>
      <trkpt lat="42.91280000" lon="12.55499000">
        <ele>444.00000</ele>
        <time>2010-01-01T01:08:42Z</time>
      </trkpt>
      <trkpt lat="42.91170100" lon="12.55480000">
        <ele>432.00000</ele>
        <time>2010-01-01T01:08:59Z</time>
      </trkpt>
      <trkpt lat="42.91153000" lon="12.55463000">
        <ele>431.00000</ele>
        <time>2010-01-01T01:09:03Z</time>
      </trkpt>
      <trkpt lat="42.91122100" lon="12.55387000">
        <ele>427.00000</ele>
        <time>2010-01-01T01:09:13Z</time>
      </trkpt>
      <trkpt lat="42.91087000" lon="12.55273000">
        <ele>417.00000</ele>
        <time>2010-01-01T01:09:27Z</time>
      </trkpt>
      <trkpt lat="42.91083100" lon="12.55255000">
        <ele>416.00000</ele>
        <time>2010-01-01T01:09:30Z</time>
      </trkpt>
      <trkpt lat="42.91078200" lon="12.55160000">
        <ele>416.00000</ele>
        <time>2010-01-01T01:09:41Z</time>
      </trkpt>
      <trkpt lat="42.91032000" lon="12.55101000">
        <ele>407.00000</ele>
        <time>2010-01-01T01:09:51Z</time>
      </trkpt>
      <trkpt lat="42.90927900" lon="12.54932000">
        <ele>394.00000</ele>
        <time>2010-01-01T01:10:17Z</time>
      </trkpt>
      <trkpt lat="42.90906900" lon="12.54895000">
        <ele>391.00000</ele>
        <time>2010-01-01T01:10:22Z</time>
      </trkpt>
      <trkpt lat="42.90897000" lon="12.54864000">
        <ele>388.00000</ele>
        <time>2010-01-01T01:10:26Z</time>
      </trkpt>
      <trkpt lat="42.90898900" lon="12.54836000">
        <ele>388.00000</ele>
        <time>2010-01-01T01:10:30Z</time>
      </trkpt>
      <trkpt lat="42.90905000" lon="12.54820000">
        <ele>387.00000</ele>
        <time>2010-01-01T01:10:32Z</time>
      </trkpt>
      <trkpt lat="42.90922200" lon="12.54799000">
        <ele>385.00000</ele>
        <time>2010-01-01T01:10:35Z</time>
      </trkpt>
      <trkpt lat="42.90945800" lon="12.54794000">
        <ele>386.00000</ele>
        <time>2010-01-01T01:10:39Z</time>
      </trkpt>
      <trkpt lat="42.91014900" lon="12.54801000">
        <ele>391.00000</ele>
        <time>2010-01-01T01:10:50Z</time>
      </trkpt>
      <trkpt lat="42.91043900" lon="12.54788000">
        <ele>392.00000</ele>
        <time>2010-01-01T01:10:55Z</time>
      </trkpt>
      <trkpt lat="42.91051100" lon="12.54753000">
        <ele>391.00000</ele>
        <time>2010-01-01T01:10:59Z</time>
      </trkpt>
      <trkpt lat="42.91045000" lon="12.54725000">
        <ele>390.00000</ele>
        <time>2010-01-01T01:11:03Z</time>
      </trkpt>
      <trkpt lat="42.90930200" lon="12.54558000">
        <ele>371.00000</ele>
        <time>2010-01-01T01:11:30Z</time>
      </trkpt>
      <trkpt lat="42.90901200" lon="12.54531000">
        <ele>369.00000</ele>
        <time>2010-01-01T01:11:35Z</time>
      </trkpt>
      <trkpt lat="42.90868000" lon="12.54516000">
        <ele>367.00000</ele>
        <time>2010-01-01T01:11:41Z</time>
      </trkpt>
      <trkpt lat="42.90840900" lon="12.54512000">
        <ele>366.00000</ele>
        <time>2010-01-01T01:11:45Z</time>
      </trkpt>
      <trkpt lat="42.90634200" lon="12.54509000">
        <ele>351.00000</ele>
        <time>2010-01-01T01:12:18Z</time>
      </trkpt>
      <trkpt lat="42.90621900" lon="12.54501000">
        <ele>350.00000</ele>
        <time>2010-01-01T01:12:21Z</time>
      </trkpt>
      <trkpt lat="42.90617000" lon="12.54491000">
        <ele>349.00000</ele>
        <time>2010-01-01T01:12:22Z</time>
      </trkpt>
      <trkpt lat="42.90613900" lon="12.54473000">
        <ele>348.00000</ele>
        <time>2010-01-01T01:12:24Z</time>
      </trkpt>
      <trkpt lat="42.90618900" lon="12.54450000">
        <ele>348.00000</ele>
        <time>2010-01-01T01:12:27Z</time>
      </trkpt>
      <trkpt lat="42.90657000" lon="12.54399000">
        <ele>350.00000</ele>
        <time>2010-01-01T01:12:36Z</time>
      </trkpt>
      <trkpt lat="42.90671200" lon="12.54315000">
        <ele>343.00000</ele>
        <time>2010-01-01T01:12:46Z</time>
      </trkpt>
      <trkpt lat="42.90684900" lon="12.54284000">
        <ele>340.00000</ele>
        <time>2010-01-01T01:12:50Z</time>
      </trkpt>
      <trkpt lat="42.90708900" lon="12.54267000">
        <ele>341.00000</ele>
        <time>2010-01-01T01:12:54Z</time>
      </trkpt>
      <trkpt lat="42.90795900" lon="12.54237000">
        <ele>344.00000</ele>
        <time>2010-01-01T01:13:09Z</time>
      </trkpt>
      <trkpt lat="42.90810000" lon="12.54223000">
        <ele>344.00000</ele>
        <time>2010-01-01T01:13:11Z</time>
      </trkpt>
      <trkpt lat="42.90818000" lon="12.54201000">
        <ele>342.00000</ele>
        <time>2010-01-01T01:13:14Z</time>
      </trkpt>
      <trkpt lat="42.90819200" lon="12.54177000">
        <ele>339.00000</ele>
        <time>2010-01-01T01:13:17Z</time>
      </trkpt>
      <trkpt lat="42.90813100" lon="12.54154000">
        <ele>337.00000</ele>
        <time>2010-01-01T01:13:20Z</time>
      </trkpt>
      <trkpt lat="42.90800900" lon="12.54132000">
        <ele>336.00000</ele>
        <time>2010-01-01T01:13:23Z</time>
      </trkpt>
      <trkpt lat="42.90710800" lon="12.54057000">
        <ele>328.00000</ele>
        <time>2010-01-01T01:13:40Z</time>
      </trkpt>
      <trkpt lat="42.90475100" lon="12.53938000">
        <ele>314.00000</ele>
        <time>2010-01-01T01:14:20Z</time>
      </trkpt>
      <trkpt lat="42.90407200" lon="12.53881000">
        <ele>310.00000</ele>
        <time>2010-01-01T01:14:33Z</time>
      </trkpt>
      <trkpt lat="42.90382000" lon="12.53869000">
        <ele>308.00000</ele>
        <time>2010-01-01T01:14:37Z</time>
      </trkpt>
      <trkpt lat="42.90301900" lon="12.53846000">
        <ele>303.00000</ele>
        <time>2010-01-01T01:14:51Z</time>
      </trkpt>
      <trkpt lat="42.90251900" lon="12.53822000">
        <ele>298.00000</ele>
        <time>2010-01-01T01:14:59Z</time>
      </trkpt>
      <trkpt lat="42.90232800" lon="12.53795000">
        <ele>296.00000</ele>
        <time>2010-01-01T01:15:03Z</time>
      </trkpt>
      <trkpt lat="42.90222900" lon="12.53762000">
        <ele>295.00000</ele>
        <time>2010-01-01T01:15:08Z</time>
      </trkpt>
      <trkpt lat="42.90222200" lon="12.53730000">
        <ele>293.00000</ele>
        <time>2010-01-01T01:15:11Z</time>
      </trkpt>
      <trkpt lat="42.90226000" lon="12.53707000">
        <ele>292.00000</ele>
        <time>2010-01-01T01:15:14Z</time>
      </trkpt>
      <trkpt lat="42.90240900" lon="12.53685000">
        <ele>293.00000</ele>
        <time>2010-01-01T01:15:18Z</time>
      </trkpt>
      <trkpt lat="42.90319100" lon="12.53630000">
        <ele>287.00000</ele>
        <time>2010-01-01T01:15:32Z</time>
      </trkpt>
      <trkpt lat="42.90327100" lon="12.53609000">
        <ele>284.00000</ele>
        <time>2010-01-01T01:15:34Z</time>
      </trkpt>
      <trkpt lat="42.90319100" lon="12.53590000">
        <ele>280.00000</ele>
        <time>2010-01-01T01:15:37Z</time>
      </trkpt>
      <trkpt lat="42.90300000" lon="12.53590000">
        <ele>280.00000</ele>
        <time>2010-01-01T01:15:40Z</time>
      </trkpt>
      <trkpt lat="42.90258000" lon="12.53612000">
        <ele>282.00000</ele>
        <time>2010-01-01T01:15:47Z</time>
      </trkpt>
      <trkpt lat="42.90232100" lon="12.53619000">
        <ele>281.00000</ele>
        <time>2010-01-01T01:15:52Z</time>
      </trkpt>
      <trkpt lat="42.90132900" lon="12.53620000">
        <ele>270.00000</ele>
        <time>2010-01-01T01:16:07Z</time>
      </trkpt>
      <trkpt lat="42.90118000" lon="12.53632000">
        <ele>270.00000</ele>
        <time>2010-01-01T01:16:10Z</time>
      </trkpt>
      <trkpt lat="42.90090900" lon="12.53682000">
        <ele>270.00000</ele>
        <time>2010-01-01T01:16:17Z</time>
      </trkpt>
      <trkpt lat="42.90079100" lon="12.53688000">
        <ele>268.00000</ele>
        <time>2010-01-01T01:16:20Z</time>
      </trkpt>
      <trkpt lat="42.90071900" lon="12.53686000">
        <ele>268.00000</ele>
        <time>2010-01-01T01:16:21Z</time>
      </trkpt>
      <trkpt lat="42.90063100" lon="12.53673000">
        <ele>266.00000</ele>
        <time>2010-01-01T01:16:23Z</time>
      </trkpt>
      <trkpt lat="42.90066900" lon="12.53647000">
        <ele>265.00000</ele>
        <time>2010-01-01T01:16:26Z</time>
      </trkpt>
      <trkpt lat="42.90137900" lon="12.53548000">
        <ele>261.00000</ele>
        <time>2010-01-01T01:16:42Z</time>
      </trkpt>
      <trkpt lat="42.90182100" lon="12.53491000">
        <ele>258.00000</ele>
        <time>2010-01-01T01:16:52Z</time>
      </trkpt>
      <trkpt lat="42.90232100" lon="12.53463000">
        <ele>258.00000</ele>
        <time>2010-01-01T01:17:01Z</time>
      </trkpt>
      <trkpt lat="42.90261100" lon="12.53427000">
        <ele>256.00000</ele>
        <time>2010-01-01T01:17:07Z</time>
      </trkpt>
      <trkpt lat="42.90272100" lon="12.53393000">
        <ele>254.00000</ele>
        <time>2010-01-01T01:17:11Z</time>
      </trkpt>
      <trkpt lat="42.90269900" lon="12.53366000">
        <ele>252.00000</ele>
        <time>2010-01-01T01:17:14Z</time>
      </trkpt>
      <trkpt lat="42.90263000" lon="12.53342000">
        <ele>251.00000</ele>
        <time>2010-01-01T01:17:17Z</time>
      </trkpt>
      <trkpt lat="42.90427000" lon="12.53231000">
        <ele>255.00000</ele>
        <time>2010-01-01T01:17:47Z</time>
      </trkpt>
      <trkpt lat="42.90443000" lon="12.53224000">
        <ele>254.00000</ele>
        <time>2010-01-01T01:17:49Z</time>
      </trkpt>
      <trkpt lat="42.90467100" lon="12.53223000">
        <ele>253.00000</ele>
        <time>2010-01-01T01:17:53Z</time>
      </trkpt>
      <trkpt lat="42.90605200" lon="12.53250000">
        <ele>252.00000</ele>
        <time>2010-01-01T01:18:16Z</time>
      </trkpt>
      <trkpt lat="42.90659000" lon="12.53253000">
        <ele>253.00000</ele>
        <time>2010-01-01T01:18:24Z</time>
      </trkpt>
      <trkpt lat="42.90745900" lon="12.53232000">
        <ele>254.00000</ele>
        <time>2010-01-01T01:18:38Z</time>
      </trkpt>
      <trkpt lat="42.90795900" lon="12.53204000">
        <ele>253.00000</ele>
        <time>2010-01-01T01:18:47Z</time>
      </trkpt>
      <trkpt lat="42.90937000" lon="12.53096000">
        <ele>247.00000</ele>
        <time>2010-01-01T01:19:13Z</time>
      </trkpt>
      <trkpt lat="42.90980900" lon="12.53056000">
        <ele>244.00000</ele>
        <time>2010-01-01T01:19:21Z</time>
      </trkpt>
      <trkpt lat="42.91125900" lon="12.52807000">
        <ele>247.00000</ele>
        <time>2010-01-01T01:19:59Z</time>
      </trkpt>
      <trkpt lat="42.91209000" lon="12.52655000">
        <ele>250.00000</ele>
        <time>2010-01-01T01:20:21Z</time>
      </trkpt>
      <trkpt lat="42.91220100" lon="12.52622000">
        <ele>249.00000</ele>
        <time>2010-01-01T01:20:25Z</time>
      </trkpt>
      <trkpt lat="42.91241800" lon="12.52508000">
        <ele>246.00000</ele>
        <time>2010-01-01T01:20:39Z</time>
      </trkpt>
      <trkpt lat="42.91281900" lon="12.52349000">
        <ele>245.00000</ele>
        <time>2010-01-01T01:20:59Z</time>
      </trkpt>
      <trkpt lat="42.91310900" lon="12.52271000">
        <ele>243.00000</ele>
        <time>2010-01-01T01:21:09Z</time>
      </trkpt>
      <trkpt lat="42.91352800" lon="12.52195000">
        <ele>242.00000</ele>
        <time>2010-01-01T01:21:20Z</time>
      </trkpt>
      <trkpt lat="42.91429100" lon="12.52123000">
        <ele>242.00000</ele>
        <time>2010-01-01T01:21:35Z</time>
      </trkpt>
      <trkpt lat="42.91461200" lon="12.52073000">
        <ele>242.00000</ele>
        <time>2010-01-01T01:21:43Z</time>
      </trkpt>
      <trkpt lat="42.91576000" lon="12.51783000">
        <ele>241.00000</ele>
        <time>2010-01-01T01:22:21Z</time>
      </trkpt>
      <trkpt lat="42.91616100" lon="12.51652000">
        <ele>241.00000</ele>
        <time>2010-01-01T01:22:38Z</time>
      </trkpt>
      <trkpt lat="42.91630900" lon="12.51614000">
        <ele>241.00000</ele>
        <time>2010-01-01T01:22:43Z</time>
      </trkpt>
      <trkpt lat="42.91677900" lon="12.51523000">
        <ele>241.00000</ele>
        <time>2010-01-01T01:22:56Z</time>
      </trkpt>
      <trkpt lat="42.91820100" lon="12.51275000">
        <ele>234.00000</ele>
        <time>2010-01-01T01:23:33Z</time>
      </trkpt>
      <trkpt lat="42.91838100" lon="12.51227000">
        <ele>233.00000</ele>
        <time>2010-01-01T01:23:39Z</time>
      </trkpt>
      <trkpt lat="42.91867800" lon="12.51101000">
        <ele>235.00000</ele>
        <time>2010-01-01T01:23:55Z</time>
      </trkpt>
      <trkpt lat="42.91888000" lon="12.51046000">
        <ele>235.00000</ele>
        <time>2010-01-01T01:24:02Z</time>
      </trkpt>
      <trkpt lat="42.91989900" lon="12.50836000">
        <ele>228.00000</ele>
        <time>2010-01-01T01:24:32Z</time>
      </trkpt>
      <trkpt lat="42.92139800" lon="12.50573000">
        <ele>225.00000</ele>
        <time>2010-01-01T01:25:11Z</time>
      </trkpt>
      <trkpt lat="42.92443800" lon="12.49978000">
        <ele>221.00000</ele>
        <time>2010-01-01T01:26:36Z</time>
      </trkpt>
      <trkpt lat="42.92456100" lon="12.49931000">
        <ele>222.00000</ele>
        <time>2010-01-01T01:26:42Z</time>
      </trkpt>
      <trkpt lat="42.92458000" lon="12.49816000">
        <ele>222.00000</ele>
        <time>2010-01-01T01:26:55Z</time>
      </trkpt>
      <trkpt lat="42.92464800" lon="12.49740000">
        <ele>223.00000</ele>
        <time>2010-01-01T01:27:04Z</time>
      </trkpt>
      <trkpt lat="42.92538800" lon="12.49457000">
        <ele>221.00000</ele>
        <time>2010-01-01T01:27:39Z</time>
      </trkpt>
      <trkpt lat="42.92554900" lon="12.49411000">
        <ele>223.00000</ele>
        <time>2010-01-01T01:27:45Z</time>
      </trkpt>
      <trkpt lat="42.92580000" lon="12.49370000">
        <ele>223.00000</ele>
        <time>2010-01-01T01:27:52Z</time>
      </trkpt>
      <trkpt lat="42.92826800" lon="12.49082000">
        <ele>220.00000</ele>
        <time>2010-01-01T01:28:44Z</time>
      </trkpt>
      <trkpt lat="42.92850100" lon="12.49048000">
        <ele>219.00000</ele>
        <time>2010-01-01T01:28:49Z</time>
      </trkpt>
      <trkpt lat="42.92861200" lon="12.48995000">
        <ele>216.00000</ele>
        <time>2010-01-01T01:28:55Z</time>
      </trkpt>
      <trkpt lat="42.92858100" lon="12.48935000">
        <ele>215.00000</ele>
        <time>2010-01-01T01:29:03Z</time>
      </trkpt>
      <trkpt lat="42.92821100" lon="12.48710000">
        <ele>217.00000</ele>
        <time>2010-01-01T01:29:30Z</time>
      </trkpt>
      <trkpt lat="42.92821100" lon="12.48653000">
        <ele>216.00000</ele>
        <time>2010-01-01T01:29:36Z</time>
      </trkpt>
      <trkpt lat="42.92895100" lon="12.48329000">
        <ele>209.00000</ele>
        <time>2010-01-01T01:30:16Z</time>
      </trkpt>
      <trkpt lat="42.92902000" lon="12.48271000">
        <ele>209.00000</ele>
        <time>2010-01-01T01:30:23Z</time>
      </trkpt>
      <trkpt lat="42.92897000" lon="12.48217000">
        <ele>209.00000</ele>
        <time>2010-01-01T01:30:29Z</time>
      </trkpt>
      <trkpt lat="42.92853200" lon="12.48040000">
        <ele>215.00000</ele>
        <time>2010-01-01T01:30:51Z</time>
      </trkpt>
      <trkpt lat="42.92831000" lon="12.47876000">
        <ele>216.00000</ele>
        <time>2010-01-01T01:31:11Z</time>
      </trkpt>
      <trkpt lat="42.92829100" lon="12.47795000">
        <ele>214.00000</ele>
        <time>2010-01-01T01:31:20Z</time>
      </trkpt>
      <trkpt lat="42.92842900" lon="12.47528000">
        <ele>208.00000</ele>
        <time>2010-01-01T01:31:52Z</time>
      </trkpt>
      <trkpt lat="42.92853900" lon="12.47481000">
        <ele>209.00000</ele>
        <time>2010-01-01T01:31:57Z</time>
      </trkpt>
      <trkpt lat="42.92882200" lon="12.47400000">
        <ele>208.00000</ele>
        <time>2010-01-01T01:32:08Z</time>
      </trkpt>
      <trkpt lat="42.92810800" lon="12.47335000">
        <ele>203.00000</ele>
        <time>2010-01-01T01:32:22Z</time>
      </trkpt>
      <trkpt lat="42.92779900" lon="12.47267000">
        <ele>202.00000</ele>
        <time>2010-01-01T01:32:31Z</time>
      </trkpt>
      <trkpt lat="42.92771100" lon="12.47257000">
        <ele>202.00000</ele>
        <time>2010-01-01T01:32:33Z</time>
      </trkpt>
      <trkpt lat="42.92754000" lon="12.47252000">
        <ele>202.00000</ele>
        <time>2010-01-01T01:32:36Z</time>
      </trkpt>
      <trkpt lat="42.92701000" lon="12.47266000">
        <ele>206.00000</ele>
        <time>2010-01-01T01:32:44Z</time>
      </trkpt>
      <trkpt lat="42.92670100" lon="12.47260000">
        <ele>208.00000</ele>
        <time>2010-01-01T01:32:49Z</time>
      </trkpt>
      <trkpt lat="42.92659000" lon="12.47247000">
        <ele>210.00000</ele>
        <time>2010-01-01T01:32:52Z</time>
      </trkpt>
      <trkpt lat="42.92652900" lon="12.47210000">
        <ele>212.00000</ele>
        <time>2010-01-01T01:32:56Z</time>
      </trkpt>
      <trkpt lat="42.92625000" lon="12.47201000">
        <ele>216.00000</ele>
        <time>2010-01-01T01:33:01Z</time>
      </trkpt>
      <trkpt lat="42.92572000" lon="12.47152000">
        <ele>225.00000</ele>
        <time>2010-01-01T01:33:11Z</time>
      </trkpt>
      <trkpt lat="42.92559100" lon="12.47138000">
        <ele>229.00000</ele>
        <time>2010-01-01T01:33:14Z</time>
      </trkpt>
      <trkpt lat="42.92544900" lon="12.47098000">
        <ele>236.00000</ele>
        <time>2010-01-01T01:33:19Z</time>
      </trkpt>
      <trkpt lat="42.92538800" lon="12.47094000">
        <ele>237.00000</ele>
        <time>2010-01-01T01:33:20Z</time>
      </trkpt>
      <trkpt lat="42.92514000" lon="12.47097000">
        <ele>242.00000</ele>
        <time>2010-01-01T01:33:24Z</time>
      </trkpt>
      <trkpt lat="42.92501800" lon="12.47091000">
        <ele>245.00000</ele>
        <time>2010-01-01T01:33:26Z</time>
      </trkpt>
      <trkpt lat="42.92496900" lon="12.47079000">
        <ele>247.00000</ele>
        <time>2010-01-01T01:33:28Z</time>
      </trkpt>
      <trkpt lat="42.92496900" lon="12.47065000">
        <ele>249.00000</ele>
        <time>2010-01-01T01:33:29Z</time>
      </trkpt>
      <trkpt lat="42.92507200" lon="12.46990000">
        <ele>255.00000</ele>
        <time>2010-01-01T01:33:38Z</time>
      </trkpt>
      <trkpt lat="42.92506000" lon="12.46949000">
        <ele>260.00000</ele>
        <time>2010-01-01T01:33:43Z</time>
      </trkpt>
      <trkpt lat="42.92493800" lon="12.46930000">
        <ele>264.00000</ele>
        <time>2010-01-01T01:33:46Z</time>
      </trkpt>
      <trkpt lat="42.92461000" lon="12.46902000">
        <ele>274.00000</ele>
        <time>2010-01-01T01:33:52Z</time>
      </trkpt>
      <trkpt lat="42.92429000" lon="12.46863000">
        <ele>283.00000</ele>
        <time>2010-01-01T01:33:59Z</time>
      </trkpt>
      <trkpt lat="42.92392000" lon="12.46751000">
        <ele>298.00000</ele>
        <time>2010-01-01T01:34:13Z</time>
      </trkpt>
      <trkpt lat="42.92390100" lon="12.46728000">
        <ele>301.00000</ele>
        <time>2010-01-01T01:34:16Z</time>
      </trkpt>
      <trkpt lat="42.92401100" lon="12.46690000">
        <ele>303.00000</ele>
        <time>2010-01-01T01:34:21Z</time>
      </trkpt>
      <trkpt lat="42.92401100" lon="12.46678000">
        <ele>305.00000</ele>
        <time>2010-01-01T01:34:22Z</time>
      </trkpt>
      <trkpt lat="42.92390100" lon="12.46618000">
        <ele>316.00000</ele>
        <time>2010-01-01T01:34:30Z</time>
      </trkpt>
      <trkpt lat="42.92390800" lon="12.46590000">
        <ele>320.00000</ele>
        <time>2010-01-01T01:34:33Z</time>
      </trkpt>
      <trkpt lat="42.92400000" lon="12.46569000">
        <ele>321.00000</ele>
        <time>2010-01-01T01:34:36Z</time>
      </trkpt>
      <trkpt lat="42.92422100" lon="12.46554000">
        <ele>318.00000</ele>
        <time>2010-01-01T01:34:40Z</time>
      </trkpt>
      <trkpt lat="42.92422900" lon="12.46541000">
        <ele>319.00000</ele>
        <time>2010-01-01T01:34:41Z</time>
      </trkpt>
    </trkseg>
    <trkseg>
      <trkpt lat="42.92422900" lon="12.46541000">
        <ele>319.00000</ele>
        <time>2010-01-01T01:34:41Z</time>
      </trkpt>
      <trkpt lat="42.92401900" lon="12.46484000">
        <ele>326.00000</ele>
        <time>2010-01-01T01:34:49Z</time>
      </trkpt>
      <trkpt lat="42.92404200" lon="12.46470000">
        <ele>325.00000</ele>
        <time>2010-01-01T01:34:50Z</time>
      </trkpt>
      <trkpt lat="42.92414900" lon="12.46446000">
        <ele>322.00000</ele>
        <time>2010-01-01T01:34:54Z</time>
      </trkpt>
      <trkpt lat="42.92412200" lon="12.46428000">
        <ele>321.00000</ele>
        <time>2010-01-01T01:34:56Z</time>
      </trkpt>
      <trkpt lat="42.92388200" lon="12.46398000">
        <ele>323.00000</ele>
        <time>2010-01-01T01:35:01Z</time>
      </trkpt>
      <trkpt lat="42.92361800" lon="12.46379000">
        <ele>327.00000</ele>
        <time>2010-01-01T01:35:06Z</time>
      </trkpt>
      <trkpt lat="42.92348100" lon="12.46431000">
        <ele>333.00000</ele>
        <time>2010-01-01T01:35:12Z</time>
      </trkpt>
      <trkpt lat="42.92340900" lon="12.46441000">
        <ele>334.00000</ele>
        <time>2010-01-01T01:35:14Z</time>
      </trkpt>
      <trkpt lat="42.92324100" lon="12.46451000">
        <ele>337.00000</ele>
        <time>2010-01-01T01:35:17Z</time>
      </trkpt>
      <trkpt lat="42.92279800" lon="12.46442000">
        <ele>343.00000</ele>
        <time>2010-01-01T01:35:24Z</time>
      </trkpt>
      <trkpt lat="42.92248200" lon="12.46442000">
        <ele>348.00000</ele>
        <time>2010-01-01T01:35:29Z</time>
      </trkpt>
      <trkpt lat="42.92205000" lon="12.46423000">
        <ele>354.00000</ele>
        <time>2010-01-01T01:35:36Z</time>
      </trkpt>
      <trkpt lat="42.92184100" lon="12.46421000">
        <ele>358.00000</ele>
        <time>2010-01-01T01:35:40Z</time>
      </trkpt>
      <trkpt lat="42.92141000" lon="12.46435000">
        <ele>366.00000</ele>
        <time>2010-01-01T01:35:47Z</time>
      </trkpt>
      <trkpt lat="42.92092100" lon="12.46480000">
        <ele>376.00000</ele>
        <time>2010-01-01T01:35:56Z</time>
      </trkpt>
      <trkpt lat="42.92078000" lon="12.46481000">
        <ele>378.00000</ele>
        <time>2010-01-01T01:35:59Z</time>
      </trkpt>
      <trkpt lat="42.92041000" lon="12.46457000">
        <ele>380.00000</ele>
        <time>2010-01-01T01:36:05Z</time>
      </trkpt>
      <trkpt lat="42.92031900" lon="12.46460000">
        <ele>382.00000</ele>
        <time>2010-01-01T01:36:07Z</time>
      </trkpt>
      <trkpt lat="42.92026900" lon="12.46472000">
        <ele>384.00000</ele>
        <time>2010-01-01T01:36:08Z</time>
      </trkpt>
      <trkpt lat="42.92049000" lon="12.46576000">
        <ele>389.00000</ele>
        <time>2010-01-01T01:36:21Z</time>
      </trkpt>
      <trkpt lat="42.92052100" lon="12.46594000">
        <ele>389.00000</ele>
        <time>2010-01-01T01:36:23Z</time>
      </trkpt>
      <trkpt lat="42.92049000" lon="12.46603000">
        <ele>390.00000</ele>
        <time>2010-01-01T01:36:24Z</time>
      </trkpt>
      <trkpt lat="42.92042900" lon="12.46606000">
        <ele>392.00000</ele>
        <time>2010-01-01T01:36:25Z</time>
      </trkpt>
      <trkpt lat="42.92028000" lon="12.46599000">
        <ele>395.00000</ele>
        <time>2010-01-01T01:36:28Z</time>
      </trkpt>
      <trkpt lat="42.91817900" lon="12.46462000">
        <ele>425.00000</ele>
        <time>2010-01-01T01:37:05Z</time>
      </trkpt>
      <trkpt lat="42.91807900" lon="12.46449000">
        <ele>424.00000</ele>
        <time>2010-01-01T01:37:07Z</time>
      </trkpt>
      <trkpt lat="42.91803000" lon="12.46432000">
        <ele>422.00000</ele>
        <time>2010-01-01T01:37:09Z</time>
      </trkpt>
      <trkpt lat="42.91799900" lon="12.46386000">
        <ele>419.00000</ele>
        <time>2010-01-01T01:37:15Z</time>
      </trkpt>
      <trkpt lat="42.91788900" lon="12.46380000">
        <ele>419.00000</ele>
        <time>2010-01-01T01:37:17Z</time>
      </trkpt>
      <trkpt lat="42.91780100" lon="12.46388000">
        <ele>420.00000</ele>
        <time>2010-01-01T01:37:18Z</time>
      </trkpt>
      <trkpt lat="42.91709900" lon="12.46534000">
        <ele>433.00000</ele>
        <time>2010-01-01T01:37:39Z</time>
      </trkpt>
      <trkpt lat="42.91682800" lon="12.46616000">
        <ele>439.00000</ele>
        <time>2010-01-01T01:37:49Z</time>
      </trkpt>
      <trkpt lat="42.91669800" lon="12.46639000">
        <ele>441.00000</ele>
        <time>2010-01-01T01:37:53Z</time>
      </trkpt>
      <trkpt lat="42.91648900" lon="12.46653000">
        <ele>444.00000</ele>
        <time>2010-01-01T01:37:57Z</time>
      </trkpt>
      <trkpt lat="42.91592000" lon="12.46639000">
        <ele>447.00000</ele>
        <time>2010-01-01T01:38:06Z</time>
      </trkpt>
      <trkpt lat="42.91539000" lon="12.46666000">
        <ele>454.00000</ele>
        <time>2010-01-01T01:38:15Z</time>
      </trkpt>
      <trkpt lat="42.91527200" lon="12.46680000">
        <ele>455.00000</ele>
        <time>2010-01-01T01:38:17Z</time>
      </trkpt>
      <trkpt lat="42.91505100" lon="12.46744000">
        <ele>457.00000</ele>
        <time>2010-01-01T01:38:26Z</time>
      </trkpt>
      <trkpt lat="42.91492100" lon="12.46759000">
        <ele>456.00000</ele>
        <time>2010-01-01T01:38:28Z</time>
      </trkpt>
      <trkpt lat="42.91466100" lon="12.46775000">
        <ele>454.00000</ele>
        <time>2010-01-01T01:38:33Z</time>
      </trkpt>
      <trkpt lat="42.91413100" lon="12.46795000">
        <ele>454.00000</ele>
        <time>2010-01-01T01:38:42Z</time>
      </trkpt>
      <trkpt lat="42.91387900" lon="12.46813000">
        <ele>453.00000</ele>
        <time>2010-01-01T01:38:46Z</time>
      </trkpt>
      <trkpt lat="42.91323900" lon="12.46882000">
        <ele>452.00000</ele>
        <time>2010-01-01T01:38:59Z</time>
      </trkpt>
      <trkpt lat="42.91278800" lon="12.46917000">
        <ele>451.00000</ele>
        <time>2010-01-01T01:39:08Z</time>
      </trkpt>
      <trkpt lat="42.91091900" lon="12.46949000">
        <ele>455.00000</ele>
        <time>2010-01-01T01:39:38Z</time>
      </trkpt>
      <trkpt lat="42.91054200" lon="12.46941000">
        <ele>460.00000</ele>
        <time>2010-01-01T01:39:44Z</time>
      </trkpt>
      <trkpt lat="42.90916100" lon="12.46895000">
        <ele>467.00000</ele>
        <time>2010-01-01T01:40:07Z</time>
      </trkpt>
      <trkpt lat="42.90868000" lon="12.46895000">
        <ele>467.00000</ele>
        <time>2010-01-01T01:40:14Z</time>
      </trkpt>
      <trkpt lat="42.90795100" lon="12.46951000">
        <ele>465.00000</ele>
        <time>2010-01-01T01:40:28Z</time>
      </trkpt>
      <trkpt lat="42.90750900" lon="12.47009000">
        <ele>462.00000</ele>
        <time>2010-01-01T01:40:38Z</time>
      </trkpt>
      <trkpt lat="42.90716900" lon="12.47041000">
        <ele>456.00000</ele>
        <time>2010-01-01T01:40:44Z</time>
      </trkpt>
      <trkpt lat="42.90652100" lon="12.47037000">
        <ele>454.00000</ele>
        <time>2010-01-01T01:40:55Z</time>
      </trkpt>
      <trkpt lat="42.90636100" lon="12.47045000">
        <ele>452.00000</ele>
        <time>2010-01-01T01:40:57Z</time>
      </trkpt>
      <trkpt lat="42.90589100" lon="12.47096000">
        <ele>450.00000</ele>
        <time>2010-01-01T01:41:07Z</time>
      </trkpt>
      <trkpt lat="42.90541800" lon="12.47162000">
        <ele>447.00000</ele>
        <time>2010-01-01T01:41:18Z</time>
      </trkpt>
      <trkpt lat="42.90515100" lon="12.47185000">
        <ele>446.00000</ele>
        <time>2010-01-01T01:41:23Z</time>
      </trkpt>
      <trkpt lat="42.90380900" lon="12.47209000">
        <ele>456.00000</ele>
        <time>2010-01-01T01:41:45Z</time>
      </trkpt>
      <trkpt lat="42.90354900" lon="12.47206000">
        <ele>459.00000</ele>
        <time>2010-01-01T01:41:49Z</time>
      </trkpt>
      <trkpt lat="42.90219900" lon="12.47161000">
        <ele>466.00000</ele>
        <time>2010-01-01T01:42:11Z</time>
      </trkpt>
      <trkpt lat="42.90195800" lon="12.47163000">
        <ele>466.00000</ele>
        <time>2010-01-01T01:42:15Z</time>
      </trkpt>
      <trkpt lat="42.90134000" lon="12.47208000">
        <ele>464.00000</ele>
        <time>2010-01-01T01:42:26Z</time>
      </trkpt>
      <trkpt lat="42.90095100" lon="12.47243000">
        <ele>467.00000</ele>
        <time>2010-01-01T01:42:34Z</time>
      </trkpt>
      <trkpt lat="42.90041000" lon="12.47307000">
        <ele>469.00000</ele>
        <time>2010-01-01T01:42:45Z</time>
      </trkpt>
      <trkpt lat="42.90002800" lon="12.47367000">
        <ele>470.00000</ele>
        <time>2010-01-01T01:42:54Z</time>
      </trkpt>
      <trkpt lat="42.89967000" lon="12.47393000">
        <ele>470.00000</ele>
        <time>2010-01-01T01:43:01Z</time>
      </trkpt>
      <trkpt lat="42.89921200" lon="12.47410000">
        <ele>474.00000</ele>
        <time>2010-01-01T01:43:08Z</time>
      </trkpt>
      <trkpt lat="42.89868200" lon="12.47413000">
        <ele>474.00000</ele>
        <time>2010-01-01T01:43:17Z</time>
      </trkpt>
      <trkpt lat="42.89762100" lon="12.47452000">
        <ele>471.00000</ele>
        <time>2010-01-01T01:43:35Z</time>
      </trkpt>
      <trkpt lat="42.89596200" lon="12.47496000">
        <ele>477.00000</ele>
        <time>2010-01-01T01:44:02Z</time>
      </trkpt>
      <trkpt lat="42.89563000" lon="12.47518000">
        <ele>477.00000</ele>
        <time>2010-01-01T01:44:07Z</time>
      </trkpt>
      <trkpt lat="42.89516800" lon="12.47559000">
        <ele>476.00000</ele>
        <time>2010-01-01T01:44:16Z</time>
      </trkpt>
      <trkpt lat="42.89452000" lon="12.47573000">
        <ele>472.00000</ele>
        <time>2010-01-01T01:44:27Z</time>
      </trkpt>
      <trkpt lat="42.89395100" lon="12.47626000">
        <ele>461.00000</ele>
        <time>2010-01-01T01:44:38Z</time>
      </trkpt>
      <trkpt lat="42.89374200" lon="12.47666000">
        <ele>455.00000</ele>
        <time>2010-01-01T01:44:44Z</time>
      </trkpt>
      <trkpt lat="42.89368100" lon="12.47666000">
        <ele>455.00000</ele>
        <time>2010-01-01T01:44:45Z</time>
      </trkpt>
      <trkpt lat="42.89339800" lon="12.47646000">
        <ele>456.00000</ele>
        <time>2010-01-01T01:44:50Z</time>
      </trkpt>
      <trkpt lat="42.89325000" lon="12.47645000">
        <ele>454.00000</ele>
        <time>2010-01-01T01:44:52Z</time>
      </trkpt>
      <trkpt lat="42.89325000" lon="12.47661000">
        <ele>453.00000</ele>
        <time>2010-01-01T01:44:54Z</time>
      </trkpt>
      <trkpt lat="42.89349000" lon="12.47734000">
        <ele>443.00000</ele>
        <time>2010-01-01T01:45:03Z</time>
      </trkpt>
      <trkpt lat="42.89345900" lon="12.47742000">
        <ele>442.00000</ele>
        <time>2010-01-01T01:45:04Z</time>
      </trkpt>
      <trkpt lat="42.89310100" lon="12.47773000">
        <ele>438.00000</ele>
        <time>2010-01-01T01:45:11Z</time>
      </trkpt>
      <trkpt lat="42.89300200" lon="12.47794000">
        <ele>436.00000</ele>
        <time>2010-01-01T01:45:14Z</time>
      </trkpt>
      <trkpt lat="42.89287200" lon="12.47858000">
        <ele>437.00000</ele>
        <time>2010-01-01T01:45:22Z</time>
      </trkpt>
      <trkpt lat="42.89281800" lon="12.47945000">
        <ele>445.00000</ele>
        <time>2010-01-01T01:45:32Z</time>
      </trkpt>
      <trkpt lat="42.89262000" lon="12.48006000">
        <ele>454.00000</ele>
        <time>2010-01-01T01:45:40Z</time>
      </trkpt>
      <trkpt lat="42.89184200" lon="12.48163000">
        <ele>460.00000</ele>
        <time>2010-01-01T01:46:02Z</time>
      </trkpt>
      <trkpt lat="42.89106000" lon="12.48248000">
        <ele>457.00000</ele>
        <time>2010-01-01T01:46:18Z</time>
      </trkpt>
      <trkpt lat="42.89080000" lon="12.48287000">
        <ele>458.00000</ele>
        <time>2010-01-01T01:46:24Z</time>
      </trkpt>
      <trkpt lat="42.89040000" lon="12.48332000">
        <ele>458.00000</ele>
        <time>2010-01-01T01:46:33Z</time>
      </trkpt>
      <trkpt lat="42.88996100" lon="12.48364000">
        <ele>460.00000</ele>
        <time>2010-01-01T01:46:41Z</time>
      </trkpt>
      <trkpt lat="42.88980100" lon="12.48367000">
        <ele>460.00000</ele>
        <time>2010-01-01T01:46:43Z</time>
      </trkpt>
      <trkpt lat="42.88983200" lon="12.48376000">
        <ele>460.00000</ele>
        <time>2010-01-01T01:46:44Z</time>
      </trkpt>
      <trkpt lat="42.88972900" lon="12.48433000">
        <ele>459.00000</ele>
        <time>2010-01-01T01:46:51Z</time>
      </trkpt>
      <trkpt lat="42.88974000" lon="12.48452000">
        <ele>457.00000</ele>
        <time>2010-01-01T01:46:54Z</time>
      </trkpt>
      <trkpt lat="42.89012100" lon="12.48573000">
        <ele>447.00000</ele>
        <time>2010-01-01T01:47:09Z</time>
      </trkpt>
      <trkpt lat="42.89033900" lon="12.48664000">
        <ele>438.00000</ele>
        <time>2010-01-01T01:47:20Z</time>
      </trkpt>
      <trkpt lat="42.89041900" lon="12.48732000">
        <ele>432.00000</ele>
        <time>2010-01-01T01:47:28Z</time>
      </trkpt>
      <trkpt lat="42.89033100" lon="12.48956000">
        <ele>422.00000</ele>
        <time>2010-01-01T01:47:55Z</time>
      </trkpt>
      <trkpt lat="42.89025900" lon="12.49038000">
        <ele>426.00000</ele>
        <time>2010-01-01T01:48:04Z</time>
      </trkpt>
      <trkpt lat="42.89016000" lon="12.49093000">
        <ele>429.00000</ele>
        <time>2010-01-01T01:48:11Z</time>
      </trkpt>
      <trkpt lat="42.89001100" lon="12.49148000">
        <ele>430.00000</ele>
        <time>2010-01-01T01:48:18Z</time>
      </trkpt>
      <trkpt lat="42.88983200" lon="12.49188000">
        <ele>430.00000</ele>
        <time>2010-01-01T01:48:23Z</time>
      </trkpt>
      <trkpt lat="42.88843200" lon="12.49357000">
        <ele>434.00000</ele>
        <time>2010-01-01T01:48:53Z</time>
      </trkpt>
      <trkpt lat="42.88785200" lon="12.49418000">
        <ele>435.00000</ele>
        <time>2010-01-01T01:49:05Z</time>
      </trkpt>
      <trkpt lat="42.88752000" lon="12.49440000">
        <ele>433.00000</ele>
        <time>2010-01-01T01:49:11Z</time>
      </trkpt>
      <trkpt lat="42.88695100" lon="12.49460000">
        <ele>429.00000</ele>
        <time>2010-01-01T01:49:20Z</time>
      </trkpt>
      <trkpt lat="42.88610800" lon="12.49509000">
        <ele>425.00000</ele>
        <time>2010-01-01T01:49:35Z</time>
      </trkpt>
      <trkpt lat="42.88369000" lon="12.49600000">
        <ele>418.00000</ele>
        <time>2010-01-01T01:50:15Z</time>
      </trkpt>
      <trkpt lat="42.88187000" lon="12.49650000">
        <ele>426.00000</ele>
        <time>2010-01-01T01:50:45Z</time>
      </trkpt>
      <trkpt lat="42.88119100" lon="12.49655000">
        <ele>431.00000</ele>
        <time>2010-01-01T01:50:56Z</time>
      </trkpt>
      <trkpt lat="42.87976800" lon="12.49651000">
        <ele>439.00000</ele>
        <time>2010-01-01T01:51:19Z</time>
      </trkpt>
      <trkpt lat="42.87960100" lon="12.49652000">
        <ele>441.00000</ele>
        <time>2010-01-01T01:51:21Z</time>
      </trkpt>
      <trkpt lat="42.87931100" lon="12.49664000">
        <ele>445.00000</ele>
        <time>2010-01-01T01:51:26Z</time>
      </trkpt>
      <trkpt lat="42.87891000" lon="12.49718000">
        <ele>454.00000</ele>
        <time>2010-01-01T01:51:35Z</time>
      </trkpt>
      <trkpt lat="42.87881100" lon="12.49738000">
        <ele>457.00000</ele>
        <time>2010-01-01T01:51:38Z</time>
      </trkpt>
      <trkpt lat="42.87879200" lon="12.49753000">
        <ele>459.00000</ele>
        <time>2010-01-01T01:51:40Z</time>
      </trkpt>
      <trkpt lat="42.87897100" lon="12.49805000">
        <ele>460.00000</ele>
        <time>2010-01-01T01:51:46Z</time>
      </trkpt>
      <trkpt lat="42.87929900" lon="12.49864000">
        <ele>460.00000</ele>
        <time>2010-01-01T01:51:55Z</time>
      </trkpt>
      <trkpt lat="42.87931800" lon="12.49894000">
        <ele>462.00000</ele>
        <time>2010-01-01T01:51:59Z</time>
      </trkpt>
      <trkpt lat="42.87920000" lon="12.49922000">
        <ele>466.00000</ele>
        <time>2010-01-01T01:52:02Z</time>
      </trkpt>
      <trkpt lat="42.87860900" lon="12.50009000">
        <ele>465.00000</ele>
        <time>2010-01-01T01:52:16Z</time>
      </trkpt>
      <trkpt lat="42.87731900" lon="12.49646000">
        <ele>474.00000</ele>
        <time>2010-01-01T01:53:04Z</time>
      </trkpt>
      <trkpt lat="42.87707900" lon="12.49599000">
        <ele>474.00000</ele>
        <time>2010-01-01T01:53:10Z</time>
      </trkpt>
      <trkpt lat="42.87677000" lon="12.49566000">
        <ele>476.00000</ele>
        <time>2010-01-01T01:53:17Z</time>
      </trkpt>
      <trkpt lat="42.87553000" lon="12.49472000">
        <ele>482.00000</ele>
        <time>2010-01-01T01:53:39Z</time>
      </trkpt>
      <trkpt lat="42.87511800" lon="12.49435000">
        <ele>484.00000</ele>
        <time>2010-01-01T01:53:47Z</time>
      </trkpt>
      <trkpt lat="42.87316100" lon="12.49221000">
        <ele>492.00000</ele>
        <time>2010-01-01T01:54:27Z</time>
      </trkpt>
      <trkpt lat="42.87273000" lon="12.49168000">
        <ele>489.00000</ele>
        <time>2010-01-01T01:54:37Z</time>
      </trkpt>
      <trkpt lat="42.87226100" lon="12.49055000">
        <ele>491.00000</ele>
        <time>2010-01-01T01:54:52Z</time>
      </trkpt>
      <trkpt lat="42.87208200" lon="12.48988000">
        <ele>494.00000</ele>
        <time>2010-01-01T01:55:00Z</time>
      </trkpt>
      <trkpt lat="42.87176100" lon="12.48642000">
        <ele>506.00000</ele>
        <time>2010-01-01T01:55:41Z</time>
      </trkpt>
      <trkpt lat="42.87160900" lon="12.48580000">
        <ele>508.00000</ele>
        <time>2010-01-01T01:55:49Z</time>
      </trkpt>
      <trkpt lat="42.87123100" lon="12.48501000">
        <ele>513.00000</ele>
        <time>2010-01-01T01:56:00Z</time>
      </trkpt>
      <trkpt lat="42.87065900" lon="12.48401000">
        <ele>520.00000</ele>
        <time>2010-01-01T01:56:15Z</time>
      </trkpt>
      <trkpt lat="42.87033100" lon="12.48366000">
        <ele>523.00000</ele>
        <time>2010-01-01T01:56:22Z</time>
      </trkpt>
      <trkpt lat="42.86945000" lon="12.48306000">
        <ele>528.00000</ele>
        <time>2010-01-01T01:56:37Z</time>
      </trkpt>
      <trkpt lat="42.86899200" lon="12.48424000">
        <ele>530.00000</ele>
        <time>2010-01-01T01:56:53Z</time>
      </trkpt>
      <trkpt lat="42.86899200" lon="12.48454000">
        <ele>530.00000</ele>
        <time>2010-01-01T01:56:57Z</time>
      </trkpt>
      <trkpt lat="42.86912900" lon="12.48548000">
        <ele>529.00000</ele>
        <time>2010-01-01T01:57:08Z</time>
      </trkpt>
      <trkpt lat="42.86911000" lon="12.48591000">
        <ele>529.00000</ele>
        <time>2010-01-01T01:57:13Z</time>
      </trkpt>
      <trkpt lat="42.86898000" lon="12.48649000">
        <ele>529.00000</ele>
        <time>2010-01-01T01:57:20Z</time>
      </trkpt>
      <trkpt lat="42.86883200" lon="12.48695000">
        <ele>528.00000</ele>
        <time>2010-01-01T01:57:26Z</time>
      </trkpt>
      <trkpt lat="42.86859900" lon="12.48736000">
        <ele>529.00000</ele>
        <time>2010-01-01T01:57:32Z</time>
      </trkpt>
      <trkpt lat="42.86851900" lon="12.48760000">
        <ele>529.00000</ele>
        <time>2010-01-01T01:57:35Z</time>
      </trkpt>
      <trkpt lat="42.86843100" lon="12.48881000">
        <ele>527.00000</ele>
        <time>2010-01-01T01:57:49Z</time>
      </trkpt>
      <trkpt lat="42.86835100" lon="12.48912000">
        <ele>528.00000</ele>
        <time>2010-01-01T01:57:53Z</time>
      </trkpt>
      <trkpt lat="42.86819800" lon="12.48944000">
        <ele>527.00000</ele>
        <time>2010-01-01T01:57:58Z</time>
      </trkpt>
      <trkpt lat="42.86739000" lon="12.49058000">
        <ele>525.00000</ele>
        <time>2010-01-01T01:58:16Z</time>
      </trkpt>
      <trkpt lat="42.86665000" lon="12.49093000">
        <ele>526.00000</ele>
        <time>2010-01-01T01:58:29Z</time>
      </trkpt>
      <trkpt lat="42.86616900" lon="12.49155000">
        <ele>520.00000</ele>
        <time>2010-01-01T01:58:39Z</time>
      </trkpt>
      <trkpt lat="42.86592900" lon="12.49172000">
        <ele>519.00000</ele>
        <time>2010-01-01T01:58:44Z</time>
      </trkpt>
      <trkpt lat="42.86537200" lon="12.49199000">
        <ele>518.00000</ele>
        <time>2010-01-01T01:58:53Z</time>
      </trkpt>
      <trkpt lat="42.86496000" lon="12.49207000">
        <ele>518.00000</ele>
        <time>2010-01-01T01:59:00Z</time>
      </trkpt>
      <trkpt lat="42.86420100" lon="12.49191000">
        <ele>521.00000</ele>
        <time>2010-01-01T01:59:12Z</time>
      </trkpt>
      <trkpt lat="42.86407900" lon="12.49195000">
        <ele>522.00000</ele>
        <time>2010-01-01T01:59:14Z</time>
      </trkpt>
      <trkpt lat="42.86397200" lon="12.49213000">
        <ele>521.00000</ele>
        <time>2010-01-01T01:59:17Z</time>
      </trkpt>
      <trkpt lat="42.86394900" lon="12.49231000">
        <ele>520.00000</ele>
        <time>2010-01-01T01:59:19Z</time>
      </trkpt>
      <trkpt lat="42.86397900" lon="12.49251000">
        <ele>518.00000</ele>
        <time>2010-01-01T01:59:21Z</time>
      </trkpt>
      <trkpt lat="42.86418200" lon="12.49299000">
        <ele>513.00000</ele>
        <time>2010-01-01T01:59:28Z</time>
      </trkpt>
      <trkpt lat="42.86420800" lon="12.49326000">
        <ele>513.00000</ele>
        <time>2010-01-01T01:59:31Z</time>
      </trkpt>
      <trkpt lat="42.86418900" lon="12.49339000">
        <ele>512.00000</ele>
        <time>2010-01-01T01:59:33Z</time>
      </trkpt>
      <trkpt lat="42.86404000" lon="12.49371000">
        <ele>513.00000</ele>
        <time>2010-01-01T01:59:37Z</time>
      </trkpt>
      <trkpt lat="42.86340000" lon="12.49463000">
        <ele>514.00000</ele>
        <time>2010-01-01T01:59:52Z</time>
      </trkpt>
      <trkpt lat="42.86317100" lon="12.49491000">
        <ele>514.00000</ele>
        <time>2010-01-01T01:59:57Z</time>
      </trkpt>
      <trkpt lat="42.86230100" lon="12.49573000">
        <ele>517.00000</ele>
        <time>2010-01-01T02:00:14Z</time>
      </trkpt>
      <trkpt lat="42.86217100" lon="12.49598000">
        <ele>517.00000</ele>
        <time>2010-01-01T02:00:17Z</time>
      </trkpt>
      <trkpt lat="42.86172100" lon="12.49770000">
        <ele>509.00000</ele>
        <time>2010-01-01T02:00:39Z</time>
      </trkpt>
      <trkpt lat="42.86175900" lon="12.49798000">
        <ele>506.00000</ele>
        <time>2010-01-01T02:00:42Z</time>
      </trkpt>
      <trkpt lat="42.86191200" lon="12.49840000">
        <ele>499.00000</ele>
        <time>2010-01-01T02:00:48Z</time>
      </trkpt>
      <trkpt lat="42.86191900" lon="12.49854000">
        <ele>498.00000</ele>
        <time>2010-01-01T02:00:49Z</time>
      </trkpt>
      <trkpt lat="42.86188100" lon="12.49880000">
        <ele>497.00000</ele>
        <time>2010-01-01T02:00:53Z</time>
      </trkpt>
      <trkpt lat="42.86177100" lon="12.49906000">
        <ele>499.00000</ele>
        <time>2010-01-01T02:00:56Z</time>
      </trkpt>
      <trkpt lat="42.86151900" lon="12.49929000">
        <ele>500.00000</ele>
        <time>2010-01-01T02:01:01Z</time>
      </trkpt>
      <trkpt lat="42.86088900" lon="12.49919000">
        <ele>505.00000</ele>
        <time>2010-01-01T02:01:11Z</time>
      </trkpt>
      <trkpt lat="42.86066100" lon="12.49930000">
        <ele>506.00000</ele>
        <time>2010-01-01T02:01:15Z</time>
      </trkpt>
      <trkpt lat="42.86045800" lon="12.49959000">
        <ele>504.00000</ele>
        <time>2010-01-01T02:01:20Z</time>
      </trkpt>
      <trkpt lat="42.86032900" lon="12.50013000">
        <ele>498.00000</ele>
        <time>2010-01-01T02:01:26Z</time>
      </trkpt>
      <trkpt lat="42.86018000" lon="12.50043000">
        <ele>497.00000</ele>
        <time>2010-01-01T02:01:31Z</time>
      </trkpt>
      <trkpt lat="42.85990900" lon="12.50069000">
        <ele>497.00000</ele>
        <time>2010-01-01T02:01:36Z</time>
      </trkpt>
      <trkpt lat="42.85950100" lon="12.50075000">
        <ele>500.00000</ele>
        <time>2010-01-01T02:01:42Z</time>
      </trkpt>
      <trkpt lat="42.85937100" lon="12.50082000">
        <ele>500.00000</ele>
        <time>2010-01-01T02:01:45Z</time>
      </trkpt>
      <trkpt lat="42.85911200" lon="12.50127000">
        <ele>496.00000</ele>
        <time>2010-01-01T02:01:51Z</time>
      </trkpt>
      <trkpt lat="42.85866900" lon="12.50247000">
        <ele>487.00000</ele>
        <time>2010-01-01T02:02:07Z</time>
      </trkpt>
      <trkpt lat="42.85858900" lon="12.50259000">
        <ele>487.00000</ele>
        <time>2010-01-01T02:02:09Z</time>
      </trkpt>
      <trkpt lat="42.85825000" lon="12.50286000">
        <ele>488.00000</ele>
        <time>2010-01-01T02:02:15Z</time>
      </trkpt>
      <trkpt lat="42.85805900" lon="12.50308000">
        <ele>488.00000</ele>
        <time>2010-01-01T02:02:19Z</time>
      </trkpt>
      <trkpt lat="42.85797900" lon="12.50344000">
        <ele>486.00000</ele>
        <time>2010-01-01T02:02:24Z</time>
      </trkpt>
      <trkpt lat="42.85786800" lon="12.50465000">
        <ele>480.00000</ele>
        <time>2010-01-01T02:02:38Z</time>
      </trkpt>
      <trkpt lat="42.85770000" lon="12.50515000">
        <ele>479.00000</ele>
        <time>2010-01-01T02:02:45Z</time>
      </trkpt>
      <trkpt lat="42.85704000" lon="12.50620000">
        <ele>475.00000</ele>
        <time>2010-01-01T02:03:01Z</time>
      </trkpt>
      <trkpt lat="42.85641100" lon="12.50752000">
        <ele>471.00000</ele>
        <time>2010-01-01T02:03:19Z</time>
      </trkpt>
      <trkpt lat="42.85609800" lon="12.50807000">
        <ele>470.00000</ele>
        <time>2010-01-01T02:03:27Z</time>
      </trkpt>
      <trkpt lat="42.85583900" lon="12.50843000">
        <ele>469.00000</ele>
        <time>2010-01-01T02:03:33Z</time>
      </trkpt>
      <trkpt lat="42.85514100" lon="12.50920000">
        <ele>467.00000</ele>
        <time>2010-01-01T02:03:48Z</time>
      </trkpt>
      <trkpt lat="42.85488900" lon="12.50959000">
        <ele>468.00000</ele>
        <time>2010-01-01T02:03:54Z</time>
      </trkpt>
      <trkpt lat="42.85483900" lon="12.50977000">
        <ele>468.00000</ele>
        <time>2010-01-01T02:03:56Z</time>
      </trkpt>
      <trkpt lat="42.85475900" lon="12.51097000">
        <ele>468.00000</ele>
        <time>2010-01-01T02:04:10Z</time>
      </trkpt>
      <trkpt lat="42.85454200" lon="12.51166000">
        <ele>466.00000</ele>
        <time>2010-01-01T02:04:19Z</time>
      </trkpt>
      <trkpt lat="42.85401200" lon="12.51275000">
        <ele>460.00000</ele>
        <time>2010-01-01T02:04:34Z</time>
      </trkpt>
      <trkpt lat="42.85369100" lon="12.51435000">
        <ele>455.00000</ele>
        <time>2010-01-01T02:04:54Z</time>
      </trkpt>
      <trkpt lat="42.85361100" lon="12.51458000">
        <ele>453.00000</ele>
        <time>2010-01-01T02:04:57Z</time>
      </trkpt>
      <trkpt lat="42.85337100" lon="12.51488000">
        <ele>452.00000</ele>
        <time>2010-01-01T02:05:02Z</time>
      </trkpt>
      <trkpt lat="42.85290100" lon="12.51520000">
        <ele>451.00000</ele>
        <time>2010-01-01T02:05:10Z</time>
      </trkpt>
      <trkpt lat="42.85266100" lon="12.51525000">
        <ele>451.00000</ele>
        <time>2010-01-01T02:05:14Z</time>
      </trkpt>
      <trkpt lat="42.85257000" lon="12.51522000">
        <ele>452.00000</ele>
        <time>2010-01-01T02:05:16Z</time>
      </trkpt>
      <trkpt lat="42.85236000" lon="12.51496000">
        <ele>452.00000</ele>
        <time>2010-01-01T02:05:20Z</time>
      </trkpt>
      <trkpt lat="42.85197100" lon="12.51409000">
        <ele>451.00000</ele>
        <time>2010-01-01T02:05:32Z</time>
      </trkpt>
      <trkpt lat="42.85115800" lon="12.51373000">
        <ele>449.00000</ele>
        <time>2010-01-01T02:05:46Z</time>
      </trkpt>
      <trkpt lat="42.85092900" lon="12.51353000">
        <ele>449.00000</ele>
        <time>2010-01-01T02:05:50Z</time>
      </trkpt>
      <trkpt lat="42.85081100" lon="12.51333000">
        <ele>450.00000</ele>
        <time>2010-01-01T02:05:53Z</time>
      </trkpt>
      <trkpt lat="42.85047900" lon="12.51222000">
        <ele>451.00000</ele>
        <time>2010-01-01T02:06:07Z</time>
      </trkpt>
      <trkpt lat="42.84917800" lon="12.51038000">
        <ele>440.00000</ele>
        <time>2010-01-01T02:06:38Z</time>
      </trkpt>
      <trkpt lat="42.84893000" lon="12.51021000">
        <ele>439.00000</ele>
        <time>2010-01-01T02:06:42Z</time>
      </trkpt>
      <trkpt lat="42.84853000" lon="12.51034000">
        <ele>437.00000</ele>
        <time>2010-01-01T02:06:49Z</time>
      </trkpt>
      <trkpt lat="42.84838100" lon="12.51045000">
        <ele>436.00000</ele>
        <time>2010-01-01T02:06:51Z</time>
      </trkpt>
      <trkpt lat="42.84817900" lon="12.51072000">
        <ele>436.00000</ele>
        <time>2010-01-01T02:06:56Z</time>
      </trkpt>
      <trkpt lat="42.84788100" lon="12.51199000">
        <ele>432.00000</ele>
        <time>2010-01-01T02:07:11Z</time>
      </trkpt>
      <trkpt lat="42.84772900" lon="12.51240000">
        <ele>431.00000</ele>
        <time>2010-01-01T02:07:17Z</time>
      </trkpt>
      <trkpt lat="42.84695100" lon="12.51331000">
        <ele>433.00000</ele>
        <time>2010-01-01T02:07:33Z</time>
      </trkpt>
      <trkpt lat="42.84680900" lon="12.51311000">
        <ele>434.00000</ele>
        <time>2010-01-01T02:07:37Z</time>
      </trkpt>
      <trkpt lat="42.84642000" lon="12.51226000">
        <ele>434.00000</ele>
        <time>2010-01-01T02:07:48Z</time>
      </trkpt>
      <trkpt lat="42.84605000" lon="12.51163000">
        <ele>434.00000</ele>
        <time>2010-01-01T02:07:58Z</time>
      </trkpt>
      <trkpt lat="42.84555800" lon="12.51096000">
        <ele>436.00000</ele>
        <time>2010-01-01T02:08:09Z</time>
      </trkpt>
      <trkpt lat="42.84545900" lon="12.51109000">
        <ele>435.00000</ele>
        <time>2010-01-01T02:08:11Z</time>
      </trkpt>
      <trkpt lat="42.84521100" lon="12.51124000">
        <ele>434.00000</ele>
        <time>2010-01-01T02:08:15Z</time>
      </trkpt>
      <trkpt lat="42.84503200" lon="12.51127000">
        <ele>433.00000</ele>
        <time>2010-01-01T02:08:18Z</time>
      </trkpt>
      <trkpt lat="42.84473000" lon="12.51123000">
        <ele>431.00000</ele>
        <time>2010-01-01T02:08:23Z</time>
      </trkpt>
      <trkpt lat="42.84434100" lon="12.51102000">
        <ele>431.00000</ele>
        <time>2010-01-01T02:08:30Z</time>
      </trkpt>
      <trkpt lat="42.84415100" lon="12.51086000">
        <ele>432.00000</ele>
        <time>2010-01-01T02:08:33Z</time>
      </trkpt>
      <trkpt lat="42.84383000" lon="12.51048000">
        <ele>433.00000</ele>
        <time>2010-01-01T02:08:40Z</time>
      </trkpt>
      <trkpt lat="42.84359000" lon="12.51029000">
        <ele>432.00000</ele>
        <time>2010-01-01T02:08:45Z</time>
      </trkpt>
      <trkpt lat="42.84323100" lon="12.51032000">
        <ele>431.00000</ele>
        <time>2010-01-01T02:08:50Z</time>
      </trkpt>
      <trkpt lat="42.84293000" lon="12.51058000">
        <ele>429.00000</ele>
        <time>2010-01-01T02:08:56Z</time>
      </trkpt>
      <trkpt lat="42.84270900" lon="12.51115000">
        <ele>425.00000</ele>
        <time>2010-01-01T02:09:04Z</time>
      </trkpt>
      <trkpt lat="42.84246800" lon="12.51137000">
        <ele>424.00000</ele>
        <time>2010-01-01T02:09:08Z</time>
      </trkpt>
      <trkpt lat="42.84156000" lon="12.51143000">
        <ele>423.00000</ele>
        <time>2010-01-01T02:09:23Z</time>
      </trkpt>
      <trkpt lat="42.84135800" lon="12.51153000">
        <ele>424.00000</ele>
        <time>2010-01-01T02:09:26Z</time>
      </trkpt>
      <trkpt lat="42.84091900" lon="12.51187000">
        <ele>422.00000</ele>
        <time>2010-01-01T02:09:34Z</time>
      </trkpt>
      <trkpt lat="42.83898900" lon="12.51259000">
        <ele>415.00000</ele>
        <time>2010-01-01T02:10:06Z</time>
      </trkpt>
      <trkpt lat="42.83752800" lon="12.51331000">
        <ele>407.00000</ele>
        <time>2010-01-01T02:10:31Z</time>
      </trkpt>
      <trkpt lat="42.83721900" lon="12.51341000">
        <ele>407.00000</ele>
        <time>2010-01-01T02:10:36Z</time>
      </trkpt>
      <trkpt lat="42.83678800" lon="12.51331000">
        <ele>406.00000</ele>
        <time>2010-01-01T02:10:43Z</time>
      </trkpt>
      <trkpt lat="42.83580000" lon="12.51288000">
        <ele>412.00000</ele>
        <time>2010-01-01T02:11:00Z</time>
      </trkpt>
      <trkpt lat="42.83457200" lon="12.51245000">
        <ele>425.00000</ele>
        <time>2010-01-01T02:11:20Z</time>
      </trkpt>
      <trkpt lat="42.83437000" lon="12.51220000">
        <ele>428.00000</ele>
        <time>2010-01-01T02:11:25Z</time>
      </trkpt>
      <trkpt lat="42.83358000" lon="12.51083000">
        <ele>438.00000</ele>
        <time>2010-01-01T02:11:45Z</time>
      </trkpt>
      <trkpt lat="42.83334000" lon="12.51084000">
        <ele>437.00000</ele>
        <time>2010-01-01T02:11:49Z</time>
      </trkpt>
      <trkpt lat="42.83311100" lon="12.51103000">
        <ele>441.00000</ele>
        <time>2010-01-01T02:11:53Z</time>
      </trkpt>
      <trkpt lat="42.83306100" lon="12.51129000">
        <ele>443.00000</ele>
        <time>2010-01-01T02:11:56Z</time>
      </trkpt>
      <trkpt lat="42.83314100" lon="12.51143000">
        <ele>442.00000</ele>
        <time>2010-01-01T02:11:59Z</time>
      </trkpt>
      <trkpt lat="42.83324800" lon="12.51149000">
        <ele>441.00000</ele>
        <time>2010-01-01T02:12:00Z</time>
      </trkpt>
      <trkpt lat="42.83366000" lon="12.51157000">
        <ele>436.00000</ele>
        <time>2010-01-01T02:12:07Z</time>
      </trkpt>
      <trkpt lat="42.83380100" lon="12.51176000">
        <ele>434.00000</ele>
        <time>2010-01-01T02:12:10Z</time>
      </trkpt>
      <trkpt lat="42.83388100" lon="12.51201000">
        <ele>433.00000</ele>
        <time>2010-01-01T02:12:13Z</time>
      </trkpt>
      <trkpt lat="42.83388100" lon="12.51221000">
        <ele>433.00000</ele>
        <time>2010-01-01T02:12:16Z</time>
      </trkpt>
      <trkpt lat="42.83375900" lon="12.51250000">
        <ele>435.00000</ele>
        <time>2010-01-01T02:12:20Z</time>
      </trkpt>
      <trkpt lat="42.83366000" lon="12.51258000">
        <ele>435.00000</ele>
        <time>2010-01-01T02:12:22Z</time>
      </trkpt>
      <trkpt lat="42.83345000" lon="12.51268000">
        <ele>437.00000</ele>
        <time>2010-01-01T02:12:25Z</time>
      </trkpt>
      <trkpt lat="42.83303100" lon="12.51266000">
        <ele>440.00000</ele>
        <time>2010-01-01T02:12:32Z</time>
      </trkpt>
      <trkpt lat="42.83216100" lon="12.51232000">
        <ele>448.00000</ele>
        <time>2010-01-01T02:12:46Z</time>
      </trkpt>
      <trkpt lat="42.83192800" lon="12.51241000">
        <ele>449.00000</ele>
        <time>2010-01-01T02:12:50Z</time>
      </trkpt>
      <trkpt lat="42.83158900" lon="12.51265000">
        <ele>448.00000</ele>
        <time>2010-01-01T02:12:56Z</time>
      </trkpt>
      <trkpt lat="42.83147000" lon="12.51267000">
        <ele>448.00000</ele>
        <time>2010-01-01T02:12:58Z</time>
      </trkpt>
      <trkpt lat="42.83083000" lon="12.51254000">
        <ele>455.00000</ele>
        <time>2010-01-01T02:13:09Z</time>
      </trkpt>
      <trkpt lat="42.83066200" lon="12.51264000">
        <ele>455.00000</ele>
        <time>2010-01-01T02:13:12Z</time>
      </trkpt>
      <trkpt lat="42.83044100" lon="12.51302000">
        <ele>454.00000</ele>
        <time>2010-01-01T02:13:17Z</time>
      </trkpt>
      <trkpt lat="42.83013900" lon="12.51331000">
        <ele>455.00000</ele>
        <time>2010-01-01T02:13:23Z</time>
      </trkpt>
      <trkpt lat="42.82970800" lon="12.51344000">
        <ele>459.00000</ele>
        <time>2010-01-01T02:13:30Z</time>
      </trkpt>
      <trkpt lat="42.82926200" lon="12.51381000">
        <ele>457.00000</ele>
        <time>2010-01-01T02:13:39Z</time>
      </trkpt>
      <trkpt lat="42.82893000" lon="12.51389000">
        <ele>457.00000</ele>
        <time>2010-01-01T02:13:44Z</time>
      </trkpt>
      <trkpt lat="42.82788800" lon="12.51360000">
        <ele>463.00000</ele>
        <time>2010-01-01T02:14:01Z</time>
      </trkpt>
      <trkpt lat="42.82746100" lon="12.51357000">
        <ele>463.00000</ele>
        <time>2010-01-01T02:14:08Z</time>
      </trkpt>
      <trkpt lat="42.82701900" lon="12.51346000">
        <ele>464.00000</ele>
        <time>2010-01-01T02:14:15Z</time>
      </trkpt>
      <trkpt lat="42.82605000" lon="12.51265000">
        <ele>469.00000</ele>
        <time>2010-01-01T02:14:33Z</time>
      </trkpt>
      <trkpt lat="42.82595800" lon="12.51248000">
        <ele>470.00000</ele>
        <time>2010-01-01T02:14:36Z</time>
      </trkpt>
      <trkpt lat="42.82601900" lon="12.51181000">
        <ele>476.00000</ele>
        <time>2010-01-01T02:14:44Z</time>
      </trkpt>
      <trkpt lat="42.82601200" lon="12.51168000">
        <ele>477.00000</ele>
        <time>2010-01-01T02:14:45Z</time>
      </trkpt>
      <trkpt lat="42.82592000" lon="12.51147000">
        <ele>477.00000</ele>
        <time>2010-01-01T02:14:48Z</time>
      </trkpt>
      <trkpt lat="42.82460000" lon="12.50980000">
        <ele>479.00000</ele>
        <time>2010-01-01T02:15:17Z</time>
      </trkpt>
      <trkpt lat="42.82358200" lon="12.50815000">
        <ele>479.00000</ele>
        <time>2010-01-01T02:15:42Z</time>
      </trkpt>
      <trkpt lat="42.82175800" lon="12.50889000">
        <ele>479.00000</ele>
        <time>2010-01-01T02:16:13Z</time>
      </trkpt>
      <trkpt lat="42.82165100" lon="12.50898000">
        <ele>479.00000</ele>
        <time>2010-01-01T02:16:15Z</time>
      </trkpt>
      <trkpt lat="42.82143000" lon="12.50929000">
        <ele>480.00000</ele>
        <time>2010-01-01T02:16:20Z</time>
      </trkpt>
      <trkpt lat="42.82000000" lon="12.51341000">
        <ele>488.00000</ele>
        <time>2010-01-01T02:17:13Z</time>
      </trkpt>
      <trkpt lat="42.81983200" lon="12.51386000">
        <ele>490.00000</ele>
        <time>2010-01-01T02:17:19Z</time>
      </trkpt>
      <trkpt lat="42.81934000" lon="12.51485000">
        <ele>494.00000</ele>
        <time>2010-01-01T02:17:33Z</time>
      </trkpt>
      <trkpt lat="42.81919100" lon="12.51533000">
        <ele>498.00000</ele>
        <time>2010-01-01T02:17:39Z</time>
      </trkpt>
      <trkpt lat="42.81890100" lon="12.51666000">
        <ele>507.00000</ele>
        <time>2010-01-01T02:17:56Z</time>
      </trkpt>
      <trkpt lat="42.81874100" lon="12.51722000">
        <ele>508.00000</ele>
        <time>2010-01-01T02:18:03Z</time>
      </trkpt>
      <trkpt lat="42.81837100" lon="12.51802000">
        <ele>510.00000</ele>
        <time>2010-01-01T02:18:14Z</time>
      </trkpt>
      <trkpt lat="42.81702000" lon="12.52050000">
        <ele>528.00000</ele>
        <time>2010-01-01T02:18:50Z</time>
      </trkpt>
      <trkpt lat="42.81638000" lon="12.52202000">
        <ele>537.00000</ele>
        <time>2010-01-01T02:19:11Z</time>
      </trkpt>
      <trkpt lat="42.81621900" lon="12.52338000">
        <ele>544.00000</ele>
        <time>2010-01-01T02:19:27Z</time>
      </trkpt>
      <trkpt lat="42.81625000" lon="12.52388000">
        <ele>546.00000</ele>
        <time>2010-01-01T02:19:33Z</time>
      </trkpt>
      <trkpt lat="42.81646000" lon="12.52502000">
        <ele>549.00000</ele>
        <time>2010-01-01T02:19:47Z</time>
      </trkpt>
      <trkpt lat="42.81644100" lon="12.52543000">
        <ele>548.00000</ele>
        <time>2010-01-01T02:19:51Z</time>
      </trkpt>
      <trkpt lat="42.81634900" lon="12.52580000">
        <ele>548.00000</ele>
        <time>2010-01-01T02:19:56Z</time>
      </trkpt>
      <trkpt lat="42.81610900" lon="12.52616000">
        <ele>549.00000</ele>
        <time>2010-01-01T02:20:02Z</time>
      </trkpt>
      <trkpt lat="42.81517000" lon="12.52688000">
        <ele>550.00000</ele>
        <time>2010-01-01T02:20:19Z</time>
      </trkpt>
      <trkpt lat="42.81462900" lon="12.52770000">
        <ele>553.00000</ele>
        <time>2010-01-01T02:20:32Z</time>
      </trkpt>
      <trkpt lat="42.81517000" lon="12.52798000">
        <ele>555.00000</ele>
        <time>2010-01-01T02:20:41Z</time>
      </trkpt>
      <trkpt lat="42.81528900" lon="12.52812000">
        <ele>555.00000</ele>
        <time>2010-01-01T02:20:44Z</time>
      </trkpt>
      <trkpt lat="42.81531100" lon="12.52843000">
        <ele>555.00000</ele>
        <time>2010-01-01T02:20:47Z</time>
      </trkpt>
      <trkpt lat="42.81507100" lon="12.52936000">
        <ele>554.00000</ele>
        <time>2010-01-01T02:20:59Z</time>
      </trkpt>
      <trkpt lat="42.81504800" lon="12.52960000">
        <ele>554.00000</ele>
        <time>2010-01-01T02:21:02Z</time>
      </trkpt>
      <trkpt lat="42.81510200" lon="12.52985000">
        <ele>554.00000</ele>
        <time>2010-01-01T02:21:05Z</time>
      </trkpt>
      <trkpt lat="42.81518900" lon="12.53003000">
        <ele>554.00000</ele>
        <time>2010-01-01T02:21:07Z</time>
      </trkpt>
      <trkpt lat="42.81531900" lon="12.53017000">
        <ele>555.00000</ele>
        <time>2010-01-01T02:21:10Z</time>
      </trkpt>
      <trkpt lat="42.81544100" lon="12.53022000">
        <ele>555.00000</ele>
        <time>2010-01-01T02:21:12Z</time>
      </trkpt>
      <trkpt lat="42.81740200" lon="12.52984000">
        <ele>548.00000</ele>
        <time>2010-01-01T02:21:44Z</time>
      </trkpt>
      <trkpt lat="42.81819200" lon="12.52984000">
        <ele>547.00000</ele>
        <time>2010-01-01T02:21:56Z</time>
      </trkpt>
      <trkpt lat="42.81840900" lon="12.52989000">
        <ele>546.00000</ele>
        <time>2010-01-01T02:22:00Z</time>
      </trkpt>
      <trkpt lat="42.81998100" lon="12.53058000">
        <ele>539.00000</ele>
        <time>2010-01-01T02:22:26Z</time>
      </trkpt>
      <trkpt lat="42.82025100" lon="12.53065000">
        <ele>538.00000</ele>
        <time>2010-01-01T02:22:31Z</time>
      </trkpt>
      <trkpt lat="42.82048000" lon="12.53064000">
        <ele>537.00000</ele>
        <time>2010-01-01T02:22:35Z</time>
      </trkpt>
      <trkpt lat="42.82218200" lon="12.53021000">
        <ele>528.00000</ele>
        <time>2010-01-01T02:23:02Z</time>
      </trkpt>
      <trkpt lat="42.82587100" lon="12.53057000">
        <ele>522.00000</ele>
        <time>2010-01-01T02:24:01Z</time>
      </trkpt>
      <trkpt lat="42.82613000" lon="12.53070000">
        <ele>523.00000</ele>
        <time>2010-01-01T02:24:06Z</time>
      </trkpt>
      <trkpt lat="42.82709900" lon="12.53156000">
        <ele>524.00000</ele>
        <time>2010-01-01T02:24:24Z</time>
      </trkpt>
      <trkpt lat="42.82735100" lon="12.53172000">
        <ele>524.00000</ele>
        <time>2010-01-01T02:24:29Z</time>
      </trkpt>
      <trkpt lat="42.82838800" lon="12.53185000">
        <ele>518.00000</ele>
        <time>2010-01-01T02:24:45Z</time>
      </trkpt>
      <trkpt lat="42.82894100" lon="12.53209000">
        <ele>515.00000</ele>
        <time>2010-01-01T02:24:55Z</time>
      </trkpt>
      <trkpt lat="42.82918200" lon="12.53237000">
        <ele>514.00000</ele>
        <time>2010-01-01T02:25:00Z</time>
      </trkpt>
      <trkpt lat="42.82957100" lon="12.53311000">
        <ele>518.00000</ele>
        <time>2010-01-01T02:25:11Z</time>
      </trkpt>
      <trkpt lat="42.82986800" lon="12.53334000">
        <ele>517.00000</ele>
        <time>2010-01-01T02:25:16Z</time>
      </trkpt>
      <trkpt lat="42.83002900" lon="12.53335000">
        <ele>515.00000</ele>
        <time>2010-01-01T02:25:19Z</time>
      </trkpt>
      <trkpt lat="42.83039100" lon="12.53320000">
        <ele>511.00000</ele>
        <time>2010-01-01T02:25:25Z</time>
      </trkpt>
      <trkpt lat="42.83052800" lon="12.53320000">
        <ele>510.00000</ele>
        <time>2010-01-01T02:25:27Z</time>
      </trkpt>
      <trkpt lat="42.83134800" lon="12.53370000">
        <ele>509.00000</ele>
        <time>2010-01-01T02:25:41Z</time>
      </trkpt>
      <trkpt lat="42.83158900" lon="12.53376000">
        <ele>506.00000</ele>
        <time>2010-01-01T02:25:45Z</time>
      </trkpt>
      <trkpt lat="42.83174100" lon="12.53377000">
        <ele>505.00000</ele>
        <time>2010-01-01T02:25:48Z</time>
      </trkpt>
      <trkpt lat="42.83243200" lon="12.53352000">
        <ele>498.00000</ele>
        <time>2010-01-01T02:25:59Z</time>
      </trkpt>
      <trkpt lat="42.83269100" lon="12.53349000">
        <ele>496.00000</ele>
        <time>2010-01-01T02:26:03Z</time>
      </trkpt>
      <trkpt lat="42.83317900" lon="12.53364000">
        <ele>496.00000</ele>
        <time>2010-01-01T02:26:11Z</time>
      </trkpt>
      <trkpt lat="42.83351100" lon="12.53391000">
        <ele>497.00000</ele>
        <time>2010-01-01T02:26:17Z</time>
      </trkpt>
      <trkpt lat="42.83369100" lon="12.53396000">
        <ele>496.00000</ele>
        <time>2010-01-01T02:26:20Z</time>
      </trkpt>
      <trkpt lat="42.83385800" lon="12.53394000">
        <ele>495.00000</ele>
        <time>2010-01-01T02:26:23Z</time>
      </trkpt>
      <trkpt lat="42.83433900" lon="12.53375000">
        <ele>491.00000</ele>
        <time>2010-01-01T02:26:31Z</time>
      </trkpt>
      <trkpt lat="42.83443100" lon="12.53355000">
        <ele>489.00000</ele>
        <time>2010-01-01T02:26:34Z</time>
      </trkpt>
      <trkpt lat="42.83454900" lon="12.53289000">
        <ele>484.00000</ele>
        <time>2010-01-01T02:26:42Z</time>
      </trkpt>
      <trkpt lat="42.83467900" lon="12.53276000">
        <ele>483.00000</ele>
        <time>2010-01-01T02:26:44Z</time>
      </trkpt>
      <trkpt lat="42.83581900" lon="12.53254000">
        <ele>479.00000</ele>
        <time>2010-01-01T02:27:03Z</time>
      </trkpt>
      <trkpt lat="42.83597200" lon="12.53255000">
        <ele>478.00000</ele>
        <time>2010-01-01T02:27:05Z</time>
      </trkpt>
      <trkpt lat="42.83614000" lon="12.53266000">
        <ele>476.00000</ele>
        <time>2010-01-01T02:27:08Z</time>
      </trkpt>
      <trkpt lat="42.83663900" lon="12.53314000">
        <ele>472.00000</ele>
        <time>2010-01-01T02:27:18Z</time>
      </trkpt>
      <trkpt lat="42.83671200" lon="12.53330000">
        <ele>472.00000</ele>
        <time>2010-01-01T02:27:20Z</time>
      </trkpt>
      <trkpt lat="42.83670000" lon="12.53360000">
        <ele>471.00000</ele>
        <time>2010-01-01T02:27:24Z</time>
      </trkpt>
      <trkpt lat="42.83631100" lon="12.53435000">
        <ele>474.00000</ele>
        <time>2010-01-01T02:27:35Z</time>
      </trkpt>
      <trkpt lat="42.83636100" lon="12.53455000">
        <ele>475.00000</ele>
        <time>2010-01-01T02:27:37Z</time>
      </trkpt>
      <trkpt lat="42.83649800" lon="12.53468000">
        <ele>474.00000</ele>
        <time>2010-01-01T02:27:40Z</time>
      </trkpt>
      <trkpt lat="42.83676900" lon="12.53464000">
        <ele>473.00000</ele>
        <time>2010-01-01T02:27:44Z</time>
      </trkpt>
      <trkpt lat="42.83742900" lon="12.53431000">
        <ele>467.00000</ele>
        <time>2010-01-01T02:27:55Z</time>
      </trkpt>
      <trkpt lat="42.83768100" lon="12.53427000">
        <ele>465.00000</ele>
        <time>2010-01-01T02:27:59Z</time>
      </trkpt>
      <trkpt lat="42.83887100" lon="12.53444000">
        <ele>459.00000</ele>
        <time>2010-01-01T02:28:19Z</time>
      </trkpt>
      <trkpt lat="42.83935200" lon="12.53463000">
        <ele>457.00000</ele>
        <time>2010-01-01T02:28:27Z</time>
      </trkpt>
      <trkpt lat="42.83966800" lon="12.53485000">
        <ele>456.00000</ele>
        <time>2010-01-01T02:28:32Z</time>
      </trkpt>
      <trkpt lat="42.83974100" lon="12.53508000">
        <ele>456.00000</ele>
        <time>2010-01-01T02:28:35Z</time>
      </trkpt>
      <trkpt lat="42.83932900" lon="12.53652000">
        <ele>452.00000</ele>
        <time>2010-01-01T02:28:53Z</time>
      </trkpt>
      <trkpt lat="42.83935200" lon="12.53671000">
        <ele>451.00000</ele>
        <time>2010-01-01T02:28:56Z</time>
      </trkpt>
      <trkpt lat="42.83943200" lon="12.53690000">
        <ele>452.00000</ele>
        <time>2010-01-01T02:28:58Z</time>
      </trkpt>
      <trkpt lat="42.84027100" lon="12.53806000">
        <ele>446.00000</ele>
        <time>2010-01-01T02:29:17Z</time>
      </trkpt>
      <trkpt lat="42.84059100" lon="12.53843000">
        <ele>444.00000</ele>
        <time>2010-01-01T02:29:24Z</time>
      </trkpt>
      <trkpt lat="42.84077100" lon="12.53856000">
        <ele>442.00000</ele>
        <time>2010-01-01T02:29:27Z</time>
      </trkpt>
      <trkpt lat="42.84201800" lon="12.53911000">
        <ele>433.00000</ele>
        <time>2010-01-01T02:29:48Z</time>
      </trkpt>
      <trkpt lat="42.84233900" lon="12.53935000">
        <ele>432.00000</ele>
        <time>2010-01-01T02:29:54Z</time>
      </trkpt>
      <trkpt lat="42.84297200" lon="12.54012000">
        <ele>430.00000</ele>
        <time>2010-01-01T02:30:08Z</time>
      </trkpt>
      <trkpt lat="42.84378100" lon="12.54100000">
        <ele>428.00000</ele>
        <time>2010-01-01T02:30:24Z</time>
      </trkpt>
      <trkpt lat="42.84421200" lon="12.54168000">
        <ele>427.00000</ele>
        <time>2010-01-01T02:30:35Z</time>
      </trkpt>
      <trkpt lat="42.84465000" lon="12.54342000">
        <ele>423.00000</ele>
        <time>2010-01-01T02:30:56Z</time>
      </trkpt>
      <trkpt lat="42.84474200" lon="12.54402000">
        <ele>422.00000</ele>
        <time>2010-01-01T02:31:04Z</time>
      </trkpt>
      <trkpt lat="42.84473000" lon="12.54439000">
        <ele>421.00000</ele>
        <time>2010-01-01T02:31:08Z</time>
      </trkpt>
      <trkpt lat="42.84447100" lon="12.54512000">
        <ele>423.00000</ele>
        <time>2010-01-01T02:31:17Z</time>
      </trkpt>
      <trkpt lat="42.84445200" lon="12.54544000">
        <ele>425.00000</ele>
        <time>2010-01-01T02:31:21Z</time>
      </trkpt>
      <trkpt lat="42.84449000" lon="12.54567000">
        <ele>426.00000</ele>
        <time>2010-01-01T02:31:24Z</time>
      </trkpt>
      <trkpt lat="42.84458900" lon="12.54589000">
        <ele>426.00000</ele>
        <time>2010-01-01T02:31:27Z</time>
      </trkpt>
      <trkpt lat="42.84594000" lon="12.54767000">
        <ele>425.00000</ele>
        <time>2010-01-01T02:31:57Z</time>
      </trkpt>
      <trkpt lat="42.84788900" lon="12.55054000">
        <ele>418.00000</ele>
        <time>2010-01-01T02:32:43Z</time>
      </trkpt>
      <trkpt lat="42.84796900" lon="12.55073000">
        <ele>417.00000</ele>
        <time>2010-01-01T02:32:46Z</time>
      </trkpt>
      <trkpt lat="42.84822100" lon="12.55184000">
        <ele>416.00000</ele>
        <time>2010-01-01T02:32:59Z</time>
      </trkpt>
      <trkpt lat="42.84837000" lon="12.55226000">
        <ele>416.00000</ele>
        <time>2010-01-01T02:33:05Z</time>
      </trkpt>
      <trkpt lat="42.84846900" lon="12.55241000">
        <ele>416.00000</ele>
        <time>2010-01-01T02:33:07Z</time>
      </trkpt>
      <trkpt lat="42.84867900" lon="12.55256000">
        <ele>416.00000</ele>
        <time>2010-01-01T02:33:11Z</time>
      </trkpt>
      <trkpt lat="42.84906000" lon="12.55257000">
        <ele>415.00000</ele>
        <time>2010-01-01T02:33:17Z</time>
      </trkpt>
      <trkpt lat="42.84925100" lon="12.55247000">
        <ele>413.00000</ele>
        <time>2010-01-01T02:33:20Z</time>
      </trkpt>
      <trkpt lat="42.84946100" lon="12.55218000">
        <ele>411.00000</ele>
        <time>2010-01-01T02:33:25Z</time>
      </trkpt>
      <trkpt lat="42.84952200" lon="12.55265000">
        <ele>413.00000</ele>
        <time>2010-01-01T02:33:31Z</time>
      </trkpt>
      <trkpt lat="42.84952900" lon="12.55342000">
        <ele>418.00000</ele>
        <time>2010-01-01T02:33:40Z</time>
      </trkpt>
      <trkpt lat="42.84917100" lon="12.55418000">
        <ele>420.00000</ele>
        <time>2010-01-01T02:33:50Z</time>
      </trkpt>
      <trkpt lat="42.84904900" lon="12.55514000">
        <ele>414.00000</ele>
        <time>2010-01-01T02:34:02Z</time>
      </trkpt>
      <trkpt lat="42.84891100" lon="12.55542000">
        <ele>410.00000</ele>
        <time>2010-01-01T02:34:06Z</time>
      </trkpt>
      <trkpt lat="42.84843800" lon="12.55580000">
        <ele>407.00000</ele>
        <time>2010-01-01T02:34:15Z</time>
      </trkpt>
      <trkpt lat="42.84820200" lon="12.55593000">
        <ele>405.00000</ele>
        <time>2010-01-01T02:34:19Z</time>
      </trkpt>
      <trkpt lat="42.84753000" lon="12.55598000">
        <ele>405.00000</ele>
        <time>2010-01-01T02:34:29Z</time>
      </trkpt>
      <trkpt lat="42.84656100" lon="12.55585000">
        <ele>408.00000</ele>
        <time>2010-01-01T02:34:45Z</time>
      </trkpt>
      <trkpt lat="42.84645100" lon="12.55598000">
        <ele>408.00000</ele>
        <time>2010-01-01T02:34:47Z</time>
      </trkpt>
      <trkpt lat="42.84643900" lon="12.55614000">
        <ele>408.00000</ele>
        <time>2010-01-01T02:34:49Z</time>
      </trkpt>
      <trkpt lat="42.84671000" lon="12.55662000">
        <ele>403.00000</ele>
        <time>2010-01-01T02:34:56Z</time>
      </trkpt>
      <trkpt lat="42.84672900" lon="12.55681000">
        <ele>402.00000</ele>
        <time>2010-01-01T02:34:59Z</time>
      </trkpt>
      <trkpt lat="42.84653900" lon="12.55705000">
        <ele>404.00000</ele>
        <time>2010-01-01T02:35:03Z</time>
      </trkpt>
      <trkpt lat="42.84635900" lon="12.55715000">
        <ele>406.00000</ele>
        <time>2010-01-01T02:35:06Z</time>
      </trkpt>
      <trkpt lat="42.84616900" lon="12.55718000">
        <ele>408.00000</ele>
        <time>2010-01-01T02:35:09Z</time>
      </trkpt>
      <trkpt lat="42.84600800" lon="12.55714000">
        <ele>410.00000</ele>
        <time>2010-01-01T02:35:11Z</time>
      </trkpt>
      <trkpt lat="42.84528000" lon="12.55676000">
        <ele>419.00000</ele>
        <time>2010-01-01T02:35:24Z</time>
      </trkpt>
      <trkpt lat="42.84518800" lon="12.55685000">
        <ele>420.00000</ele>
        <time>2010-01-01T02:35:26Z</time>
      </trkpt>
      <trkpt lat="42.84516900" lon="12.55708000">
        <ele>420.00000</ele>
        <time>2010-01-01T02:35:28Z</time>
      </trkpt>
      <trkpt lat="42.84547000" lon="12.55780000">
        <ele>417.00000</ele>
        <time>2010-01-01T02:35:38Z</time>
      </trkpt>
      <trkpt lat="42.84548200" lon="12.55791000">
        <ele>417.00000</ele>
        <time>2010-01-01T02:35:40Z</time>
      </trkpt>
      <trkpt lat="42.84542100" lon="12.55809000">
        <ele>418.00000</ele>
        <time>2010-01-01T02:35:42Z</time>
      </trkpt>
      <trkpt lat="42.84511200" lon="12.55842000">
        <ele>419.00000</ele>
        <time>2010-01-01T02:35:48Z</time>
      </trkpt>
      <trkpt lat="42.84479900" lon="12.55858000">
        <ele>418.00000</ele>
        <time>2010-01-01T02:35:53Z</time>
      </trkpt>
      <trkpt lat="42.84433000" lon="12.55870000">
        <ele>416.00000</ele>
        <time>2010-01-01T02:36:01Z</time>
      </trkpt>
      <trkpt lat="42.84270100" lon="12.55865000">
        <ele>416.00000</ele>
        <time>2010-01-01T02:36:27Z</time>
      </trkpt>
      <trkpt lat="42.84259000" lon="12.55871000">
        <ele>416.00000</ele>
        <time>2010-01-01T02:36:29Z</time>
      </trkpt>
      <trkpt lat="42.84252200" lon="12.55890000">
        <ele>416.00000</ele>
        <time>2010-01-01T02:36:32Z</time>
      </trkpt>
      <trkpt lat="42.84249900" lon="12.55900000">
        <ele>416.00000</ele>
        <time>2010-01-01T02:36:33Z</time>
      </trkpt>
      <trkpt lat="42.84252900" lon="12.55911000">
        <ele>415.00000</ele>
        <time>2010-01-01T02:36:34Z</time>
      </trkpt>
      <trkpt lat="42.84299100" lon="12.55953000">
        <ele>416.00000</ele>
        <time>2010-01-01T02:36:43Z</time>
      </trkpt>
      <trkpt lat="42.84346000" lon="12.56020000">
        <ele>416.00000</ele>
        <time>2010-01-01T02:36:54Z</time>
      </trkpt>
      <trkpt lat="42.84351000" lon="12.56037000">
        <ele>418.00000</ele>
        <time>2010-01-01T02:36:56Z</time>
      </trkpt>
      <trkpt lat="42.84355200" lon="12.56088000">
        <ele>425.00000</ele>
        <time>2010-01-01T02:37:02Z</time>
      </trkpt>
      <trkpt lat="42.84429900" lon="12.56168000">
        <ele>419.00000</ele>
        <time>2010-01-01T02:37:17Z</time>
      </trkpt>
      <trkpt lat="42.84433000" lon="12.56180000">
        <ele>418.00000</ele>
        <time>2010-01-01T02:37:19Z</time>
      </trkpt>
      <trkpt lat="42.84426100" lon="12.56187000">
        <ele>419.00000</ele>
        <time>2010-01-01T02:37:20Z</time>
      </trkpt>
      <trkpt lat="42.84421900" lon="12.56185000">
        <ele>420.00000</ele>
        <time>2010-01-01T02:37:21Z</time>
      </trkpt>
      <trkpt lat="42.84405100" lon="12.56164000">
        <ele>423.00000</ele>
        <time>2010-01-01T02:37:25Z</time>
      </trkpt>
      <trkpt lat="42.84380000" lon="12.56145000">
        <ele>425.00000</ele>
        <time>2010-01-01T02:37:29Z</time>
      </trkpt>
      <trkpt lat="42.84357800" lon="12.56133000">
        <ele>429.00000</ele>
        <time>2010-01-01T02:37:33Z</time>
      </trkpt>
      <trkpt lat="42.84312800" lon="12.56120000">
        <ele>438.00000</ele>
        <time>2010-01-01T02:37:40Z</time>
      </trkpt>
      <trkpt lat="42.84299900" lon="12.56103000">
        <ele>440.00000</ele>
        <time>2010-01-01T02:37:43Z</time>
      </trkpt>
      <trkpt lat="42.84291100" lon="12.56069000">
        <ele>439.00000</ele>
        <time>2010-01-01T02:37:48Z</time>
      </trkpt>
      <trkpt lat="42.84283100" lon="12.56055000">
        <ele>438.00000</ele>
        <time>2010-01-01T02:37:50Z</time>
      </trkpt>
      <trkpt lat="42.84265900" lon="12.56038000">
        <ele>439.00000</ele>
        <time>2010-01-01T02:37:53Z</time>
      </trkpt>
      <trkpt lat="42.84228900" lon="12.56023000">
        <ele>442.00000</ele>
        <time>2010-01-01T02:37:59Z</time>
      </trkpt>
      <trkpt lat="42.84082000" lon="12.56008000">
        <ele>453.00000</ele>
        <time>2010-01-01T02:38:23Z</time>
      </trkpt>
      <trkpt lat="42.84074000" lon="12.56013000">
        <ele>455.00000</ele>
        <time>2010-01-01T02:38:24Z</time>
      </trkpt>
      <trkpt lat="42.84074000" lon="12.56025000">
        <ele>458.00000</ele>
        <time>2010-01-01T02:38:26Z</time>
      </trkpt>
      <trkpt lat="42.84082000" lon="12.56035000">
        <ele>460.00000</ele>
        <time>2010-01-01T02:38:27Z</time>
      </trkpt>
      <trkpt lat="42.84172100" lon="12.56055000">
        <ele>455.00000</ele>
        <time>2010-01-01T02:38:42Z</time>
      </trkpt>
      <trkpt lat="42.84220100" lon="12.56087000">
        <ele>456.00000</ele>
        <time>2010-01-01T02:38:50Z</time>
      </trkpt>
      <trkpt lat="42.84233100" lon="12.56105000">
        <ele>454.00000</ele>
        <time>2010-01-01T02:38:53Z</time>
      </trkpt>
      <trkpt lat="42.84236100" lon="12.56129000">
        <ele>453.00000</ele>
        <time>2010-01-01T02:38:56Z</time>
      </trkpt>
      <trkpt lat="42.84223200" lon="12.56144000">
        <ele>454.00000</ele>
        <time>2010-01-01T02:38:59Z</time>
      </trkpt>
      <trkpt lat="42.84206000" lon="12.56146000">
        <ele>456.00000</ele>
        <time>2010-01-01T02:39:02Z</time>
      </trkpt>
      <trkpt lat="42.84111000" lon="12.56101000">
        <ele>469.00000</ele>
        <time>2010-01-01T02:39:18Z</time>
      </trkpt>
      <trkpt lat="42.84064100" lon="12.56087000">
        <ele>474.00000</ele>
        <time>2010-01-01T02:39:26Z</time>
      </trkpt>
      <trkpt lat="42.83990900" lon="12.56084000">
        <ele>479.00000</ele>
        <time>2010-01-01T02:39:37Z</time>
      </trkpt>
      <trkpt lat="42.83877200" lon="12.56099000">
        <ele>470.00000</ele>
        <time>2010-01-01T02:39:56Z</time>
      </trkpt>
      <trkpt lat="42.83812000" lon="12.56092000">
        <ele>465.00000</ele>
        <time>2010-01-01T02:40:06Z</time>
      </trkpt>
      <trkpt lat="42.83779900" lon="12.56076000">
        <ele>464.00000</ele>
        <time>2010-01-01T02:40:12Z</time>
      </trkpt>
      <trkpt lat="42.83643000" lon="12.55976000">
        <ele>475.00000</ele>
        <time>2010-01-01T02:40:36Z</time>
      </trkpt>
      <trkpt lat="42.83631100" lon="12.55975000">
        <ele>476.00000</ele>
        <time>2010-01-01T02:40:38Z</time>
      </trkpt>
      <trkpt lat="42.83604800" lon="12.56000000">
        <ele>478.00000</ele>
        <time>2010-01-01T02:40:43Z</time>
      </trkpt>
      <trkpt lat="42.83535000" lon="12.56159000">
        <ele>483.00000</ele>
        <time>2010-01-01T02:41:05Z</time>
      </trkpt>
      <trkpt lat="42.83483900" lon="12.56248000">
        <ele>486.00000</ele>
        <time>2010-01-01T02:41:18Z</time>
      </trkpt>
      <trkpt lat="42.83470900" lon="12.56256000">
        <ele>488.00000</ele>
        <time>2010-01-01T02:41:21Z</time>
      </trkpt>
      <trkpt lat="42.83441200" lon="12.56259000">
        <ele>493.00000</ele>
        <time>2010-01-01T02:41:26Z</time>
      </trkpt>
      <trkpt lat="42.83425100" lon="12.56253000">
        <ele>495.00000</ele>
        <time>2010-01-01T02:41:28Z</time>
      </trkpt>
      <trkpt lat="42.83398100" lon="12.56231000">
        <ele>500.00000</ele>
        <time>2010-01-01T02:41:33Z</time>
      </trkpt>
      <trkpt lat="42.83388900" lon="12.56234000">
        <ele>502.00000</ele>
        <time>2010-01-01T02:41:35Z</time>
      </trkpt>
      <trkpt lat="42.83385800" lon="12.56254000">
        <ele>501.00000</ele>
        <time>2010-01-01T02:41:37Z</time>
      </trkpt>
      <trkpt lat="42.83396100" lon="12.56294000">
        <ele>502.00000</ele>
        <time>2010-01-01T02:41:42Z</time>
      </trkpt>
      <trkpt lat="42.83420200" lon="12.56348000">
        <ele>501.00000</ele>
        <time>2010-01-01T02:41:50Z</time>
      </trkpt>
      <trkpt lat="42.83451800" lon="12.56400000">
        <ele>496.00000</ele>
        <time>2010-01-01T02:41:57Z</time>
      </trkpt>
      <trkpt lat="42.83440000" lon="12.56408000">
        <ele>497.00000</ele>
        <time>2010-01-01T02:42:00Z</time>
      </trkpt>
      <trkpt lat="42.83429000" lon="12.56403000">
        <ele>497.00000</ele>
        <time>2010-01-01T02:42:01Z</time>
      </trkpt>
      <trkpt lat="42.83391200" lon="12.56358000">
        <ele>503.00000</ele>
        <time>2010-01-01T02:42:09Z</time>
      </trkpt>
      <trkpt lat="42.83314900" lon="12.56295000">
        <ele>514.00000</ele>
        <time>2010-01-01T02:42:24Z</time>
      </trkpt>
      <trkpt lat="42.83274800" lon="12.56245000">
        <ele>523.00000</ele>
        <time>2010-01-01T02:42:32Z</time>
      </trkpt>
      <trkpt lat="42.83261100" lon="12.56203000">
        <ele>526.00000</ele>
        <time>2010-01-01T02:42:38Z</time>
      </trkpt>
      <trkpt lat="42.83250000" lon="12.56194000">
        <ele>529.00000</ele>
        <time>2010-01-01T02:42:40Z</time>
      </trkpt>
      <trkpt lat="42.83243200" lon="12.56208000">
        <ele>530.00000</ele>
        <time>2010-01-01T02:42:42Z</time>
      </trkpt>
      <trkpt lat="42.83258100" lon="12.56288000">
        <ele>523.00000</ele>
        <time>2010-01-01T02:42:52Z</time>
      </trkpt>
      <trkpt lat="42.83252000" lon="12.56307000">
        <ele>522.00000</ele>
        <time>2010-01-01T02:42:54Z</time>
      </trkpt>
      <trkpt lat="42.83243200" lon="12.56314000">
        <ele>523.00000</ele>
        <time>2010-01-01T02:42:56Z</time>
      </trkpt>
      <trkpt lat="42.83223000" lon="12.56312000">
        <ele>525.00000</ele>
        <time>2010-01-01T02:42:59Z</time>
      </trkpt>
      <trkpt lat="42.83142100" lon="12.56266000">
        <ele>542.00000</ele>
        <time>2010-01-01T02:43:13Z</time>
      </trkpt>
      <trkpt lat="42.83129900" lon="12.56275000">
        <ele>542.00000</ele>
        <time>2010-01-01T02:43:15Z</time>
      </trkpt>
      <trkpt lat="42.83116900" lon="12.56311000">
        <ele>538.00000</ele>
        <time>2010-01-01T02:43:20Z</time>
      </trkpt>
      <trkpt lat="42.83105900" lon="12.56324000">
        <ele>538.00000</ele>
        <time>2010-01-01T02:43:22Z</time>
      </trkpt>
      <trkpt lat="42.83052100" lon="12.56324000">
        <ele>546.00000</ele>
        <time>2010-01-01T02:43:31Z</time>
      </trkpt>
      <trkpt lat="42.83039900" lon="12.56338000">
        <ele>546.00000</ele>
        <time>2010-01-01T02:43:33Z</time>
      </trkpt>
      <trkpt lat="42.83029900" lon="12.56362000">
        <ele>547.00000</ele>
        <time>2010-01-01T02:43:37Z</time>
      </trkpt>
      <trkpt lat="42.83013200" lon="12.56462000">
        <ele>545.00000</ele>
        <time>2010-01-01T02:43:49Z</time>
      </trkpt>
      <trkpt lat="42.83007800" lon="12.56471000">
        <ele>545.00000</ele>
        <time>2010-01-01T02:43:50Z</time>
      </trkpt>
      <trkpt lat="42.82997100" lon="12.56478000">
        <ele>545.00000</ele>
        <time>2010-01-01T02:43:52Z</time>
      </trkpt>
      <trkpt lat="42.82973100" lon="12.56478000">
        <ele>542.00000</ele>
        <time>2010-01-01T02:43:56Z</time>
      </trkpt>
      <trkpt lat="42.82941100" lon="12.56459000">
        <ele>543.00000</ele>
        <time>2010-01-01T02:44:01Z</time>
      </trkpt>
      <trkpt lat="42.82926200" lon="12.56436000">
        <ele>547.00000</ele>
        <time>2010-01-01T02:44:05Z</time>
      </trkpt>
      <trkpt lat="42.82848000" lon="12.56356000">
        <ele>558.00000</ele>
        <time>2010-01-01T02:44:21Z</time>
      </trkpt>
      <trkpt lat="42.82815200" lon="12.56312000">
        <ele>570.00000</ele>
        <time>2010-01-01T02:44:28Z</time>
      </trkpt>
      <trkpt lat="42.82804900" lon="12.56312000">
        <ele>571.00000</ele>
        <time>2010-01-01T02:44:30Z</time>
      </trkpt>
      <trkpt lat="42.82794200" lon="12.56329000">
        <ele>567.00000</ele>
        <time>2010-01-01T02:44:32Z</time>
      </trkpt>
      <trkpt lat="42.82791900" lon="12.56356000">
        <ele>565.00000</ele>
        <time>2010-01-01T02:44:35Z</time>
      </trkpt>
      <trkpt lat="42.82812100" lon="12.56501000">
        <ele>556.00000</ele>
        <time>2010-01-01T02:44:53Z</time>
      </trkpt>
      <trkpt lat="42.82811000" lon="12.56531000">
        <ele>555.00000</ele>
        <time>2010-01-01T02:44:56Z</time>
      </trkpt>
      <trkpt lat="42.82799100" lon="12.56563000">
        <ele>557.00000</ele>
        <time>2010-01-01T02:45:01Z</time>
      </trkpt>
      <trkpt lat="42.82749900" lon="12.56639000">
        <ele>566.00000</ele>
        <time>2010-01-01T02:45:12Z</time>
      </trkpt>
      <trkpt lat="42.82746900" lon="12.56650000">
        <ele>565.00000</ele>
        <time>2010-01-01T02:45:14Z</time>
      </trkpt>
      <trkpt lat="42.82748000" lon="12.56656000">
        <ele>564.00000</ele>
        <time>2010-01-01T02:45:15Z</time>
      </trkpt>
      <trkpt lat="42.82785000" lon="12.56690000">
        <ele>557.00000</ele>
        <time>2010-01-01T02:45:22Z</time>
      </trkpt>
      <trkpt lat="42.82836200" lon="12.56765000">
        <ele>552.00000</ele>
        <time>2010-01-01T02:45:34Z</time>
      </trkpt>
      <trkpt lat="42.82881200" lon="12.56819000">
        <ele>549.00000</ele>
        <time>2010-01-01T02:45:43Z</time>
      </trkpt>
      <trkpt lat="42.82907100" lon="12.56858000">
        <ele>548.00000</ele>
        <time>2010-01-01T02:45:49Z</time>
      </trkpt>
      <trkpt lat="42.82955200" lon="12.56880000">
        <ele>545.00000</ele>
        <time>2010-01-01T02:45:58Z</time>
      </trkpt>
      <trkpt lat="42.83026100" lon="12.56939000">
        <ele>547.00000</ele>
        <time>2010-01-01T02:46:11Z</time>
      </trkpt>
      <trkpt lat="42.83060100" lon="12.56954000">
        <ele>544.00000</ele>
        <time>2010-01-01T02:46:17Z</time>
      </trkpt>
      <trkpt lat="42.83071900" lon="12.56965000">
        <ele>545.00000</ele>
        <time>2010-01-01T02:46:19Z</time>
      </trkpt>
      <trkpt lat="42.83097800" lon="12.57015000">
        <ele>548.00000</ele>
        <time>2010-01-01T02:46:26Z</time>
      </trkpt>
      <trkpt lat="42.83108900" lon="12.57123000">
        <ele>558.00000</ele>
        <time>2010-01-01T02:46:39Z</time>
      </trkpt>
      <trkpt lat="42.83113100" lon="12.57141000">
        <ele>559.00000</ele>
        <time>2010-01-01T02:46:41Z</time>
      </trkpt>
      <trkpt lat="42.83121100" lon="12.57152000">
        <ele>560.00000</ele>
        <time>2010-01-01T02:46:43Z</time>
      </trkpt>
      <trkpt lat="42.83142900" lon="12.57162000">
        <ele>559.00000</ele>
        <time>2010-01-01T02:46:47Z</time>
      </trkpt>
      <trkpt lat="42.83229800" lon="12.57185000">
        <ele>558.00000</ele>
        <time>2010-01-01T02:47:01Z</time>
      </trkpt>
      <trkpt lat="42.83248100" lon="12.57201000">
        <ele>560.00000</ele>
        <time>2010-01-01T02:47:04Z</time>
      </trkpt>
      <trkpt lat="42.83345000" lon="12.57317000">
        <ele>558.00000</ele>
        <time>2010-01-01T02:47:25Z</time>
      </trkpt>
      <trkpt lat="42.83364900" lon="12.57380000">
        <ele>551.00000</ele>
        <time>2010-01-01T02:47:33Z</time>
      </trkpt>
      <trkpt lat="42.83367200" lon="12.57399000">
        <ele>549.00000</ele>
        <time>2010-01-01T02:47:35Z</time>
      </trkpt>
      <trkpt lat="42.83364100" lon="12.57420000">
        <ele>548.00000</ele>
        <time>2010-01-01T02:47:38Z</time>
      </trkpt>
      <trkpt lat="42.83340800" lon="12.57458000">
        <ele>550.00000</ele>
        <time>2010-01-01T02:47:44Z</time>
      </trkpt>
      <trkpt lat="42.83338900" lon="12.57473000">
        <ele>549.00000</ele>
        <time>2010-01-01T02:47:45Z</time>
      </trkpt>
      <trkpt lat="42.83377800" lon="12.57613000">
        <ele>536.00000</ele>
        <time>2010-01-01T02:48:03Z</time>
      </trkpt>
      <trkpt lat="42.83382000" lon="12.57661000">
        <ele>534.00000</ele>
        <time>2010-01-01T02:48:09Z</time>
      </trkpt>
    </trkseg>
    <trkseg>
      <trkpt lat="42.83382000" lon="12.57661000">
        <ele>534.00000</ele>
        <time>2010-01-01T02:48:09Z</time>
      </trkpt>
      <trkpt lat="42.83383200" lon="12.57675000">
        <ele>534.00000</ele>
        <time>2010-01-01T02:48:10Z</time>
      </trkpt>
      <trkpt lat="42.83348800" lon="12.57688000">
        <ele>537.00000</ele>
        <time>2010-01-01T02:48:16Z</time>
      </trkpt>
      <trkpt lat="42.83298100" lon="12.57734000">
        <ele>533.00000</ele>
        <time>2010-01-01T02:48:26Z</time>
      </trkpt>
      <trkpt lat="42.83284000" lon="12.57763000">
        <ele>530.00000</ele>
        <time>2010-01-01T02:48:30Z</time>
      </trkpt>
      <trkpt lat="42.83285100" lon="12.57794000">
        <ele>528.00000</ele>
        <time>2010-01-01T02:48:33Z</time>
      </trkpt>
      <trkpt lat="42.83303100" lon="12.57837000">
        <ele>529.00000</ele>
        <time>2010-01-01T02:48:39Z</time>
      </trkpt>
      <trkpt lat="42.83327100" lon="12.57859000">
        <ele>528.00000</ele>
        <time>2010-01-01T02:48:44Z</time>
      </trkpt>
      <trkpt lat="42.83375200" lon="12.57885000">
        <ele>522.00000</ele>
        <time>2010-01-01T02:48:52Z</time>
      </trkpt>
      <trkpt lat="42.83435800" lon="12.57902000">
        <ele>515.00000</ele>
        <time>2010-01-01T02:49:02Z</time>
      </trkpt>
      <trkpt lat="42.83429000" lon="12.57933000">
        <ele>513.00000</ele>
        <time>2010-01-01T02:49:06Z</time>
      </trkpt>
      <trkpt lat="42.83429000" lon="12.57952000">
        <ele>510.00000</ele>
        <time>2010-01-01T02:49:08Z</time>
      </trkpt>
      <trkpt lat="42.83459900" lon="12.58020000">
        <ele>500.00000</ele>
        <time>2010-01-01T02:49:18Z</time>
      </trkpt>
      <trkpt lat="42.83461000" lon="12.58058000">
        <ele>496.00000</ele>
        <time>2010-01-01T02:49:22Z</time>
      </trkpt>
      <trkpt lat="42.83456000" lon="12.58066000">
        <ele>495.00000</ele>
        <time>2010-01-01T02:49:23Z</time>
      </trkpt>
      <trkpt lat="42.83425900" lon="12.58071000">
        <ele>495.00000</ele>
        <time>2010-01-01T02:49:28Z</time>
      </trkpt>
      <trkpt lat="42.83422900" lon="12.58082000">
        <ele>493.00000</ele>
        <time>2010-01-01T02:49:29Z</time>
      </trkpt>
      <trkpt lat="42.83449200" lon="12.58122000">
        <ele>487.00000</ele>
        <time>2010-01-01T02:49:36Z</time>
      </trkpt>
      <trkpt lat="42.83494200" lon="12.58140000">
        <ele>484.00000</ele>
        <time>2010-01-01T02:49:43Z</time>
      </trkpt>
      <trkpt lat="42.83570900" lon="12.58151000">
        <ele>475.00000</ele>
        <time>2010-01-01T02:49:56Z</time>
      </trkpt>
      <trkpt lat="42.83588000" lon="12.58141000">
        <ele>474.00000</ele>
        <time>2010-01-01T02:49:59Z</time>
      </trkpt>
      <trkpt lat="42.83617000" lon="12.58109000">
        <ele>471.00000</ele>
        <time>2010-01-01T02:50:05Z</time>
      </trkpt>
      <trkpt lat="42.83641100" lon="12.58126000">
        <ele>467.00000</ele>
        <time>2010-01-01T02:50:09Z</time>
      </trkpt>
      <trkpt lat="42.83636100" lon="12.58151000">
        <ele>468.00000</ele>
        <time>2010-01-01T02:50:12Z</time>
      </trkpt>
      <trkpt lat="42.83578100" lon="12.58224000">
        <ele>462.00000</ele>
        <time>2010-01-01T02:50:25Z</time>
      </trkpt>
      <trkpt lat="42.83575800" lon="12.58244000">
        <ele>459.00000</ele>
        <time>2010-01-01T02:50:27Z</time>
      </trkpt>
      <trkpt lat="42.83583100" lon="12.58263000">
        <ele>456.00000</ele>
        <time>2010-01-01T02:50:30Z</time>
      </trkpt>
      <trkpt lat="42.83617000" lon="12.58292000">
        <ele>455.00000</ele>
        <time>2010-01-01T02:50:36Z</time>
      </trkpt>
      <trkpt lat="42.83646000" lon="12.58343000">
        <ele>450.00000</ele>
        <time>2010-01-01T02:50:43Z</time>
      </trkpt>
      <trkpt lat="42.83670000" lon="12.58355000">
        <ele>448.00000</ele>
        <time>2010-01-01T02:50:48Z</time>
      </trkpt>
      <trkpt lat="42.83731100" lon="12.58355000">
        <ele>446.00000</ele>
        <time>2010-01-01T02:50:57Z</time>
      </trkpt>
      <trkpt lat="42.83800900" lon="12.58337000">
        <ele>443.00000</ele>
        <time>2010-01-01T02:51:09Z</time>
      </trkpt>
      <trkpt lat="42.83863100" lon="12.58330000">
        <ele>437.00000</ele>
        <time>2010-01-01T02:51:19Z</time>
      </trkpt>
      <trkpt lat="42.83890200" lon="12.58345000">
        <ele>433.00000</ele>
        <time>2010-01-01T02:51:23Z</time>
      </trkpt>
      <trkpt lat="42.84016000" lon="12.58443000">
        <ele>431.00000</ele>
        <time>2010-01-01T02:51:47Z</time>
      </trkpt>
      <trkpt lat="42.84072900" lon="12.58464000">
        <ele>433.00000</ele>
        <time>2010-01-01T02:51:56Z</time>
      </trkpt>
      <trkpt lat="42.84138900" lon="12.58494000">
        <ele>433.00000</ele>
        <time>2010-01-01T02:52:07Z</time>
      </trkpt>
      <trkpt lat="42.84252900" lon="12.58583000">
        <ele>427.00000</ele>
        <time>2010-01-01T02:52:28Z</time>
      </trkpt>
      <trkpt lat="42.84299900" lon="12.58630000">
        <ele>420.00000</ele>
        <time>2010-01-01T02:52:38Z</time>
      </trkpt>
      <trkpt lat="42.84410100" lon="12.58754000">
        <ele>414.00000</ele>
        <time>2010-01-01T02:53:00Z</time>
      </trkpt>
      <trkpt lat="42.84566900" lon="12.58850000">
        <ele>406.00000</ele>
        <time>2010-01-01T02:53:28Z</time>
      </trkpt>
      <trkpt lat="42.84555800" lon="12.58881000">
        <ele>404.00000</ele>
        <time>2010-01-01T02:53:32Z</time>
      </trkpt>
      <trkpt lat="42.84540900" lon="12.58904000">
        <ele>402.00000</ele>
        <time>2010-01-01T02:53:36Z</time>
      </trkpt>
      <trkpt lat="42.84388000" lon="12.59088000">
        <ele>389.00000</ele>
        <time>2010-01-01T02:54:08Z</time>
      </trkpt>
      <trkpt lat="42.84354000" lon="12.59191000">
        <ele>390.00000</ele>
        <time>2010-01-01T02:54:22Z</time>
      </trkpt>
      <trkpt lat="42.84320800" lon="12.59331000">
        <ele>393.00000</ele>
        <time>2010-01-01T02:54:39Z</time>
      </trkpt>
      <trkpt lat="42.84310200" lon="12.59410000">
        <ele>391.00000</ele>
        <time>2010-01-01T02:54:48Z</time>
      </trkpt>
      <trkpt lat="42.84289900" lon="12.59464000">
        <ele>390.00000</ele>
        <time>2010-01-01T02:54:55Z</time>
      </trkpt>
      <trkpt lat="42.84260900" lon="12.59505000">
        <ele>388.00000</ele>
        <time>2010-01-01T02:55:02Z</time>
      </trkpt>
      <trkpt lat="42.84304800" lon="12.59570000">
        <ele>388.00000</ele>
        <time>2010-01-01T02:55:12Z</time>
      </trkpt>
      <trkpt lat="42.84359000" lon="12.59620000">
        <ele>388.00000</ele>
        <time>2010-01-01T02:55:23Z</time>
      </trkpt>
      <trkpt lat="42.84380000" lon="12.59637000">
        <ele>386.00000</ele>
        <time>2010-01-01T02:55:27Z</time>
      </trkpt>
      <trkpt lat="42.84431800" lon="12.59663000">
        <ele>384.00000</ele>
        <time>2010-01-01T02:55:36Z</time>
      </trkpt>
      <trkpt lat="42.84491000" lon="12.59685000">
        <ele>383.00000</ele>
        <time>2010-01-01T02:55:45Z</time>
      </trkpt>
      <trkpt lat="42.84516100" lon="12.59706000">
        <ele>381.00000</ele>
        <time>2010-01-01T02:55:50Z</time>
      </trkpt>
      <trkpt lat="42.84566900" lon="12.59769000">
        <ele>378.00000</ele>
        <time>2010-01-01T02:56:01Z</time>
      </trkpt>
      <trkpt lat="42.84616900" lon="12.59833000">
        <ele>376.00000</ele>
        <time>2010-01-01T02:56:12Z</time>
      </trkpt>
      <trkpt lat="42.84653900" lon="12.59864000">
        <ele>374.00000</ele>
        <time>2010-01-01T02:56:19Z</time>
      </trkpt>
      <trkpt lat="42.84748800" lon="12.59919000">
        <ele>372.00000</ele>
        <time>2010-01-01T02:56:36Z</time>
      </trkpt>
      <trkpt lat="42.84791900" lon="12.59932000">
        <ele>369.00000</ele>
        <time>2010-01-01T02:56:43Z</time>
      </trkpt>
      <trkpt lat="42.84827000" lon="12.59936000">
        <ele>367.00000</ele>
        <time>2010-01-01T02:56:48Z</time>
      </trkpt>
      <trkpt lat="42.84875900" lon="12.59966000">
        <ele>365.00000</ele>
        <time>2010-01-01T02:56:57Z</time>
      </trkpt>
      <trkpt lat="42.85055900" lon="12.60099000">
        <ele>360.00000</ele>
        <time>2010-01-01T02:57:30Z</time>
      </trkpt>
      <trkpt lat="42.85076900" lon="12.60129000">
        <ele>359.00000</ele>
        <time>2010-01-01T02:57:35Z</time>
      </trkpt>
      <trkpt lat="42.85115800" lon="12.60226000">
        <ele>356.00000</ele>
        <time>2010-01-01T02:57:48Z</time>
      </trkpt>
      <trkpt lat="42.85200100" lon="12.60380000">
        <ele>350.00000</ele>
        <time>2010-01-01T02:58:10Z</time>
      </trkpt>
      <trkpt lat="42.85400000" lon="12.60632000">
        <ele>342.00000</ele>
        <time>2010-01-01T02:58:54Z</time>
      </trkpt>
      <trkpt lat="42.85292100" lon="12.60766000">
        <ele>335.00000</ele>
        <time>2010-01-01T02:59:17Z</time>
      </trkpt>
      <trkpt lat="42.85266900" lon="12.60859000">
        <ele>333.00000</ele>
        <time>2010-01-01T02:59:29Z</time>
      </trkpt>
      <trkpt lat="42.85255100" lon="12.60946000">
        <ele>333.00000</ele>
        <time>2010-01-01T02:59:39Z</time>
      </trkpt>
      <trkpt lat="42.85292800" lon="12.61179000">
        <ele>340.00000</ele>
        <time>2010-01-01T03:00:07Z</time>
      </trkpt>
      <trkpt lat="42.85263800" lon="12.61351000">
        <ele>344.00000</ele>
        <time>2010-01-01T03:00:28Z</time>
      </trkpt>
      <trkpt lat="42.85226100" lon="12.61422000">
        <ele>342.00000</ele>
        <time>2010-01-01T03:00:38Z</time>
      </trkpt>
      <trkpt lat="42.85157000" lon="12.61477000">
        <ele>342.00000</ele>
        <time>2010-01-01T03:00:51Z</time>
      </trkpt>
      <trkpt lat="42.85139100" lon="12.61500000">
        <ele>341.00000</ele>
        <time>2010-01-01T03:00:55Z</time>
      </trkpt>
      <trkpt lat="42.85121200" lon="12.61556000">
        <ele>343.00000</ele>
        <time>2010-01-01T03:01:02Z</time>
      </trkpt>
      <trkpt lat="42.85113900" lon="12.61613000">
        <ele>345.00000</ele>
        <time>2010-01-01T03:01:09Z</time>
      </trkpt>
      <trkpt lat="42.85105100" lon="12.61647000">
        <ele>346.00000</ele>
        <time>2010-01-01T03:01:13Z</time>
      </trkpt>
      <trkpt lat="42.85002100" lon="12.61872000">
        <ele>345.00000</ele>
        <time>2010-01-01T03:01:44Z</time>
      </trkpt>
      <trkpt lat="42.84983800" lon="12.61936000">
        <ele>345.00000</ele>
        <time>2010-01-01T03:01:52Z</time>
      </trkpt>
      <trkpt lat="42.84975800" lon="12.62017000">
        <ele>344.00000</ele>
        <time>2010-01-01T03:02:02Z</time>
      </trkpt>
      <trkpt lat="42.84975800" lon="12.62098000">
        <ele>343.00000</ele>
        <time>2010-01-01T03:02:11Z</time>
      </trkpt>
      <trkpt lat="42.84981200" lon="12.62172000">
        <ele>342.00000</ele>
        <time>2010-01-01T03:02:20Z</time>
      </trkpt>
      <trkpt lat="42.84988000" lon="12.62225000">
        <ele>340.00000</ele>
        <time>2010-01-01T03:02:26Z</time>
      </trkpt>
      <trkpt lat="42.85031100" lon="12.62420000">
        <ele>332.00000</ele>
        <time>2010-01-01T03:02:50Z</time>
      </trkpt>
      <trkpt lat="42.85031100" lon="12.62454000">
        <ele>331.00000</ele>
        <time>2010-01-01T03:02:54Z</time>
      </trkpt>
      <trkpt lat="42.85025000" lon="12.62488000">
        <ele>329.00000</ele>
        <time>2010-01-01T03:02:58Z</time>
      </trkpt>
      <trkpt lat="42.84993000" lon="12.62542000">
        <ele>331.00000</ele>
        <time>2010-01-01T03:03:07Z</time>
      </trkpt>
      <trkpt lat="42.84960900" lon="12.62567000">
        <ele>333.00000</ele>
        <time>2010-01-01T03:03:12Z</time>
      </trkpt>
      <trkpt lat="42.84772100" lon="12.62616000">
        <ele>339.00000</ele>
        <time>2010-01-01T03:03:43Z</time>
      </trkpt>
      <trkpt lat="42.84759900" lon="12.62622000">
        <ele>339.00000</ele>
        <time>2010-01-01T03:03:45Z</time>
      </trkpt>
      <trkpt lat="42.84748800" lon="12.62638000">
        <ele>340.00000</ele>
        <time>2010-01-01T03:03:48Z</time>
      </trkpt>
      <trkpt lat="42.84745000" lon="12.62676000">
        <ele>342.00000</ele>
        <time>2010-01-01T03:03:52Z</time>
      </trkpt>
      <trkpt lat="42.84751100" lon="12.62713000">
        <ele>343.00000</ele>
        <time>2010-01-01T03:03:57Z</time>
      </trkpt>
      <trkpt lat="42.84771000" lon="12.62759000">
        <ele>345.00000</ele>
        <time>2010-01-01T03:04:03Z</time>
      </trkpt>
      <trkpt lat="42.84775900" lon="12.62798000">
        <ele>346.00000</ele>
        <time>2010-01-01T03:04:08Z</time>
      </trkpt>
      <trkpt lat="42.84774000" lon="12.62832000">
        <ele>347.00000</ele>
        <time>2010-01-01T03:04:12Z</time>
      </trkpt>
      <trkpt lat="42.84613000" lon="12.63451000">
        <ele>337.00000</ele>
        <time>2010-01-01T03:05:29Z</time>
      </trkpt>
      <trkpt lat="42.84592100" lon="12.63491000">
        <ele>336.00000</ele>
        <time>2010-01-01T03:05:35Z</time>
      </trkpt>
      <trkpt lat="42.84571100" lon="12.63510000">
        <ele>334.00000</ele>
        <time>2010-01-01T03:05:39Z</time>
      </trkpt>
      <trkpt lat="42.84550100" lon="12.63519000">
        <ele>334.00000</ele>
        <time>2010-01-01T03:05:42Z</time>
      </trkpt>
      <trkpt lat="42.84500100" lon="12.63521000">
        <ele>333.00000</ele>
        <time>2010-01-01T03:05:50Z</time>
      </trkpt>
      <trkpt lat="42.84458900" lon="12.63532000">
        <ele>334.00000</ele>
        <time>2010-01-01T03:05:57Z</time>
      </trkpt>
      <trkpt lat="42.84357100" lon="12.63611000">
        <ele>337.00000</ele>
        <time>2010-01-01T03:06:16Z</time>
      </trkpt>
      <trkpt lat="42.84307900" lon="12.63660000">
        <ele>338.00000</ele>
        <time>2010-01-01T03:06:25Z</time>
      </trkpt>
      <trkpt lat="42.84273100" lon="12.63711000">
        <ele>339.00000</ele>
        <time>2010-01-01T03:06:34Z</time>
      </trkpt>
      <trkpt lat="42.84230000" lon="12.63811000">
        <ele>338.00000</ele>
        <time>2010-01-01T03:06:47Z</time>
      </trkpt>
      <trkpt lat="42.84180100" lon="12.63983000">
        <ele>337.00000</ele>
        <time>2010-01-01T03:07:09Z</time>
      </trkpt>
      <trkpt lat="42.84167900" lon="12.64040000">
        <ele>339.00000</ele>
        <time>2010-01-01T03:07:16Z</time>
      </trkpt>
      <trkpt lat="42.84159900" lon="12.64160000">
        <ele>339.00000</ele>
        <time>2010-01-01T03:07:30Z</time>
      </trkpt>
      <trkpt lat="42.84159900" lon="12.64201000">
        <ele>340.00000</ele>
        <time>2010-01-01T03:07:35Z</time>
      </trkpt>
      <trkpt lat="42.84164800" lon="12.64230000">
        <ele>341.00000</ele>
        <time>2010-01-01T03:07:38Z</time>
      </trkpt>
      <trkpt lat="42.84180100" lon="12.64274000">
        <ele>341.00000</ele>
        <time>2010-01-01T03:07:44Z</time>
      </trkpt>
      <trkpt lat="42.84273900" lon="12.64449000">
        <ele>343.00000</ele>
        <time>2010-01-01T03:08:10Z</time>
      </trkpt>
      <trkpt lat="42.84328100" lon="12.64567000">
        <ele>341.00000</ele>
        <time>2010-01-01T03:08:26Z</time>
      </trkpt>
      <trkpt lat="42.84371200" lon="12.64624000">
        <ele>337.00000</ele>
        <time>2010-01-01T03:08:36Z</time>
      </trkpt>
      <trkpt lat="42.84415100" lon="12.64659000">
        <ele>335.00000</ele>
        <time>2010-01-01T03:08:44Z</time>
      </trkpt>
      <trkpt lat="42.84454000" lon="12.64674000">
        <ele>330.00000</ele>
        <time>2010-01-01T03:08:50Z</time>
      </trkpt>
      <trkpt lat="42.84523000" lon="12.64680000">
        <ele>322.00000</ele>
        <time>2010-01-01T03:09:01Z</time>
      </trkpt>
      <trkpt lat="42.84553900" lon="12.64703000">
        <ele>320.00000</ele>
        <time>2010-01-01T03:09:07Z</time>
      </trkpt>
      <trkpt lat="42.84574900" lon="12.64739000">
        <ele>321.00000</ele>
        <time>2010-01-01T03:09:12Z</time>
      </trkpt>
      <trkpt lat="42.84606900" lon="12.64815000">
        <ele>317.00000</ele>
        <time>2010-01-01T03:09:23Z</time>
      </trkpt>
      <trkpt lat="42.84674100" lon="12.64919000">
        <ele>310.00000</ele>
        <time>2010-01-01T03:09:39Z</time>
      </trkpt>
      <trkpt lat="42.84693900" lon="12.64980000">
        <ele>308.00000</ele>
        <time>2010-01-01T03:09:47Z</time>
      </trkpt>
      <trkpt lat="42.84703100" lon="12.65028000">
        <ele>307.00000</ele>
        <time>2010-01-01T03:09:52Z</time>
      </trkpt>
      <trkpt lat="42.84767900" lon="12.65268000">
        <ele>300.00000</ele>
        <time>2010-01-01T03:10:22Z</time>
      </trkpt>
      <trkpt lat="42.84828900" lon="12.65412000">
        <ele>303.00000</ele>
        <time>2010-01-01T03:10:42Z</time>
      </trkpt>
      <trkpt lat="42.84870100" lon="12.65520000">
        <ele>302.00000</ele>
        <time>2010-01-01T03:10:56Z</time>
      </trkpt>
      <trkpt lat="42.84875900" lon="12.65563000">
        <ele>302.00000</ele>
        <time>2010-01-01T03:11:01Z</time>
      </trkpt>
      <trkpt lat="42.84867900" lon="12.65611000">
        <ele>299.00000</ele>
        <time>2010-01-01T03:11:07Z</time>
      </trkpt>
      <trkpt lat="42.84843100" lon="12.65683000">
        <ele>294.00000</ele>
        <time>2010-01-01T03:11:17Z</time>
      </trkpt>
      <trkpt lat="42.84816000" lon="12.65732000">
        <ele>291.00000</ele>
        <time>2010-01-01T03:11:24Z</time>
      </trkpt>
      <trkpt lat="42.84791200" lon="12.65768000">
        <ele>288.00000</ele>
        <time>2010-01-01T03:11:30Z</time>
      </trkpt>
      <trkpt lat="42.84751100" lon="12.65811000">
        <ele>284.00000</ele>
        <time>2010-01-01T03:11:38Z</time>
      </trkpt>
      <trkpt lat="42.84738200" lon="12.65830000">
        <ele>282.00000</ele>
        <time>2010-01-01T03:11:41Z</time>
      </trkpt>
      <trkpt lat="42.84727100" lon="12.65859000">
        <ele>281.00000</ele>
        <time>2010-01-01T03:11:45Z</time>
      </trkpt>
      <trkpt lat="42.84721000" lon="12.65891000">
        <ele>281.00000</ele>
        <time>2010-01-01T03:11:48Z</time>
      </trkpt>
      <trkpt lat="42.84722900" lon="12.65930000">
        <ele>281.00000</ele>
        <time>2010-01-01T03:11:53Z</time>
      </trkpt>
      <trkpt lat="42.84737000" lon="12.66000000">
        <ele>280.00000</ele>
        <time>2010-01-01T03:12:02Z</time>
      </trkpt>
      <trkpt lat="42.84738900" lon="12.66038000">
        <ele>280.00000</ele>
        <time>2010-01-01T03:12:06Z</time>
      </trkpt>
      <trkpt lat="42.84735900" lon="12.66098000">
        <ele>277.00000</ele>
        <time>2010-01-01T03:12:13Z</time>
      </trkpt>
      <trkpt lat="42.84729000" lon="12.66143000">
        <ele>275.00000</ele>
        <time>2010-01-01T03:12:19Z</time>
      </trkpt>
      <trkpt lat="42.84721000" lon="12.66167000">
        <ele>273.00000</ele>
        <time>2010-01-01T03:12:22Z</time>
      </trkpt>
      <trkpt lat="42.84669900" lon="12.66257000">
        <ele>267.00000</ele>
        <time>2010-01-01T03:12:35Z</time>
      </trkpt>
      <trkpt lat="42.84621800" lon="12.66360000">
        <ele>261.00000</ele>
        <time>2010-01-01T03:12:49Z</time>
      </trkpt>
      <trkpt lat="42.84545100" lon="12.66576000">
        <ele>251.00000</ele>
        <time>2010-01-01T03:13:17Z</time>
      </trkpt>
      <trkpt lat="42.84537100" lon="12.66615000">
        <ele>249.00000</ele>
        <time>2010-01-01T03:13:22Z</time>
      </trkpt>
      <trkpt lat="42.84536000" lon="12.66670000">
        <ele>248.00000</ele>
        <time>2010-01-01T03:13:29Z</time>
      </trkpt>
      <trkpt lat="42.84548200" lon="12.66780000">
        <ele>244.00000</ele>
        <time>2010-01-01T03:13:42Z</time>
      </trkpt>
      <trkpt lat="42.84547000" lon="12.66798000">
        <ele>244.00000</ele>
        <time>2010-01-01T03:13:44Z</time>
      </trkpt>
      <trkpt lat="42.84531000" lon="12.66864000">
        <ele>242.00000</ele>
        <time>2010-01-01T03:13:52Z</time>
      </trkpt>
      <trkpt lat="42.84520000" lon="12.66884000">
        <ele>241.00000</ele>
        <time>2010-01-01T03:13:55Z</time>
      </trkpt>
      <trkpt lat="42.84478000" lon="12.66920000">
        <ele>239.00000</ele>
        <time>2010-01-01T03:14:03Z</time>
      </trkpt>
      <trkpt lat="42.84362000" lon="12.67000000">
        <ele>242.00000</ele>
        <time>2010-01-01T03:14:24Z</time>
      </trkpt>
      <trkpt lat="42.84331900" lon="12.67054000">
        <ele>243.00000</ele>
        <time>2010-01-01T03:14:32Z</time>
      </trkpt>
      <trkpt lat="42.84265900" lon="12.67237000">
        <ele>248.00000</ele>
        <time>2010-01-01T03:14:56Z</time>
      </trkpt>
      <trkpt lat="42.84233100" lon="12.67285000">
        <ele>249.00000</ele>
        <time>2010-01-01T03:15:03Z</time>
      </trkpt>
      <trkpt lat="42.84198000" lon="12.67306000">
        <ele>249.00000</ele>
        <time>2010-01-01T03:15:09Z</time>
      </trkpt>
      <trkpt lat="42.84048800" lon="12.67338000">
        <ele>251.00000</ele>
        <time>2010-01-01T03:15:34Z</time>
      </trkpt>
      <trkpt lat="42.84038200" lon="12.67346000">
        <ele>250.00000</ele>
        <time>2010-01-01T03:15:36Z</time>
      </trkpt>
      <trkpt lat="42.83749000" lon="12.67660000">
        <ele>237.00000</ele>
        <time>2010-01-01T03:16:35Z</time>
      </trkpt>
      <trkpt lat="42.83570100" lon="12.67833000">
        <ele>237.00000</ele>
        <time>2010-01-01T03:17:10Z</time>
      </trkpt>
      <trkpt lat="42.83435800" lon="12.67964000">
        <ele>238.00000</ele>
        <time>2010-01-01T03:17:36Z</time>
      </trkpt>
      <trkpt lat="42.83395000" lon="12.67986000">
        <ele>238.00000</ele>
        <time>2010-01-01T03:17:43Z</time>
      </trkpt>
      <trkpt lat="42.83134800" lon="12.68018000">
        <ele>237.00000</ele>
        <time>2010-01-01T03:18:25Z</time>
      </trkpt>
      <trkpt lat="42.82920100" lon="12.68037000">
        <ele>237.00000</ele>
        <time>2010-01-01T03:19:00Z</time>
      </trkpt>
      <trkpt lat="42.82894900" lon="12.68045000">
        <ele>237.00000</ele>
        <time>2010-01-01T03:19:04Z</time>
      </trkpt>
      <trkpt lat="42.82720200" lon="12.68171000">
        <ele>237.00000</ele>
        <time>2010-01-01T03:19:35Z</time>
      </trkpt>
      <trkpt lat="42.82648800" lon="12.68231000">
        <ele>237.00000</ele>
        <time>2010-01-01T03:19:49Z</time>
      </trkpt>
      <trkpt lat="42.82606900" lon="12.68086000">
        <ele>239.00000</ele>
        <time>2010-01-01T03:20:07Z</time>
      </trkpt>
      <trkpt lat="42.82585900" lon="12.67995000">
        <ele>243.00000</ele>
        <time>2010-01-01T03:20:18Z</time>
      </trkpt>
      <trkpt lat="42.82577900" lon="12.67942000">
        <ele>244.00000</ele>
        <time>2010-01-01T03:20:25Z</time>
      </trkpt>
      <trkpt lat="42.82569900" lon="12.67841000">
        <ele>246.00000</ele>
        <time>2010-01-01T03:20:37Z</time>
      </trkpt>
      <trkpt lat="42.82552000" lon="12.67734000">
        <ele>249.00000</ele>
        <time>2010-01-01T03:20:50Z</time>
      </trkpt>
      <trkpt lat="42.82550000" lon="12.67709000">
        <ele>249.00000</ele>
        <time>2010-01-01T03:20:53Z</time>
      </trkpt>
      <trkpt lat="42.82558100" lon="12.67403000">
        <ele>260.00000</ele>
        <time>2010-01-01T03:21:28Z</time>
      </trkpt>
      <trkpt lat="42.82552000" lon="12.67316000">
        <ele>261.00000</ele>
        <time>2010-01-01T03:21:39Z</time>
      </trkpt>
      <trkpt lat="42.82516100" lon="12.67123000">
        <ele>258.00000</ele>
        <time>2010-01-01T03:22:02Z</time>
      </trkpt>
      <trkpt lat="42.82519100" lon="12.66986000">
        <ele>254.00000</ele>
        <time>2010-01-01T03:22:18Z</time>
      </trkpt>
      <trkpt lat="42.82514200" lon="12.66909000">
        <ele>254.00000</ele>
        <time>2010-01-01T03:22:27Z</time>
      </trkpt>
      <trkpt lat="42.82484100" lon="12.66915000">
        <ele>256.00000</ele>
        <time>2010-01-01T03:22:32Z</time>
      </trkpt>
      <trkpt lat="42.82375000" lon="12.66961000">
        <ele>268.00000</ele>
        <time>2010-01-01T03:22:50Z</time>
      </trkpt>
      <trkpt lat="42.82337200" lon="12.66982000">
        <ele>271.00000</ele>
        <time>2010-01-01T03:22:57Z</time>
      </trkpt>
      <trkpt lat="42.82317000" lon="12.67004000">
        <ele>274.00000</ele>
        <time>2010-01-01T03:23:01Z</time>
      </trkpt>
      <trkpt lat="42.82313200" lon="12.67020000">
        <ele>277.00000</ele>
        <time>2010-01-01T03:23:03Z</time>
      </trkpt>
      <trkpt lat="42.82315100" lon="12.67039000">
        <ele>279.00000</ele>
        <time>2010-01-01T03:23:05Z</time>
      </trkpt>
      <trkpt lat="42.82328000" lon="12.67067000">
        <ele>281.00000</ele>
        <time>2010-01-01T03:23:09Z</time>
      </trkpt>
      <trkpt lat="42.82342100" lon="12.67087000">
        <ele>281.00000</ele>
        <time>2010-01-01T03:23:12Z</time>
      </trkpt>
      <trkpt lat="42.82363100" lon="12.67106000">
        <ele>281.00000</ele>
        <time>2010-01-01T03:23:17Z</time>
      </trkpt>
      <trkpt lat="42.82413900" lon="12.67139000">
        <ele>280.00000</ele>
        <time>2010-01-01T03:23:26Z</time>
      </trkpt>
      <trkpt lat="42.82421100" lon="12.67146000">
        <ele>280.00000</ele>
        <time>2010-01-01T03:23:27Z</time>
      </trkpt>
      <trkpt lat="42.82424900" lon="12.67160000">
        <ele>282.00000</ele>
        <time>2010-01-01T03:23:29Z</time>
      </trkpt>
      <trkpt lat="42.82424200" lon="12.67184000">
        <ele>287.00000</ele>
        <time>2010-01-01T03:23:32Z</time>
      </trkpt>
      <trkpt lat="42.82410000" lon="12.67201000">
        <ele>292.00000</ele>
        <time>2010-01-01T03:23:35Z</time>
      </trkpt>
      <trkpt lat="42.82336000" lon="12.67210000">
        <ele>295.00000</ele>
        <time>2010-01-01T03:23:46Z</time>
      </trkpt>
      <trkpt lat="42.82313200" lon="12.67215000">
        <ele>298.00000</ele>
        <time>2010-01-01T03:23:50Z</time>
      </trkpt>
      <trkpt lat="42.82294100" lon="12.67236000">
        <ele>300.00000</ele>
        <time>2010-01-01T03:23:54Z</time>
      </trkpt>
      <trkpt lat="42.82233000" lon="12.67342000">
        <ele>302.00000</ele>
        <time>2010-01-01T03:24:10Z</time>
      </trkpt>
      <trkpt lat="42.82178100" lon="12.67450000">
        <ele>312.00000</ele>
        <time>2010-01-01T03:24:25Z</time>
      </trkpt>
    </trkseg>
    <trkseg>
      <trkpt lat="42.82178100" lon="12.67450000">
        <ele>312.00000</ele>
        <time>2010-01-01T03:24:25Z</time>
      </trkpt>
      <trkpt lat="42.82165900" lon="12.67503000">
        <ele>314.00000</ele>
        <time>2010-01-01T03:24:32Z</time>
      </trkpt>
      <trkpt lat="42.82167100" lon="12.67517000">
        <ele>314.00000</ele>
        <time>2010-01-01T03:24:34Z</time>
      </trkpt>
      <trkpt lat="42.82217000" lon="12.67989000">
        <ele>292.00000</ele>
        <time>2010-01-01T03:25:30Z</time>
      </trkpt>
      <trkpt lat="42.82238000" lon="12.68067000">
        <ele>288.00000</ele>
        <time>2010-01-01T03:25:39Z</time>
      </trkpt>
      <trkpt lat="42.82239200" lon="12.68100000">
        <ele>286.00000</ele>
        <time>2010-01-01T03:25:43Z</time>
      </trkpt>
      <trkpt lat="42.82223900" lon="12.68149000">
        <ele>284.00000</ele>
        <time>2010-01-01T03:25:49Z</time>
      </trkpt>
      <trkpt lat="42.82175800" lon="12.68236000">
        <ele>278.00000</ele>
        <time>2010-01-01T03:26:02Z</time>
      </trkpt>
      <trkpt lat="42.82162100" lon="12.68256000">
        <ele>277.00000</ele>
        <time>2010-01-01T03:26:05Z</time>
      </trkpt>
      <trkpt lat="42.82140000" lon="12.68276000">
        <ele>274.00000</ele>
        <time>2010-01-01T03:26:10Z</time>
      </trkpt>
      <trkpt lat="42.82115900" lon="12.68286000">
        <ele>272.00000</ele>
        <time>2010-01-01T03:26:14Z</time>
      </trkpt>
      <trkpt lat="42.82098000" lon="12.68280000">
        <ele>272.00000</ele>
        <time>2010-01-01T03:26:17Z</time>
      </trkpt>
      <trkpt lat="42.82072800" lon="12.68258000">
        <ele>273.00000</ele>
        <time>2010-01-01T03:26:21Z</time>
      </trkpt>
      <trkpt lat="42.82061000" lon="12.68238000">
        <ele>273.00000</ele>
        <time>2010-01-01T03:26:24Z</time>
      </trkpt>
      <trkpt lat="42.82021000" lon="12.68273000">
        <ele>268.00000</ele>
        <time>2010-01-01T03:26:32Z</time>
      </trkpt>
      <trkpt lat="42.82003000" lon="12.68298000">
        <ele>266.00000</ele>
        <time>2010-01-01T03:26:36Z</time>
      </trkpt>
      <trkpt lat="42.81996900" lon="12.68319000">
        <ele>264.00000</ele>
        <time>2010-01-01T03:26:39Z</time>
      </trkpt>
      <trkpt lat="42.81998800" lon="12.68563000">
        <ele>243.00000</ele>
        <time>2010-01-01T03:27:08Z</time>
      </trkpt>
      <trkpt lat="42.81996200" lon="12.68578000">
        <ele>242.00000</ele>
        <time>2010-01-01T03:27:09Z</time>
      </trkpt>
      <trkpt lat="42.82004200" lon="12.68618000">
        <ele>242.00000</ele>
        <time>2010-01-01T03:27:14Z</time>
      </trkpt>
      <trkpt lat="42.82035800" lon="12.68718000">
        <ele>242.00000</ele>
        <time>2010-01-01T03:27:27Z</time>
      </trkpt>
      <trkpt lat="42.82008000" lon="12.68804000">
        <ele>242.00000</ele>
        <time>2010-01-01T03:27:38Z</time>
      </trkpt>
      <trkpt lat="42.82001100" lon="12.68862000">
        <ele>242.00000</ele>
        <time>2010-01-01T03:27:45Z</time>
      </trkpt>
      <trkpt lat="42.82083100" lon="12.68865000">
        <ele>239.00000</ele>
        <time>2010-01-01T03:27:58Z</time>
      </trkpt>
      <trkpt lat="42.82115200" lon="12.68878000">
        <ele>238.00000</ele>
        <time>2010-01-01T03:28:03Z</time>
      </trkpt>
      <trkpt lat="42.82191100" lon="12.68985000">
        <ele>237.00000</ele>
        <time>2010-01-01T03:28:21Z</time>
      </trkpt>
      <trkpt lat="42.82241800" lon="12.69068000">
        <ele>235.00000</ele>
        <time>2010-01-01T03:28:34Z</time>
      </trkpt>
      <trkpt lat="42.82273900" lon="12.69107000">
        <ele>234.00000</ele>
        <time>2010-01-01T03:28:40Z</time>
      </trkpt>
      <trkpt lat="42.82307800" lon="12.69135000">
        <ele>234.00000</ele>
        <time>2010-01-01T03:28:47Z</time>
      </trkpt>
      <trkpt lat="42.82381100" lon="12.69213000">
        <ele>235.00000</ele>
        <time>2010-01-01T03:29:02Z</time>
      </trkpt>
      <trkpt lat="42.82444000" lon="12.69298000">
        <ele>235.00000</ele>
        <time>2010-01-01T03:29:16Z</time>
      </trkpt>
      <trkpt lat="42.82511100" lon="12.69354000">
        <ele>234.00000</ele>
        <time>2010-01-01T03:29:28Z</time>
      </trkpt>
      <trkpt lat="42.82537800" lon="12.69369000">
        <ele>233.00000</ele>
        <time>2010-01-01T03:29:33Z</time>
      </trkpt>
      <trkpt lat="42.82616000" lon="12.69393000">
        <ele>233.00000</ele>
        <time>2010-01-01T03:29:46Z</time>
      </trkpt>
      <trkpt lat="42.82683200" lon="12.69420000">
        <ele>233.00000</ele>
        <time>2010-01-01T03:29:57Z</time>
      </trkpt>
      <trkpt lat="42.83050200" lon="12.69616000">
        <ele>230.00000</ele>
        <time>2010-01-01T03:31:00Z</time>
      </trkpt>
      <trkpt lat="42.83169900" lon="12.69681000">
        <ele>229.00000</ele>
        <time>2010-01-01T03:31:21Z</time>
      </trkpt>
      <trkpt lat="42.83226000" lon="12.69727000">
        <ele>228.00000</ele>
        <time>2010-01-01T03:31:31Z</time>
      </trkpt>
      <trkpt lat="42.83430900" lon="12.70005000">
        <ele>228.00000</ele>
        <time>2010-01-01T03:32:18Z</time>
      </trkpt>
      <trkpt lat="42.83522000" lon="12.70173000">
        <ele>226.00000</ele>
        <time>2010-01-01T03:32:42Z</time>
      </trkpt>
      <trkpt lat="42.83544900" lon="12.70243000">
        <ele>226.00000</ele>
        <time>2010-01-01T03:32:51Z</time>
      </trkpt>
      <trkpt lat="42.83562900" lon="12.70319000">
        <ele>225.00000</ele>
        <time>2010-01-01T03:33:01Z</time>
      </trkpt>
      <trkpt lat="42.83567800" lon="12.70401000">
        <ele>224.00000</ele>
        <time>2010-01-01T03:33:10Z</time>
      </trkpt>
      <trkpt lat="42.83577000" lon="12.70454000">
        <ele>224.00000</ele>
        <time>2010-01-01T03:33:17Z</time>
      </trkpt>
      <trkpt lat="42.83583800" lon="12.70547000">
        <ele>225.00000</ele>
        <time>2010-01-01T03:33:28Z</time>
      </trkpt>
      <trkpt lat="42.83583100" lon="12.70577000">
        <ele>225.00000</ele>
        <time>2010-01-01T03:33:31Z</time>
      </trkpt>
      <trkpt lat="42.83570100" lon="12.70638000">
        <ele>224.00000</ele>
        <time>2010-01-01T03:33:39Z</time>
      </trkpt>
      <trkpt lat="42.83557100" lon="12.70674000">
        <ele>223.00000</ele>
        <time>2010-01-01T03:33:43Z</time>
      </trkpt>
      <trkpt lat="42.83540000" lon="12.70706000">
        <ele>223.00000</ele>
        <time>2010-01-01T03:33:48Z</time>
      </trkpt>
      <trkpt lat="42.83361800" lon="12.70999000">
        <ele>222.00000</ele>
        <time>2010-01-01T03:34:33Z</time>
      </trkpt>
      <trkpt lat="42.83282100" lon="12.71103000">
        <ele>222.00000</ele>
        <time>2010-01-01T03:34:50Z</time>
      </trkpt>
      <trkpt lat="42.83256100" lon="12.71143000">
        <ele>222.00000</ele>
        <time>2010-01-01T03:34:57Z</time>
      </trkpt>
      <trkpt lat="42.83145100" lon="12.71332000">
        <ele>222.00000</ele>
        <time>2010-01-01T03:35:25Z</time>
      </trkpt>
      <trkpt lat="42.83095200" lon="12.71431000">
        <ele>222.00000</ele>
        <time>2010-01-01T03:35:39Z</time>
      </trkpt>
      <trkpt lat="42.83023100" lon="12.71611000">
        <ele>221.00000</ele>
        <time>2010-01-01T03:36:03Z</time>
      </trkpt>
      <trkpt lat="42.82967000" lon="12.71772000">
        <ele>220.00000</ele>
        <time>2010-01-01T03:36:24Z</time>
      </trkpt>
      <trkpt lat="42.82955900" lon="12.71841000">
        <ele>219.00000</ele>
        <time>2010-01-01T03:36:32Z</time>
      </trkpt>
      <trkpt lat="42.82944900" lon="12.72016000">
        <ele>218.00000</ele>
        <time>2010-01-01T03:36:53Z</time>
      </trkpt>
      <trkpt lat="42.82933000" lon="12.72098000">
        <ele>218.00000</ele>
        <time>2010-01-01T03:37:03Z</time>
      </trkpt>
      <trkpt lat="42.82917000" lon="12.72167000">
        <ele>219.00000</ele>
        <time>2010-01-01T03:37:11Z</time>
      </trkpt>
      <trkpt lat="42.82622900" lon="12.72865000">
        <ele>220.00000</ele>
        <time>2010-01-01T03:38:46Z</time>
      </trkpt>
      <trkpt lat="42.82609200" lon="12.72907000">
        <ele>221.00000</ele>
        <time>2010-01-01T03:38:51Z</time>
      </trkpt>
      <trkpt lat="42.82550000" lon="12.73104000">
        <ele>222.00000</ele>
        <time>2010-01-01T03:39:16Z</time>
      </trkpt>
      <trkpt lat="42.82255200" lon="12.74238000">
        <ele>223.00000</ele>
        <time>2010-01-01T03:41:38Z</time>
      </trkpt>
      <trkpt lat="42.82252100" lon="12.74346000">
        <ele>224.00000</ele>
        <time>2010-01-01T03:41:50Z</time>
      </trkpt>
      <trkpt lat="42.82278100" lon="12.74429000">
        <ele>222.00000</ele>
        <time>2010-01-01T03:42:01Z</time>
      </trkpt>
      <trkpt lat="42.82634000" lon="12.75293000">
        <ele>223.00000</ele>
        <time>2010-01-01T03:43:57Z</time>
      </trkpt>
      <trkpt lat="42.82672900" lon="12.75389000">
        <ele>223.00000</ele>
        <time>2010-01-01T03:44:10Z</time>
      </trkpt>
      <trkpt lat="42.82683900" lon="12.75428000">
        <ele>222.00000</ele>
        <time>2010-01-01T03:44:15Z</time>
      </trkpt>
      <trkpt lat="42.82695000" lon="12.75494000">
        <ele>222.00000</ele>
        <time>2010-01-01T03:44:23Z</time>
      </trkpt>
      <trkpt lat="42.82696900" lon="12.75577000">
        <ele>222.00000</ele>
        <time>2010-01-01T03:44:33Z</time>
      </trkpt>
      <trkpt lat="42.82664100" lon="12.75999000">
        <ele>226.00000</ele>
        <time>2010-01-01T03:45:23Z</time>
      </trkpt>
      <trkpt lat="42.82643900" lon="12.76008000">
        <ele>225.00000</ele>
        <time>2010-01-01T03:45:26Z</time>
      </trkpt>
      <trkpt lat="42.82637000" lon="12.76019000">
        <ele>225.00000</ele>
        <time>2010-01-01T03:45:28Z</time>
      </trkpt>
      <trkpt lat="42.82634000" lon="12.76034000">
        <ele>225.00000</ele>
        <time>2010-01-01T03:45:30Z</time>
      </trkpt>
      <trkpt lat="42.82635100" lon="12.76048000">
        <ele>225.00000</ele>
        <time>2010-01-01T03:45:31Z</time>
      </trkpt>
      <trkpt lat="42.82642000" lon="12.76064000">
        <ele>225.00000</ele>
        <time>2010-01-01T03:45:33Z</time>
      </trkpt>
      <trkpt lat="42.82659100" lon="12.76074000">
        <ele>225.00000</ele>
        <time>2010-01-01T03:45:36Z</time>
      </trkpt>
      <trkpt lat="42.82653000" lon="12.76202000">
        <ele>224.00000</ele>
        <time>2010-01-01T03:45:51Z</time>
      </trkpt>
      <trkpt lat="42.82606100" lon="12.76454000">
        <ele>222.00000</ele>
        <time>2010-01-01T03:46:22Z</time>
      </trkpt>
      <trkpt lat="42.82555000" lon="12.76673000">
        <ele>226.00000</ele>
        <time>2010-01-01T03:46:49Z</time>
      </trkpt>
      <trkpt lat="42.82785000" lon="12.76796000">
        <ele>226.00000</ele>
        <time>2010-01-01T03:47:28Z</time>
      </trkpt>
      <trkpt lat="42.82885000" lon="12.76842000">
        <ele>227.00000</ele>
        <time>2010-01-01T03:47:45Z</time>
      </trkpt>
      <trkpt lat="42.82926900" lon="12.76864000">
        <ele>227.00000</ele>
        <time>2010-01-01T03:47:53Z</time>
      </trkpt>
      <trkpt lat="42.82976200" lon="12.76878000">
        <ele>227.00000</ele>
        <time>2010-01-01T03:48:01Z</time>
      </trkpt>
      <trkpt lat="42.83066200" lon="12.76879000">
        <ele>227.00000</ele>
        <time>2010-01-01T03:48:15Z</time>
      </trkpt>
      <trkpt lat="42.83147000" lon="12.76868000">
        <ele>228.00000</ele>
        <time>2010-01-01T03:48:28Z</time>
      </trkpt>
      <trkpt lat="42.83252000" lon="12.76852000">
        <ele>234.00000</ele>
        <time>2010-01-01T03:48:45Z</time>
      </trkpt>
      <trkpt lat="42.83301900" lon="12.76838000">
        <ele>236.00000</ele>
        <time>2010-01-01T03:48:53Z</time>
      </trkpt>
      <trkpt lat="42.83351100" lon="12.76808000">
        <ele>237.00000</ele>
        <time>2010-01-01T03:49:02Z</time>
      </trkpt>
      <trkpt lat="42.83383200" lon="12.76771000">
        <ele>235.00000</ele>
        <time>2010-01-01T03:49:08Z</time>
      </trkpt>
      <trkpt lat="42.83406800" lon="12.76723000">
        <ele>232.00000</ele>
        <time>2010-01-01T03:49:15Z</time>
      </trkpt>
      <trkpt lat="42.83464800" lon="12.76569000">
        <ele>228.00000</ele>
        <time>2010-01-01T03:49:36Z</time>
      </trkpt>
      <trkpt lat="42.83573200" lon="12.76214000">
        <ele>231.00000</ele>
        <time>2010-01-01T03:50:21Z</time>
      </trkpt>
      <trkpt lat="42.83607100" lon="12.76116000">
        <ele>231.00000</ele>
        <time>2010-01-01T03:50:33Z</time>
      </trkpt>
      <trkpt lat="42.83636100" lon="12.76057000">
        <ele>231.00000</ele>
        <time>2010-01-01T03:50:42Z</time>
      </trkpt>
      <trkpt lat="42.83672000" lon="12.76007000">
        <ele>231.00000</ele>
        <time>2010-01-01T03:50:50Z</time>
      </trkpt>
      <trkpt lat="42.83691000" lon="12.75986000">
        <ele>230.00000</ele>
        <time>2010-01-01T03:50:54Z</time>
      </trkpt>
      <trkpt lat="42.83749000" lon="12.75953000">
        <ele>230.00000</ele>
        <time>2010-01-01T03:51:04Z</time>
      </trkpt>
      <trkpt lat="42.83927900" lon="12.75921000">
        <ele>233.00000</ele>
        <time>2010-01-01T03:51:33Z</time>
      </trkpt>
      <trkpt lat="42.84000000" lon="12.75896000">
        <ele>235.00000</ele>
        <time>2010-01-01T03:51:45Z</time>
      </trkpt>
      <trkpt lat="42.84009200" lon="12.75889000">
        <ele>236.00000</ele>
        <time>2010-01-01T03:51:46Z</time>
      </trkpt>
      <trkpt lat="42.84048100" lon="12.75865000">
        <ele>238.00000</ele>
        <time>2010-01-01T03:51:53Z</time>
      </trkpt>
      <trkpt lat="42.84394100" lon="12.75569000">
        <ele>228.00000</ele>
        <time>2010-01-01T03:52:59Z</time>
      </trkpt>
      <trkpt lat="42.84436000" lon="12.75539000">
        <ele>228.00000</ele>
        <time>2010-01-01T03:53:06Z</time>
      </trkpt>
      <trkpt lat="42.84492900" lon="12.75509000">
        <ele>228.00000</ele>
        <time>2010-01-01T03:53:16Z</time>
      </trkpt>
      <trkpt lat="42.84669100" lon="12.75447000">
        <ele>224.00000</ele>
        <time>2010-01-01T03:53:45Z</time>
      </trkpt>
      <trkpt lat="42.84737000" lon="12.75404000">
        <ele>221.00000</ele>
        <time>2010-01-01T03:53:57Z</time>
      </trkpt>
      <trkpt lat="42.84775900" lon="12.75360000">
        <ele>221.00000</ele>
        <time>2010-01-01T03:54:05Z</time>
      </trkpt>
      <trkpt lat="42.84948000" lon="12.75106000">
        <ele>224.00000</ele>
        <time>2010-01-01T03:54:46Z</time>
      </trkpt>
      <trkpt lat="42.84981900" lon="12.75070000">
        <ele>225.00000</ele>
        <time>2010-01-01T03:54:53Z</time>
      </trkpt>
      <trkpt lat="42.85012800" lon="12.75044000">
        <ele>224.00000</ele>
        <time>2010-01-01T03:54:59Z</time>
      </trkpt>
      <trkpt lat="42.85031100" lon="12.75038000">
        <ele>224.00000</ele>
        <time>2010-01-01T03:55:02Z</time>
      </trkpt>
      <trkpt lat="42.85245900" lon="12.74882000">
        <ele>224.00000</ele>
        <time>2010-01-01T03:55:41Z</time>
      </trkpt>
      <trkpt lat="42.85250900" lon="12.74892000">
        <ele>225.00000</ele>
        <time>2010-01-01T03:55:42Z</time>
      </trkpt>
      <trkpt lat="42.85171900" lon="12.74947000">
        <ele>225.00000</ele>
        <time>2010-01-01T03:55:56Z</time>
      </trkpt>
      <trkpt lat="42.85194000" lon="12.74972000">
        <ele>228.00000</ele>
        <time>2010-01-01T03:56:01Z</time>
      </trkpt>
      <trkpt lat="42.85237900" lon="12.74997000">
        <ele>233.00000</ele>
        <time>2010-01-01T03:56:08Z</time>
      </trkpt>
      <trkpt lat="42.85300100" lon="12.75052000">
        <ele>239.00000</ele>
        <time>2010-01-01T03:56:20Z</time>
      </trkpt>
      <trkpt lat="42.85316800" lon="12.75061000">
        <ele>240.00000</ele>
        <time>2010-01-01T03:56:23Z</time>
      </trkpt>
      <trkpt lat="42.85395100" lon="12.75075000">
        <ele>243.00000</ele>
        <time>2010-01-01T03:56:36Z</time>
      </trkpt>
      <trkpt lat="42.85543800" lon="12.75058000">
        <ele>248.00000</ele>
        <time>2010-01-01T03:57:00Z</time>
      </trkpt>
      <trkpt lat="42.85577000" lon="12.75061000">
        <ele>250.00000</ele>
        <time>2010-01-01T03:57:05Z</time>
      </trkpt>
      <trkpt lat="42.85646800" lon="12.75103000">
        <ele>255.00000</ele>
        <time>2010-01-01T03:57:17Z</time>
      </trkpt>
      <trkpt lat="42.85686100" lon="12.75139000">
        <ele>258.00000</ele>
        <time>2010-01-01T03:57:25Z</time>
      </trkpt>
      <trkpt lat="42.85707900" lon="12.75151000">
        <ele>259.00000</ele>
        <time>2010-01-01T03:57:29Z</time>
      </trkpt>
      <trkpt lat="42.85723100" lon="12.75152000">
        <ele>260.00000</ele>
        <time>2010-01-01T03:57:31Z</time>
      </trkpt>
      <trkpt lat="42.85813900" lon="12.75134000">
        <ele>262.00000</ele>
        <time>2010-01-01T03:57:46Z</time>
      </trkpt>
      <trkpt lat="42.85839100" lon="12.75123000">
        <ele>263.00000</ele>
        <time>2010-01-01T03:57:50Z</time>
      </trkpt>
      <trkpt lat="42.86087000" lon="12.74962000">
        <ele>291.00000</ele>
        <time>2010-01-01T03:58:34Z</time>
      </trkpt>
      <trkpt lat="42.86114100" lon="12.74963000">
        <ele>293.00000</ele>
        <time>2010-01-01T03:58:38Z</time>
      </trkpt>
      <trkpt lat="42.86204100" lon="12.74981000">
        <ele>301.00000</ele>
        <time>2010-01-01T03:58:53Z</time>
      </trkpt>
      <trkpt lat="42.86251100" lon="12.74984000">
        <ele>303.00000</ele>
        <time>2010-01-01T03:59:00Z</time>
      </trkpt>
      <trkpt lat="42.86259800" lon="12.74996000">
        <ele>305.00000</ele>
        <time>2010-01-01T03:59:02Z</time>
      </trkpt>
      <trkpt lat="42.86286900" lon="12.75083000">
        <ele>314.00000</ele>
        <time>2010-01-01T03:59:13Z</time>
      </trkpt>
      <trkpt lat="42.86315900" lon="12.75091000">
        <ele>314.00000</ele>
        <time>2010-01-01T03:59:18Z</time>
      </trkpt>
      <trkpt lat="42.86368200" lon="12.75093000">
        <ele>316.00000</ele>
        <time>2010-01-01T03:59:27Z</time>
      </trkpt>
      <trkpt lat="42.86439100" lon="12.75085000">
        <ele>320.00000</ele>
        <time>2010-01-01T03:59:38Z</time>
      </trkpt>
      <trkpt lat="42.86488000" lon="12.75099000">
        <ele>327.00000</ele>
        <time>2010-01-01T03:59:46Z</time>
      </trkpt>
      <trkpt lat="42.86508200" lon="12.75100000">
        <ele>330.00000</ele>
        <time>2010-01-01T03:59:49Z</time>
      </trkpt>
      <trkpt lat="42.86579900" lon="12.75080000">
        <ele>338.00000</ele>
        <time>2010-01-01T04:00:01Z</time>
      </trkpt>
    </trkseg>
    <trkseg>
      <trkpt lat="42.86579900" lon="12.75080000">
        <ele>338.00000</ele>
        <time>2010-01-01T04:00:01Z</time>
      </trkpt>
      <trkpt lat="42.86647000" lon="12.75072000">
        <ele>339.00000</ele>
        <time>2010-01-01T04:00:12Z</time>
      </trkpt>
      <trkpt lat="42.86742000" lon="12.75108000">
        <ele>330.00000</ele>
        <time>2010-01-01T04:00:27Z</time>
      </trkpt>
      <trkpt lat="42.86764900" lon="12.75122000">
        <ele>328.00000</ele>
        <time>2010-01-01T04:00:31Z</time>
      </trkpt>
      <trkpt lat="42.86809200" lon="12.75168000">
        <ele>329.00000</ele>
        <time>2010-01-01T04:00:40Z</time>
      </trkpt>
      <trkpt lat="42.86909900" lon="12.75299000">
        <ele>340.00000</ele>
        <time>2010-01-01T04:01:03Z</time>
      </trkpt>
      <trkpt lat="42.86946900" lon="12.75334000">
        <ele>344.00000</ele>
        <time>2010-01-01T04:01:10Z</time>
      </trkpt>
      <trkpt lat="42.87081900" lon="12.75418000">
        <ele>357.00000</ele>
        <time>2010-01-01T04:01:34Z</time>
      </trkpt>
      <trkpt lat="42.87189100" lon="12.75471000">
        <ele>372.00000</ele>
        <time>2010-01-01T04:01:52Z</time>
      </trkpt>
      <trkpt lat="42.87302000" lon="12.75512000">
        <ele>383.00000</ele>
        <time>2010-01-01T04:02:11Z</time>
      </trkpt>
      <trkpt lat="42.87365000" lon="12.75542000">
        <ele>392.00000</ele>
        <time>2010-01-01T04:02:21Z</time>
      </trkpt>
      <trkpt lat="42.87434000" lon="12.75517000">
        <ele>392.00000</ele>
        <time>2010-01-01T04:02:33Z</time>
      </trkpt>
      <trkpt lat="42.87461100" lon="12.75521000">
        <ele>392.00000</ele>
        <time>2010-01-01T04:02:37Z</time>
      </trkpt>
      <trkpt lat="42.87495000" lon="12.75552000">
        <ele>399.00000</ele>
        <time>2010-01-01T04:02:44Z</time>
      </trkpt>
      <trkpt lat="42.87580900" lon="12.75649000">
        <ele>413.00000</ele>
        <time>2010-01-01T04:03:01Z</time>
      </trkpt>
      <trkpt lat="42.87619000" lon="12.75719000">
        <ele>425.00000</ele>
        <time>2010-01-01T04:03:12Z</time>
      </trkpt>
      <trkpt lat="42.87636200" lon="12.75730000">
        <ele>425.00000</ele>
        <time>2010-01-01T04:03:15Z</time>
      </trkpt>
      <trkpt lat="42.87653000" lon="12.75728000">
        <ele>424.00000</ele>
        <time>2010-01-01T04:03:17Z</time>
      </trkpt>
      <trkpt lat="42.87669000" lon="12.75718000">
        <ele>424.00000</ele>
        <time>2010-01-01T04:03:20Z</time>
      </trkpt>
      <trkpt lat="42.87682000" lon="12.75702000">
        <ele>428.00000</ele>
        <time>2010-01-01T04:03:23Z</time>
      </trkpt>
      <trkpt lat="42.87686200" lon="12.75689000">
        <ele>429.00000</ele>
        <time>2010-01-01T04:03:25Z</time>
      </trkpt>
      <trkpt lat="42.87690000" lon="12.75653000">
        <ele>430.00000</ele>
        <time>2010-01-01T04:03:29Z</time>
      </trkpt>
      <trkpt lat="42.87686200" lon="12.75484000">
        <ele>424.00000</ele>
        <time>2010-01-01T04:03:49Z</time>
      </trkpt>
      <trkpt lat="42.87691900" lon="12.75383000">
        <ele>424.00000</ele>
        <time>2010-01-01T04:04:01Z</time>
      </trkpt>
      <trkpt lat="42.87698000" lon="12.75360000">
        <ele>426.00000</ele>
        <time>2010-01-01T04:04:04Z</time>
      </trkpt>
      <trkpt lat="42.87715900" lon="12.75321000">
        <ele>430.00000</ele>
        <time>2010-01-01T04:04:09Z</time>
      </trkpt>
      <trkpt lat="42.87736100" lon="12.75297000">
        <ele>434.00000</ele>
        <time>2010-01-01T04:04:13Z</time>
      </trkpt>
      <trkpt lat="42.87786100" lon="12.75251000">
        <ele>437.00000</ele>
        <time>2010-01-01T04:04:23Z</time>
      </trkpt>
      <trkpt lat="42.87828800" lon="12.75224000">
        <ele>438.00000</ele>
        <time>2010-01-01T04:04:30Z</time>
      </trkpt>
      <trkpt lat="42.87934900" lon="12.75192000">
        <ele>439.00000</ele>
        <time>2010-01-01T04:04:48Z</time>
      </trkpt>
      <trkpt lat="42.87978000" lon="12.75198000">
        <ele>438.00000</ele>
        <time>2010-01-01T04:04:55Z</time>
      </trkpt>
      <trkpt lat="42.88122900" lon="12.75245000">
        <ele>432.00000</ele>
        <time>2010-01-01T04:05:19Z</time>
      </trkpt>
      <trkpt lat="42.88153800" lon="12.75257000">
        <ele>432.00000</ele>
        <time>2010-01-01T04:05:24Z</time>
      </trkpt>
      <trkpt lat="42.88201900" lon="12.75285000">
        <ele>436.00000</ele>
        <time>2010-01-01T04:05:32Z</time>
      </trkpt>
      <trkpt lat="42.88214900" lon="12.75286000">
        <ele>436.00000</ele>
        <time>2010-01-01T04:05:34Z</time>
      </trkpt>
      <trkpt lat="42.88243900" lon="12.75269000">
        <ele>432.00000</ele>
        <time>2010-01-01T04:05:39Z</time>
      </trkpt>
      <trkpt lat="42.88322800" lon="12.75147000">
        <ele>425.00000</ele>
        <time>2010-01-01T04:05:58Z</time>
      </trkpt>
      <trkpt lat="42.88353000" lon="12.75132000">
        <ele>424.00000</ele>
        <time>2010-01-01T04:06:04Z</time>
      </trkpt>
      <trkpt lat="42.88382000" lon="12.75132000">
        <ele>423.00000</ele>
        <time>2010-01-01T04:06:08Z</time>
      </trkpt>
      <trkpt lat="42.88513200" lon="12.75167000">
        <ele>413.00000</ele>
        <time>2010-01-01T04:06:30Z</time>
      </trkpt>
      <trkpt lat="42.88628000" lon="12.75226000">
        <ele>408.00000</ele>
        <time>2010-01-01T04:06:49Z</time>
      </trkpt>
      <trkpt lat="42.88634100" lon="12.75236000">
        <ele>409.00000</ele>
        <time>2010-01-01T04:06:51Z</time>
      </trkpt>
      <trkpt lat="42.88647800" lon="12.75244000">
        <ele>408.00000</ele>
        <time>2010-01-01T04:06:53Z</time>
      </trkpt>
      <trkpt lat="42.88742100" lon="12.75248000">
        <ele>401.00000</ele>
        <time>2010-01-01T04:07:08Z</time>
      </trkpt>
      <trkpt lat="42.88806200" lon="12.75264000">
        <ele>398.00000</ele>
        <time>2010-01-01T04:07:19Z</time>
      </trkpt>
      <trkpt lat="42.88885100" lon="12.75319000">
        <ele>398.00000</ele>
        <time>2010-01-01T04:07:33Z</time>
      </trkpt>
      <trkpt lat="42.88916000" lon="12.75359000">
        <ele>400.00000</ele>
        <time>2010-01-01T04:07:40Z</time>
      </trkpt>
      <trkpt lat="42.88930900" lon="12.75371000">
        <ele>402.00000</ele>
        <time>2010-01-01T04:07:42Z</time>
      </trkpt>
      <trkpt lat="42.88951100" lon="12.75365000">
        <ele>401.00000</ele>
        <time>2010-01-01T04:07:46Z</time>
      </trkpt>
      <trkpt lat="42.88988900" lon="12.75316000">
        <ele>393.00000</ele>
        <time>2010-01-01T04:07:54Z</time>
      </trkpt>
      <trkpt lat="42.89020900" lon="12.75297000">
        <ele>389.00000</ele>
        <time>2010-01-01T04:08:00Z</time>
      </trkpt>
      <trkpt lat="42.89038100" lon="12.75296000">
        <ele>389.00000</ele>
        <time>2010-01-01T04:08:02Z</time>
      </trkpt>
      <trkpt lat="42.89122000" lon="12.75315000">
        <ele>391.00000</ele>
        <time>2010-01-01T04:08:16Z</time>
      </trkpt>
      <trkpt lat="42.89170800" lon="12.75318000">
        <ele>390.00000</ele>
        <time>2010-01-01T04:08:24Z</time>
      </trkpt>
      <trkpt lat="42.89325000" lon="12.75291000">
        <ele>383.00000</ele>
        <time>2010-01-01T04:08:49Z</time>
      </trkpt>
      <trkpt lat="42.89363900" lon="12.75282000">
        <ele>382.00000</ele>
        <time>2010-01-01T04:08:55Z</time>
      </trkpt>
      <trkpt lat="42.89374200" lon="12.75274000">
        <ele>381.00000</ele>
        <time>2010-01-01T04:08:57Z</time>
      </trkpt>
      <trkpt lat="42.89386000" lon="12.75246000">
        <ele>378.00000</ele>
        <time>2010-01-01T04:09:01Z</time>
      </trkpt>
      <trkpt lat="42.89400100" lon="12.75196000">
        <ele>374.00000</ele>
        <time>2010-01-01T04:09:07Z</time>
      </trkpt>
      <trkpt lat="42.89416100" lon="12.75114000">
        <ele>366.00000</ele>
        <time>2010-01-01T04:09:17Z</time>
      </trkpt>
      <trkpt lat="42.89415000" lon="12.75038000">
        <ele>359.00000</ele>
        <time>2010-01-01T04:09:26Z</time>
      </trkpt>
      <trkpt lat="42.89405100" lon="12.74940000">
        <ele>351.00000</ele>
        <time>2010-01-01T04:09:38Z</time>
      </trkpt>
      <trkpt lat="42.89405100" lon="12.74944000">
        <ele>352.00000</ele>
        <time>2010-01-01T04:09:38Z</time>
      </trkpt>
      <trkpt lat="42.89410000" lon="12.74909000">
        <ele>349.00000</ele>
        <time>2010-01-01T04:09:42Z</time>
      </trkpt>
      <trkpt lat="42.89434800" lon="12.74869000">
        <ele>345.00000</ele>
        <time>2010-01-01T04:09:48Z</time>
      </trkpt>
      <trkpt lat="42.89479100" lon="12.74826000">
        <ele>340.00000</ele>
        <time>2010-01-01T04:09:57Z</time>
      </trkpt>
      <trkpt lat="42.89508100" lon="12.74804000">
        <ele>338.00000</ele>
        <time>2010-01-01T04:10:02Z</time>
      </trkpt>
      <trkpt lat="42.89577100" lon="12.74765000">
        <ele>332.00000</ele>
        <time>2010-01-01T04:10:14Z</time>
      </trkpt>
      <trkpt lat="42.89609100" lon="12.74736000">
        <ele>329.00000</ele>
        <time>2010-01-01T04:10:20Z</time>
      </trkpt>
      <trkpt lat="42.89632000" lon="12.74698000">
        <ele>326.00000</ele>
        <time>2010-01-01T04:10:26Z</time>
      </trkpt>
      <trkpt lat="42.89650000" lon="12.74645000">
        <ele>322.00000</ele>
        <time>2010-01-01T04:10:33Z</time>
      </trkpt>
      <trkpt lat="42.89699200" lon="12.74565000">
        <ele>316.00000</ele>
        <time>2010-01-01T04:10:45Z</time>
      </trkpt>
      <trkpt lat="42.89728900" lon="12.74493000">
        <ele>310.00000</ele>
        <time>2010-01-01T04:10:55Z</time>
      </trkpt>
      <trkpt lat="42.89757900" lon="12.74447000">
        <ele>307.00000</ele>
        <time>2010-01-01T04:11:02Z</time>
      </trkpt>
      <trkpt lat="42.89839900" lon="12.74407000">
        <ele>302.00000</ele>
        <time>2010-01-01T04:11:16Z</time>
      </trkpt>
      <trkpt lat="42.90000900" lon="12.74287000">
        <ele>293.00000</ele>
        <time>2010-01-01T04:11:45Z</time>
      </trkpt>
      <trkpt lat="42.90028000" lon="12.74269000">
        <ele>291.00000</ele>
        <time>2010-01-01T04:11:50Z</time>
      </trkpt>
      <trkpt lat="42.90066900" lon="12.74254000">
        <ele>291.00000</ele>
        <time>2010-01-01T04:11:57Z</time>
      </trkpt>
      <trkpt lat="42.90153900" lon="12.74181000">
        <ele>286.00000</ele>
        <time>2010-01-01T04:12:13Z</time>
      </trkpt>
      <trkpt lat="42.90177200" lon="12.74153000">
        <ele>284.00000</ele>
        <time>2010-01-01T04:12:18Z</time>
      </trkpt>
      <trkpt lat="42.90219100" lon="12.74088000">
        <ele>279.00000</ele>
        <time>2010-01-01T04:12:28Z</time>
      </trkpt>
      <trkpt lat="42.90230200" lon="12.74036000">
        <ele>274.00000</ele>
        <time>2010-01-01T04:12:35Z</time>
      </trkpt>
      <trkpt lat="42.90243100" lon="12.73882000">
        <ele>261.00000</ele>
        <time>2010-01-01T04:12:53Z</time>
      </trkpt>
      <trkpt lat="42.90247000" lon="12.73863000">
        <ele>260.00000</ele>
        <time>2010-01-01T04:12:55Z</time>
      </trkpt>
      <trkpt lat="42.90274000" lon="12.73830000">
        <ele>256.00000</ele>
        <time>2010-01-01T04:13:01Z</time>
      </trkpt>
      <trkpt lat="42.90277900" lon="12.73802000">
        <ele>255.00000</ele>
        <time>2010-01-01T04:13:04Z</time>
      </trkpt>
      <trkpt lat="42.90255000" lon="12.73609000">
        <ele>250.00000</ele>
        <time>2010-01-01T04:13:27Z</time>
      </trkpt>
      <trkpt lat="42.90256900" lon="12.73511000">
        <ele>248.00000</ele>
        <time>2010-01-01T04:13:39Z</time>
      </trkpt>
      <trkpt lat="42.90253100" lon="12.73437000">
        <ele>245.00000</ele>
        <time>2010-01-01T04:13:47Z</time>
      </trkpt>
      <trkpt lat="42.90211100" lon="12.73120000">
        <ele>232.00000</ele>
        <time>2010-01-01T04:14:25Z</time>
      </trkpt>
      <trkpt lat="42.90200000" lon="12.72948000">
        <ele>225.00000</ele>
        <time>2010-01-01T04:14:45Z</time>
      </trkpt>
      <trkpt lat="42.89934900" lon="12.72918000">
        <ele>230.00000</ele>
        <time>2010-01-01T04:15:28Z</time>
      </trkpt>
      <trkpt lat="42.89788100" lon="12.72938000">
        <ele>232.00000</ele>
        <time>2010-01-01T04:15:52Z</time>
      </trkpt>
      <trkpt lat="42.89807100" lon="12.72884000">
        <ele>230.00000</ele>
        <time>2010-01-01T04:15:59Z</time>
      </trkpt>
      <trkpt lat="42.89817000" lon="12.72837000">
        <ele>229.00000</ele>
        <time>2010-01-01T04:16:04Z</time>
      </trkpt>
      <trkpt lat="42.89828100" lon="12.72738000">
        <ele>223.00000</ele>
        <time>2010-01-01T04:16:16Z</time>
      </trkpt>
      <trkpt lat="42.89839900" lon="12.72671000">
        <ele>220.00000</ele>
        <time>2010-01-01T04:16:24Z</time>
      </trkpt>
      <trkpt lat="42.89865900" lon="12.72603000">
        <ele>218.00000</ele>
        <time>2010-01-01T04:16:33Z</time>
      </trkpt>
      <trkpt lat="42.89905200" lon="12.72438000">
        <ele>212.00000</ele>
        <time>2010-01-01T04:16:54Z</time>
      </trkpt>
      <trkpt lat="42.89907100" lon="12.72424000">
        <ele>211.00000</ele>
        <time>2010-01-01T04:16:55Z</time>
      </trkpt>
      <trkpt lat="42.89899800" lon="12.72375000">
        <ele>211.00000</ele>
        <time>2010-01-01T04:17:01Z</time>
      </trkpt>
      <trkpt lat="42.89930000" lon="12.72249000">
        <ele>209.00000</ele>
        <time>2010-01-01T04:17:17Z</time>
      </trkpt>
      <trkpt lat="42.89994000" lon="12.72167000">
        <ele>208.00000</ele>
        <time>2010-01-01T04:17:31Z</time>
      </trkpt>
      <trkpt lat="42.90004000" lon="12.72145000">
        <ele>208.00000</ele>
        <time>2010-01-01T04:17:34Z</time>
      </trkpt>
      <trkpt lat="42.90010800" lon="12.72111000">
        <ele>207.00000</ele>
        <time>2010-01-01T04:17:38Z</time>
      </trkpt>
      <trkpt lat="42.90008200" lon="12.72017000">
        <ele>208.00000</ele>
        <time>2010-01-01T04:17:49Z</time>
      </trkpt>
      <trkpt lat="42.89989100" lon="12.71920000">
        <ele>207.00000</ele>
        <time>2010-01-01T04:18:01Z</time>
      </trkpt>
      <trkpt lat="42.89989900" lon="12.71851000">
        <ele>208.00000</ele>
        <time>2010-01-01T04:18:09Z</time>
      </trkpt>
      <trkpt lat="42.90134000" lon="12.70957000">
        <ele>209.00000</ele>
        <time>2010-01-01T04:19:56Z</time>
      </trkpt>
      <trkpt lat="42.90129900" lon="12.70927000">
        <ele>210.00000</ele>
        <time>2010-01-01T04:20:00Z</time>
      </trkpt>
      <trkpt lat="42.90089000" lon="12.70823000">
        <ele>212.00000</ele>
        <time>2010-01-01T04:20:14Z</time>
      </trkpt>
      <trkpt lat="42.90279000" lon="12.70635000">
        <ele>210.00000</ele>
        <time>2010-01-01T04:20:51Z</time>
      </trkpt>
      <trkpt lat="42.90284000" lon="12.70655000">
        <ele>211.00000</ele>
        <time>2010-01-01T04:20:54Z</time>
      </trkpt>
      <trkpt lat="42.90301900" lon="12.70661000">
        <ele>210.00000</ele>
        <time>2010-01-01T04:20:57Z</time>
      </trkpt>
    </trkseg>
    <trkseg>
      <trkpt lat="42.90301900" lon="12.70661000">
        <ele>210.00000</ele>
        <time>2010-01-01T04:20:57Z</time>
      </trkpt>
      <trkpt lat="42.90284000" lon="12.70655000">
        <ele>211.00000</ele>
        <time>2010-01-01T04:21:00Z</time>
      </trkpt>
      <trkpt lat="42.90279000" lon="12.70635000">
        <ele>210.00000</ele>
        <time>2010-01-01T04:21:02Z</time>
      </trkpt>
      <trkpt lat="42.90370900" lon="12.70544000">
        <ele>210.00000</ele>
        <time>2010-01-01T04:21:20Z</time>
      </trkpt>
      <trkpt lat="42.90364100" lon="12.70535000">
        <ele>209.00000</ele>
        <time>2010-01-01T04:21:22Z</time>
      </trkpt>
      <trkpt lat="42.90044000" lon="12.70335000">
        <ele>210.00000</ele>
        <time>2010-01-01T04:22:18Z</time>
      </trkpt>
      <trkpt lat="42.90403000" lon="12.70119000">
        <ele>211.00000</ele>
        <time>2010-01-01T04:23:21Z</time>
      </trkpt>
      <trkpt lat="42.90444900" lon="12.70077000">
        <ele>212.00000</ele>
        <time>2010-01-01T04:23:29Z</time>
      </trkpt>
      <trkpt lat="42.90683000" lon="12.69776000">
        <ele>212.00000</ele>
        <time>2010-01-01T04:24:21Z</time>
      </trkpt>
      <trkpt lat="42.90713100" lon="12.69728000">
        <ele>211.00000</ele>
        <time>2010-01-01T04:24:29Z</time>
      </trkpt>
      <trkpt lat="42.90749000" lon="12.69644000">
        <ele>211.00000</ele>
        <time>2010-01-01T04:24:40Z</time>
      </trkpt>
      <trkpt lat="42.90815000" lon="12.69429000">
        <ele>210.00000</ele>
        <time>2010-01-01T04:25:07Z</time>
      </trkpt>
      <trkpt lat="42.90844000" lon="12.69301000">
        <ele>210.00000</ele>
        <time>2010-01-01T04:25:23Z</time>
      </trkpt>
      <trkpt lat="42.90930900" lon="12.68989000">
        <ele>209.00000</ele>
        <time>2010-01-01T04:26:02Z</time>
      </trkpt>
      <trkpt lat="42.91003000" lon="12.68690000">
        <ele>208.00000</ele>
        <time>2010-01-01T04:26:39Z</time>
      </trkpt>
      <trkpt lat="42.91088900" lon="12.68178000">
        <ele>208.00000</ele>
        <time>2010-01-01T04:27:41Z</time>
      </trkpt>
      <trkpt lat="42.91122800" lon="12.68016000">
        <ele>208.00000</ele>
        <time>2010-01-01T04:28:00Z</time>
      </trkpt>
      <trkpt lat="42.91193000" lon="12.67726000">
        <ele>208.00000</ele>
        <time>2010-01-01T04:28:36Z</time>
      </trkpt>
      <trkpt lat="42.91566100" lon="12.66376000">
        <ele>207.00000</ele>
        <time>2010-01-01T04:31:25Z</time>
      </trkpt>
      <trkpt lat="42.91775100" lon="12.65895000">
        <ele>208.00000</ele>
        <time>2010-01-01T04:32:31Z</time>
      </trkpt>
      <trkpt lat="42.92182200" lon="12.64982000">
        <ele>208.00000</ele>
        <time>2010-01-01T04:34:36Z</time>
      </trkpt>
      <trkpt lat="42.92242100" lon="12.64881000">
        <ele>208.00000</ele>
        <time>2010-01-01T04:34:52Z</time>
      </trkpt>
      <trkpt lat="42.92039900" lon="12.64478000">
        <ele>213.00000</ele>
        <time>2010-01-01T04:35:49Z</time>
      </trkpt>
      <trkpt lat="42.91852200" lon="12.64487000">
        <ele>215.00000</ele>
        <time>2010-01-01T04:36:19Z</time>
      </trkpt>
      <trkpt lat="42.91832000" lon="12.64541000">
        <ele>214.00000</ele>
        <time>2010-01-01T04:36:26Z</time>
      </trkpt>
      <trkpt lat="42.91824000" lon="12.64553000">
        <ele>214.00000</ele>
        <time>2010-01-01T04:36:28Z</time>
      </trkpt>
      <trkpt lat="42.91746900" lon="12.64644000">
        <ele>217.00000</ele>
        <time>2010-01-01T04:36:44Z</time>
      </trkpt>
      <trkpt lat="42.91682800" lon="12.64702000">
        <ele>222.00000</ele>
        <time>2010-01-01T04:36:57Z</time>
      </trkpt>
      <trkpt lat="42.91624100" lon="12.64822000">
        <ele>219.00000</ele>
        <time>2010-01-01T04:37:14Z</time>
      </trkpt>
      <trkpt lat="42.91587100" lon="12.64887000">
        <ele>218.00000</ele>
        <time>2010-01-01T04:37:23Z</time>
      </trkpt>
      <trkpt lat="42.91465000" lon="12.65043000">
        <ele>221.00000</ele>
        <time>2010-01-01T04:37:50Z</time>
      </trkpt>
      <trkpt lat="42.91391000" lon="12.65163000">
        <ele>220.00000</ele>
        <time>2010-01-01T04:38:08Z</time>
      </trkpt>
      <trkpt lat="42.91280000" lon="12.65314000">
        <ele>221.00000</ele>
        <time>2010-01-01T04:38:33Z</time>
      </trkpt>
      <trkpt lat="42.91230000" lon="12.65370000">
        <ele>221.00000</ele>
        <time>2010-01-01T04:38:44Z</time>
      </trkpt>
      <trkpt lat="42.91196100" lon="12.65442000">
        <ele>219.00000</ele>
        <time>2010-01-01T04:38:54Z</time>
      </trkpt>
      <trkpt lat="42.91173900" lon="12.65472000">
        <ele>219.00000</ele>
        <time>2010-01-01T04:38:59Z</time>
      </trkpt>
      <trkpt lat="42.91157200" lon="12.65491000">
        <ele>218.00000</ele>
        <time>2010-01-01T04:39:02Z</time>
      </trkpt>
      <trkpt lat="42.91138800" lon="12.65503000">
        <ele>218.00000</ele>
        <time>2010-01-01T04:39:06Z</time>
      </trkpt>
      <trkpt lat="42.91127000" lon="12.65507000">
        <ele>218.00000</ele>
        <time>2010-01-01T04:39:08Z</time>
      </trkpt>
      <trkpt lat="42.91107900" lon="12.65505000">
        <ele>219.00000</ele>
        <time>2010-01-01T04:39:11Z</time>
      </trkpt>
      <trkpt lat="42.91080900" lon="12.65481000">
        <ele>220.00000</ele>
        <time>2010-01-01T04:39:16Z</time>
      </trkpt>
      <trkpt lat="42.90979000" lon="12.65364000">
        <ele>236.00000</ele>
        <time>2010-01-01T04:39:37Z</time>
      </trkpt>
      <trkpt lat="42.90961100" lon="12.65364000">
        <ele>238.00000</ele>
        <time>2010-01-01T04:39:40Z</time>
      </trkpt>
      <trkpt lat="42.90827900" lon="12.65645000">
        <ele>257.00000</ele>
        <time>2010-01-01T04:40:19Z</time>
      </trkpt>
      <trkpt lat="42.90787100" lon="12.65718000">
        <ele>258.00000</ele>
        <time>2010-01-01T04:40:30Z</time>
      </trkpt>
      <trkpt lat="42.90779900" lon="12.65711000">
        <ele>260.00000</ele>
        <time>2010-01-01T04:40:31Z</time>
      </trkpt>
      <trkpt lat="42.90681100" lon="12.65441000">
        <ele>287.00000</ele>
        <time>2010-01-01T04:41:07Z</time>
      </trkpt>
      <trkpt lat="42.90663900" lon="12.65428000">
        <ele>291.00000</ele>
        <time>2010-01-01T04:41:10Z</time>
      </trkpt>
      <trkpt lat="42.90589100" lon="12.65424000">
        <ele>301.00000</ele>
        <time>2010-01-01T04:41:22Z</time>
      </trkpt>
      <trkpt lat="42.90576200" lon="12.65419000">
        <ele>301.00000</ele>
        <time>2010-01-01T04:41:24Z</time>
      </trkpt>
      <trkpt lat="42.90481200" lon="12.65316000">
        <ele>307.00000</ele>
        <time>2010-01-01T04:41:44Z</time>
      </trkpt>
      <trkpt lat="42.90454100" lon="12.65293000">
        <ele>307.00000</ele>
        <time>2010-01-01T04:41:49Z</time>
      </trkpt>
      <trkpt lat="42.90419000" lon="12.65271000">
        <ele>309.00000</ele>
        <time>2010-01-01T04:41:55Z</time>
      </trkpt>
      <trkpt lat="42.90391900" lon="12.65267000">
        <ele>309.00000</ele>
        <time>2010-01-01T04:41:59Z</time>
      </trkpt>
      <trkpt lat="42.90356100" lon="12.65277000">
        <ele>309.00000</ele>
        <time>2010-01-01T04:42:05Z</time>
      </trkpt>
      <trkpt lat="42.90274000" lon="12.65312000">
        <ele>311.00000</ele>
        <time>2010-01-01T04:42:19Z</time>
      </trkpt>
      <trkpt lat="42.90251900" lon="12.65341000">
        <ele>315.00000</ele>
        <time>2010-01-01T04:42:24Z</time>
      </trkpt>
      <trkpt lat="42.90208800" lon="12.65439000">
        <ele>323.00000</ele>
        <time>2010-01-01T04:42:37Z</time>
      </trkpt>
      <trkpt lat="42.90187100" lon="12.65461000">
        <ele>326.00000</ele>
        <time>2010-01-01T04:42:41Z</time>
      </trkpt>
      <trkpt lat="42.90086000" lon="12.65495000">
        <ele>340.00000</ele>
        <time>2010-01-01T04:42:58Z</time>
      </trkpt>
      <trkpt lat="42.90029100" lon="12.65503000">
        <ele>351.00000</ele>
        <time>2010-01-01T04:43:07Z</time>
      </trkpt>
      <trkpt lat="42.89947100" lon="12.65525000">
        <ele>358.00000</ele>
        <time>2010-01-01T04:43:21Z</time>
      </trkpt>
      <trkpt lat="42.89880000" lon="12.65528000">
        <ele>372.00000</ele>
        <time>2010-01-01T04:43:31Z</time>
      </trkpt>
      <trkpt lat="42.89862100" lon="12.65521000">
        <ele>378.00000</ele>
        <time>2010-01-01T04:43:34Z</time>
      </trkpt>
      <trkpt lat="42.89854000" lon="12.65510000">
        <ele>381.00000</ele>
        <time>2010-01-01T04:43:36Z</time>
      </trkpt>
      <trkpt lat="42.89852100" lon="12.65493000">
        <ele>383.00000</ele>
        <time>2010-01-01T04:43:38Z</time>
      </trkpt>
      <trkpt lat="42.89860900" lon="12.65478000">
        <ele>382.00000</ele>
        <time>2010-01-01T04:43:41Z</time>
      </trkpt>
      <trkpt lat="42.89944800" lon="12.65433000">
        <ele>376.00000</ele>
        <time>2010-01-01T04:43:55Z</time>
      </trkpt>
      <trkpt lat="42.89952100" lon="12.65419000">
        <ele>379.00000</ele>
        <time>2010-01-01T04:43:57Z</time>
      </trkpt>
      <trkpt lat="42.89952100" lon="12.65394000">
        <ele>378.00000</ele>
        <time>2010-01-01T04:44:00Z</time>
      </trkpt>
      <trkpt lat="42.89936800" lon="12.65357000">
        <ele>379.00000</ele>
        <time>2010-01-01T04:44:05Z</time>
      </trkpt>
      <trkpt lat="42.89917000" lon="12.65329000">
        <ele>382.00000</ele>
        <time>2010-01-01T04:44:09Z</time>
      </trkpt>
      <trkpt lat="42.89894900" lon="12.65309000">
        <ele>382.00000</ele>
        <time>2010-01-01T04:44:14Z</time>
      </trkpt>
      <trkpt lat="42.89876200" lon="12.65304000">
        <ele>385.00000</ele>
        <time>2010-01-01T04:44:17Z</time>
      </trkpt>
      <trkpt lat="42.89839200" lon="12.65304000">
        <ele>394.00000</ele>
        <time>2010-01-01T04:44:23Z</time>
      </trkpt>
      <trkpt lat="42.89822000" lon="12.65310000">
        <ele>398.00000</ele>
        <time>2010-01-01T04:44:25Z</time>
      </trkpt>
      <trkpt lat="42.89812900" lon="12.65322000">
        <ele>401.00000</ele>
        <time>2010-01-01T04:44:28Z</time>
      </trkpt>
      <trkpt lat="42.89793000" lon="12.65371000">
        <ele>407.00000</ele>
        <time>2010-01-01T04:44:34Z</time>
      </trkpt>
      <trkpt lat="42.89765200" lon="12.65486000">
        <ele>416.00000</ele>
        <time>2010-01-01T04:44:48Z</time>
      </trkpt>
      <trkpt lat="42.89744200" lon="12.65513000">
        <ele>421.00000</ele>
        <time>2010-01-01T04:44:53Z</time>
      </trkpt>
      <trkpt lat="42.89730100" lon="12.65519000">
        <ele>423.00000</ele>
        <time>2010-01-01T04:44:55Z</time>
      </trkpt>
      <trkpt lat="42.89716000" lon="12.65514000">
        <ele>426.00000</ele>
        <time>2010-01-01T04:44:58Z</time>
      </trkpt>
      <trkpt lat="42.89683200" lon="12.65481000">
        <ele>435.00000</ele>
        <time>2010-01-01T04:45:04Z</time>
      </trkpt>
      <trkpt lat="42.89622100" lon="12.65483000">
        <ele>439.00000</ele>
        <time>2010-01-01T04:45:14Z</time>
      </trkpt>
      <trkpt lat="42.89596200" lon="12.65473000">
        <ele>442.00000</ele>
        <time>2010-01-01T04:45:18Z</time>
      </trkpt>
      <trkpt lat="42.89590100" lon="12.65467000">
        <ele>443.00000</ele>
        <time>2010-01-01T04:45:19Z</time>
      </trkpt>
      <trkpt lat="42.89585100" lon="12.65451000">
        <ele>446.00000</ele>
        <time>2010-01-01T04:45:21Z</time>
      </trkpt>
      <trkpt lat="42.89590100" lon="12.65414000">
        <ele>451.00000</ele>
        <time>2010-01-01T04:45:26Z</time>
      </trkpt>
      <trkpt lat="42.89588200" lon="12.65390000">
        <ele>451.00000</ele>
        <time>2010-01-01T04:45:29Z</time>
      </trkpt>
      <trkpt lat="42.89574100" lon="12.65373000">
        <ele>452.00000</ele>
        <time>2010-01-01T04:45:32Z</time>
      </trkpt>
      <trkpt lat="42.89579000" lon="12.65368000">
        <ele>452.00000</ele>
        <time>2010-01-01T04:45:33Z</time>
      </trkpt>
      <trkpt lat="42.89574800" lon="12.65354000">
        <ele>453.00000</ele>
        <time>2010-01-01T04:45:34Z</time>
      </trkpt>
      <trkpt lat="42.89567200" lon="12.65357000">
        <ele>453.00000</ele>
        <time>2010-01-01T04:45:36Z</time>
      </trkpt>
      <trkpt lat="42.89474100" lon="12.65304000">
        <ele>462.00000</ele>
        <time>2010-01-01T04:45:52Z</time>
      </trkpt>
    </trkseg>
  </trk>
</gpx>

